[[{"header":{"parameterUnit":"m.s-1","parameterCategory":1,"la1":30.6,"la2":29.2853,"lo1":-89.7004,"lo2":-87.6739,"dy":0.0162,"dx":0.0183,"nx":112,"ny":82,"refTime":"2024-08-22T06:00:00:Z","depth":0,"parameterNumber":2,"parameterNumberName":"U-component_of_WINDS"},"data":[0.0,0.0,0.0,0.0,0.0,0.0,0.0,0.0,0.0,0.0,0.0,0.0,0.0,0.0,0.0,0.0,0.0,0.0,0.0,0.0,0.0,0.0,0.0,0.0,0.0,0.0,0.0,0.0,0.0,0.0,0.0,0.0,0.0,0.0,0.0,0.0,0.0,0.0,0.0,0.0,0.0,0.0,0.0,0.0,0.0,0.0,0.0,0.0,0.0,0.0,0.0,0.0,0.0,0.0,0.0,0.0,0.0,0.0,0.0,0.0,0.0,0.0,0.0,0.0,0.0,0.0,0.0,0.0,0.0,0.0,0.0,0.0,0.0,0.0,0.0,0.0,0.0,0.0,0.0,0.0,0.0,0.0,0.0,0.0,0.0,0.0,0.0,0.0,0.0,0.0,1.1835,1.0381,1.35,1.6234,1.7565,1.917,1.9011,1.6433,0.0,0.0,0.0,0.0,0.0,0.0,0.0,0.0,0.0,0.0,0.0,0.0,0.0,0.0,0.0,0.0,0.0,0.0,0.0,0.0,0.0,0.0,0.0,0.0,0.0,0.0,0.0,0.0,0.0,0.0,0.0,0.0,0.0,0.0,0.0,0.0,0.0,0.0,0.0,0.0,0.0,0.0,0.0,0.0,0.0,0.0,0.0,0.0,0.0,0.0,0.0,0.0,0.0,0.0,0.0,0.0,0.0,0.0,0.0,0.0,0.0,0.0,0.0,0.0,0.0,0.0,0.0,0.0,0.0,0.0,0.0,0.0,0.0,0.0,0.0,0.0,0.0,0.0,0.0,0.0,0.0,0.0,0.0,0.0,0.0,0.0,0.0,0.0,0.0,0.0,0.0,0.0,0.0,0.0,0.0,0.0,0.0,0.0,0.0,0.0,0.0,0.0,0.0,0.0,0.9816,1.0243,1.3589,1.5711,1.5462,1.7973,1.8571,1.6406,0.0,0.0,0.0,0.0,0.0,0.0,0.0,0.0,0.0,0.0,0.0,0.0,0.0,0.0,0.0,0.0,0.0,0.0,0.0,0.0,0.0,0.0,0.0,0.0,0.0,0.0,0.0,0.0,0.0,0.0,0.0,0.0,0.0,0.0,0.0,0.0,0.0,0.0,0.0,0.0,0.0,0.0,0.0,0.0,0.0,0.0,0.0,0.0,0.0,0.0,0.0,0.0,0.0,0.0,0.0,0.0,0.0,0.0,0.0,0.0,0.0,0.0,0.0,0.0,0.0,0.0,0.0,0.0,0.0,0.0,0.0,0.0,0.0,0.0,0.0,0.0,0.0,0.0,0.0,0.0,0.0,0.0,0.0,0.0,0.0,0.0,0.0,0.0,0.0,0.0,0.0,0.0,0.0,0.0,0.0,0.0,0.0,0.0,0.0,0.0,0.0,0.0,0.0,1.0492,1.0343,1.1626,1.4318,1.6167,1.6599,1.8332,1.8477,1.6406,1.5003,0.0,0.0,0.0,0.0,0.0,0.0,0.0,0.0,0.0,0.0,0.0,0.0,0.0,0.0,0.0,0.0,0.0,0.0,0.0,0.0,0.0,0.0,0.0,0.0,0.0,0.0,0.0,0.0,0.0,0.0,0.0,0.0,0.0,0.0,0.0,0.0,0.0,0.0,0.0,0.0,0.0,0.0,0.0,0.0,0.0,0.0,0.0,0.0,0.0,0.0,0.0,0.0,0.0,0.0,0.0,0.0,0.0,0.0,0.0,0.0,0.0,0.0,0.0,0.0,0.0,0.0,0.0,0.0,0.0,0.0,0.0,0.0,0.0,0.0,0.0,0.0,0.0,0.0,0.0,0.0,0.0,0.0,0.0,0.0,0.0,0.0,0.0,0.0,0.0,0.0,0.0,0.0,0.0,0.0,0.0,0.0,0.0,0.0,0.0,0.0,0.0,0.0,1.1899,1.2095,1.3616,1.5426,1.6968,1.7941,1.8606,1.8156,1.6286,1.4426,0.0,0.0,0.0,0.0,0.0,0.0,0.0,0.0,0.0,0.0,0.0,0.0,0.0,0.0,0.0,0.0,0.0,0.0,0.0,0.0,0.0,0.0,0.0,0.0,0.0,0.0,0.0,0.0,0.0,0.0,0.0,0.0,0.0,0.0,0.0,0.0,0.0,0.0,0.0,0.0,0.0,0.0,0.0,0.0,0.0,0.0,0.0,0.0,0.0,0.0,0.0,0.0,0.0,0.0,0.0,0.0,0.0,0.0,0.0,0.0,0.0,0.0,0.0,0.0,0.0,0.0,0.0,0.0,0.0,0.0,0.0,0.0,0.0,0.0,0.0,0.0,0.0,0.0,0.0,0.0,0.0,0.0,0.0,0.0,0.0,0.0,0.0,0.0,0.0,0.0,0.0,0.0,0.0,0.0,0.0,0.0,0.0,0.0,0.0,0.0,0.0,0.0,1.3798,1.4971,1.5683,1.7334,1.8174,1.7684,1.7654,1.7181,1.5939,1.3803,0.0,0.0,0.0,0.0,0.0,0.0,0.0,0.0,0.0,0.0,0.0,0.0,0.0,0.0,0.0,0.0,0.0,0.0,0.0,0.0,0.0,0.0,0.0,0.0,0.0,0.0,0.0,0.0,0.0,0.0,0.0,0.0,0.0,0.0,0.0,0.0,0.0,0.0,0.0,0.0,0.0,0.0,0.0,0.0,0.0,0.0,0.0,0.0,0.0,0.0,0.0,0.0,0.0,0.0,0.0,0.0,0.0,0.0,0.0,0.0,0.0,0.0,0.0,0.0,0.0,0.0,0.0,0.0,0.0,0.0,0.0,0.0,0.0,0.0,0.0,0.0,0.0,0.0,0.0,0.0,0.0,0.0,0.0,0.0,0.0,0.0,0.0,0.0,0.0,0.0,0.0,0.0,0.0,0.0,0.0,0.0,0.0,0.0,0.0,0.0,0.0,0.0,1.4713,1.6045,0.0,1.8116,1.868,1.9157,1.8761,1.7595,1.5685,0.0,0.0,0.0,0.0,0.0,0.0,0.0,0.0,0.0,0.0,0.0,0.0,0.0,0.0,0.0,0.0,0.0,0.0,0.0,0.0,0.0,0.0,0.0,0.0,0.0,0.0,0.0,0.0,0.0,0.0,0.0,0.0,0.0,0.0,0.0,0.0,0.0,0.0,0.0,0.0,0.0,0.0,0.0,0.0,0.0,0.0,0.0,0.0,0.0,0.0,0.0,0.0,0.0,0.0,0.0,0.0,0.0,0.0,0.0,0.0,0.0,0.0,0.0,0.0,0.0,0.0,0.0,0.0,0.0,0.0,0.0,0.0,0.0,0.0,0.0,0.0,0.0,0.0,0.0,0.0,0.0,0.0,0.0,0.0,0.0,0.0,0.0,0.0,0.0,0.0,0.0,0.0,0.0,0.0,0.0,0.0,0.0,0.0,0.0,0.0,0.0,0.0,1.4871,1.6344,1.7766,0.0,1.9291,1.9588,2.0159,1.9078,1.7515,1.5524,0.0,0.0,0.0,0.0,0.0,0.0,0.0,0.0,0.0,0.0,0.0,0.0,0.0,0.0,0.0,0.0,0.0,0.0,0.0,0.0,0.0,0.0,0.0,0.0,0.0,0.0,0.0,0.0,0.0,0.0,0.0,0.0,0.0,0.0,0.0,0.0,0.0,0.0,0.0,0.0,0.0,0.0,0.0,0.0,0.0,0.0,0.0,0.0,0.0,0.0,0.0,0.0,0.0,0.0,0.0,0.0,0.0,0.0,0.0,0.0,0.0,0.0,0.0,0.0,0.0,0.0,0.0,0.0,0.0,0.0,0.0,0.0,0.0,0.0,0.0,0.0,0.0,0.0,0.0,0.0,0.0,0.0,0.0,0.0,0.0,0.0,0.0,0.0,0.0,0.0,0.0,0.0,0.0,0.0,0.0,0.0,0.0,0.0,0.0,0.0,0.0,0.0,1.6887,1.8958,2.0454,2.1042,2.1109,2.0869,2.0281,1.8343,1.666,0.0,0.0,0.0,0.0,0.0,0.0,0.0,0.0,0.0,0.0,0.0,0.0,0.0,0.0,0.0,0.0,0.0,0.0,0.0,0.0,0.0,0.0,0.0,0.0,0.0,0.0,0.0,0.0,0.0,0.0,0.0,0.0,0.0,0.0,0.0,0.0,0.0,0.0,0.0,0.0,0.0,0.0,0.0,0.0,0.0,0.0,0.0,0.0,0.0,0.0,0.0,0.0,0.0,0.0,0.0,0.0,0.0,0.0,0.0,0.0,0.0,0.0,0.0,0.0,0.0,0.0,0.0,0.0,0.0,0.0,0.0,0.0,0.0,0.0,0.0,0.0,0.0,0.0,0.0,0.0,0.0,0.0,0.0,0.0,0.0,0.0,0.0,0.0,0.0,0.0,0.0,0.0,0.0,0.0,0.0,0.0,0.0,0.0,0.0,0.0,0.0,0.0,0.0,1.6887,1.8958,2.0454,2.1042,2.1109,2.0869,2.0281,1.8918,1.7626,1.6487,0.0,0.0,0.0,0.0,0.0,0.0,0.0,0.0,0.0,0.0,0.0,0.0,0.0,0.0,0.0,0.0,0.0,0.0,0.0,0.0,0.0,0.0,0.0,0.0,0.0,0.0,0.0,0.0,0.0,0.0,0.0,0.0,0.0,0.0,0.0,0.0,0.0,0.0,0.0,0.0,0.0,0.0,0.0,0.0,0.0,0.0,0.0,0.0,0.0,0.0,0.0,0.0,0.0,0.0,0.0,0.0,0.0,0.0,0.0,0.0,0.0,0.0,0.0,0.0,0.0,0.0,0.0,0.0,0.0,0.0,0.0,0.0,0.0,0.0,0.0,0.0,0.0,0.0,0.0,0.0,0.0,0.0,0.0,0.0,0.0,0.0,0.0,0.0,0.0,0.0,0.0,0.0,0.0,0.0,0.0,0.0,0.0,0.0,0.0,0.0,0.0,0.0,1.7048,1.9025,2.0454,2.1042,2.1109,2.0869,2.0281,1.9265,1.8036,1.6683,0.0,0.0,0.0,0.0,0.0,0.0,0.0,0.0,0.0,0.0,0.0,0.0,0.0,0.0,0.0,0.0,0.0,0.0,0.0,0.0,0.0,0.0,0.0,0.0,0.0,0.0,0.0,0.0,0.0,0.0,0.0,0.0,0.0,0.0,0.0,0.0,0.0,0.0,0.0,0.0,0.0,0.0,0.0,0.0,0.0,0.0,0.0,0.0,0.0,0.0,0.0,0.0,0.0,0.0,0.0,0.0,0.0,0.0,0.0,0.0,0.0,0.0,0.0,0.0,0.0,0.0,0.0,0.0,0.0,0.0,0.0,0.0,0.0,0.0,0.0,0.0,0.0,0.0,0.0,0.0,0.0,0.0,0.0,0.0,0.0,0.0,0.0,0.0,0.0,0.0,0.0,0.0,0.0,0.0,0.0,0.0,0.0,0.0,0.0,0.0,0.0,0.0,1.7328,1.9172,2.0494,2.1056,2.1109,2.0882,2.0321,1.9466,1.8223,1.6697,0.0,0.0,0.0,0.0,0.0,0.0,0.0,0.0,0.0,0.0,0.0,0.0,0.0,0.0,0.0,0.0,0.0,0.0,0.0,0.0,0.0,0.0,0.0,0.0,0.0,0.0,0.0,0.0,0.0,0.0,0.0,0.0,0.0,0.0,0.0,0.0,0.0,0.0,0.0,0.0,0.0,0.0,0.0,0.0,0.0,0.0,0.0,0.0,0.0,0.0,0.0,0.0,0.0,0.0,0.0,0.0,0.0,0.0,0.0,0.0,1.8086,0.0,0.0,0.0,0.0,0.0,0.0,0.0,0.0,0.0,0.0,0.0,0.0,0.0,0.0,0.0,0.0,0.0,0.0,0.0,0.0,0.0,0.0,0.0,0.0,0.0,0.0,0.0,0.0,0.0,0.0,0.0,0.0,0.0,0.0,0.0,0.0,0.0,0.0,0.0,0.0,0.0,1.7675,1.9492,2.0722,2.1069,2.1109,2.0962,2.0615,1.9773,1.904,1.8508,1.7675,0.0,0.0,0.0,0.0,0.0,0.0,0.0,0.0,0.0,0.0,0.0,0.0,0.0,0.0,0.0,0.0,0.0,0.0,0.0,0.0,0.0,0.0,0.0,0.0,0.0,0.0,0.0,0.0,0.0,0.0,0.0,0.0,0.0,0.0,0.0,0.0,0.0,0.0,0.0,0.0,0.0,0.0,0.0,0.0,0.0,0.0,0.0,0.0,0.0,0.0,0.0,0.0,0.0,0.0,0.0,0.0,0.0,0.0,0.0,0.0,1.9785,0.0,0.0,0.0,0.0,0.0,0.0,0.0,0.0,0.0,0.0,0.0,0.0,0.0,0.0,0.0,0.0,0.0,0.0,0.0,0.0,0.0,0.0,0.0,0.0,0.0,0.0,0.0,0.0,0.0,0.0,0.0,0.0,0.0,0.0,0.0,0.0,0.0,0.0,0.0,0.0,1.7782,1.9573,2.0788,2.1082,2.1109,2.0989,2.0695,2.0,1.9415,1.8932,1.8101,0.0,0.0,0.0,0.0,0.0,0.0,0.0,0.0,0.0,0.0,0.0,0.0,0.0,0.0,0.0,0.0,0.0,0.0,0.0,0.0,0.0,0.0,0.0,0.0,0.0,0.0,0.0,0.0,0.0,0.0,0.0,0.0,0.0,0.0,0.0,0.0,0.0,0.0,0.0,0.0,0.0,0.0,0.0,0.0,0.0,0.0,0.0,0.0,0.0,0.0,0.0,0.0,0.0,2.3107,2.3711,2.4334,2.4846,2.5225,2.5452,2.3572,2.3094,2.3437,2.1426,0.0,0.0,0.0,0.0,0.0,0.0,0.0,0.0,0.0,0.0,0.0,0.0,0.0,0.0,0.0,0.0,0.0,0.0,0.0,0.0,0.0,0.0,0.0,0.0,2.086,2.1176,1.8924,0.0,0.0,0.0,0.0,0.0,0.0,0.0,0.0,0.0,0.0,0.0,1.8036,1.972,2.0842,2.1082,2.1109,2.1015,2.0775,2.0254,1.9706,1.9118,1.8408,1.8245,0.0,0.0,0.0,0.0,0.0,0.0,0.0,0.0,0.0,0.0,0.0,0.0,0.0,0.0,0.0,0.0,0.0,0.0,0.0,0.0,0.0,0.0,0.0,0.0,0.0,0.0,0.0,0.0,0.0,0.0,0.0,0.0,1.8706,1.9913,0.0,0.0,0.0,0.0,0.0,0.0,0.0,0.0,0.0,0.0,0.0,0.0,0.0,1.8356,1.9782,2.1208,2.2001,2.2166,2.3794,2.4423,2.4111,2.4574,2.4775,2.4922,2.598,0.0,2.5273,2.3867,0.0,0.0,0.0,0.0,0.0,0.0,0.0,0.0,0.0,0.0,0.0,0.0,0.0,0.0,0.0,0.0,0.0,0.0,0.0,0.0,0.0,0.0,1.9951,1.9891,2.0164,2.0614,0.0,2.0147,1.8856,1.801,1.6645,0.0,0.0,0.0,0.0,0.0,0.0,0.0,1.8998,2.0281,2.1069,2.1109,2.1109,2.1096,2.1056,2.0748,2.0307,1.972,2.0076,1.9964,1.9154,1.8926,0.0,0.0,0.0,0.0,0.0,0.0,0.0,0.0,0.0,0.0,0.0,0.0,0.0,0.0,0.0,0.0,0.0,0.0,0.0,0.0,0.0,0.0,0.0,0.0,0.0,0.0,0.0,0.0,0.0,1.8355,2.0589,2.1066,2.197,2.1831,0.0,0.0,0.0,0.0,0.0,0.0,0.0,0.0,0.0,1.7455,1.8637,1.9861,2.0925,2.245,2.3424,2.3926,2.4662,2.5107,2.5156,2.532,2.5386,2.5506,2.6219,2.6134,2.5466,2.5857,2.5234,2.4043,0.0,0.0,0.0,0.0,2.4023,2.3673,2.5131,2.4812,2.3698,2.2663,0.0,0.0,0.0,0.0,0.0,0.0,0.0,0.0,0.0,0.0,1.7329,1.8619,1.8244,1.7874,1.8356,1.7718,1.7644,0.0,1.9803,1.875,1.6226,0.0,0.0,0.0,0.0,1.8317,1.9466,2.0494,2.1109,2.1109,2.1109,2.1109,2.1109,2.0842,2.0561,2.0307,2.0192,2.0274,2.0435,1.9746,1.8997,0.0,0.0,0.0,0.0,0.0,0.0,0.0,0.0,0.0,0.0,0.0,0.0,0.0,0.0,0.0,0.0,0.0,0.0,0.0,0.0,0.0,0.0,0.0,0.0,0.0,0.0,0.0,0.0,2.0482,2.2389,2.2402,2.385,2.3579,0.0,0.0,0.0,0.0,0.0,0.0,1.6626,1.7485,1.8033,1.8237,1.9738,2.0844,2.1511,2.2686,2.3645,2.4264,2.4342,2.453,2.4904,2.4983,2.503,2.503,2.5402,2.5365,2.5133,2.6457,2.6443,2.5535,2.4902,2.4603,2.4603,2.5442,2.5068,2.4384,2.6031,2.569,2.4302,2.3359,2.2544,2.1417,1.928,0.0,0.0,0.0,0.0,1.5445,1.775,1.6729,1.5391,1.7119,1.6701,1.5913,1.5913,1.5782,1.6512,0.0,2.0569,1.988,1.7343,0.0,0.0,0.0,0.0,1.9118,1.992,2.0655,2.1109,2.1109,2.1109,2.1109,2.1109,2.0909,2.0762,2.0681,2.0187,2.0233,2.0946,1.9986,1.9433,1.9161,0.0,0.0,0.0,0.0,0.0,0.0,0.0,0.0,0.0,0.0,0.0,0.0,0.0,0.0,0.0,0.0,0.0,0.0,0.0,0.0,0.0,0.0,0.0,0.0,0.0,0.0,0.0,0.0,0.0,2.48,2.6083,0.0,0.0,0.0,0.0,1.7409,1.761,1.7964,1.8359,1.8991,1.9479,2.008,2.0523,2.0832,2.1141,2.1155,2.1308,2.1335,2.1619,2.1767,2.1795,2.2065,2.22,2.2318,2.3854,2.4486,2.4479,2.4707,2.4285,2.3517,2.3484,2.3272,2.3059,2.3891,2.4367,2.4713,2.5258,2.5271,2.5304,2.572,2.3528,2.0757,1.9822,1.7303,0.0,0.0,1.455,1.4831,1.5543,1.5829,1.5873,1.6022,1.5903,1.5913,1.5913,1.5903,1.5822,0.0,1.5412,1.5392,1.6623,0.0,1.702,1.8915,1.9506,1.9947,2.0561,2.0909,2.1109,2.1109,2.1109,2.1109,2.1109,2.1096,2.0962,2.0695,2.0388,2.008,1.9905,1.9314,1.8695,1.8077,1.7456,0.0,0.0,0.0,0.0,0.0,0.0,0.0,0.0,0.0,0.0,0.0,0.0,0.0,0.0,0.0,0.0,0.0,0.0,0.0,0.0,0.0,0.0,0.0,0.0,0.0,0.0,0.0,0.0,2.4292,2.4555,0.0,2.1011,1.9678,1.8993,1.911,1.8963,1.9095,1.9573,1.9987,2.0388,2.0788,2.0895,2.1096,2.139,2.139,2.0954,1.9948,2.0047,2.0084,2.0096,2.0182,2.0908,2.1991,2.2621,2.2883,2.2841,2.2907,2.4067,2.5692,2.5692,2.561,2.5528,2.579,2.5338,2.4469,2.4702,2.4007,2.2978,2.1833,2.0493,1.9025,1.7633,1.6425,1.5391,1.5423,1.46,1.4107,1.5544,1.4277,1.28,1.397,1.3418,1.2712,1.2712,1.2799,1.2855,1.2799,1.4187,1.5408,1.5387,1.6563,1.7623,1.7982,1.9318,2.0508,2.0909,2.1042,2.1109,2.1109,2.1109,2.1109,2.1109,2.0935,2.0788,2.0681,2.0227,1.9456,1.8214,1.7712,1.6791,1.5263,1.624,1.6157,0.0,0.0,0.0,0.0,0.0,0.0,0.0,0.0,0.0,0.0,0.0,0.0,0.0,0.0,0.0,0.0,0.0,0.0,0.0,0.0,0.0,0.0,0.0,0.0,0.0,2.3318,2.4012,2.1843,2.1525,2.058,1.8225,1.7279,1.7508,1.9185,1.8542,1.8542,1.9619,1.9824,2.0055,2.0336,2.1001,2.1133,2.0758,2.0758,1.9915,1.8206,1.8283,1.8328,1.8328,1.8417,1.914,2.0368,2.1053,2.1053,2.0368,2.1053,2.2218,2.3722,2.4864,2.5304,2.5304,2.5304,2.4545,2.3652,2.3652,2.2476,2.0869,1.9484,1.8114,1.6661,1.5478,1.4827,1.4325,1.4459,1.3604,1.2877,1.4066,1.2673,1.1135,1.2319,1.1745,1.1023,1.1023,1.1097,1.1165,1.1165,1.2879,1.4286,1.4205,1.5493,1.6583,1.6684,1.8031,1.9083,1.9267,1.9291,1.9291,1.9291,1.9291,1.9546,2.0195,1.985,1.9683,1.9897,1.9279,1.8109,1.6503,1.6045,1.5219,1.383,1.5036,1.5307,1.4409,0.0,0.0,0.0,0.0,0.0,0.0,0.0,0.0,0.0,0.0,0.0,0.0,0.0,0.0,0.0,0.0,0.0,0.0,0.0,0.0,0.0,0.0,0.0,2.118,2.1743,2.0847,1.7475,1.7118,1.5716,1.2438,1.3067,1.4761,1.7234,1.6233,1.6329,1.8372,1.8396,1.8641,1.89,2.0501,2.064,1.9166,1.9166,1.8217,1.633,1.6539,1.6776,1.6776,1.7007,1.7107,1.7248,1.9217,1.8938,1.7388,1.9217,1.8938,1.7487,2.06,2.1872,2.1872,2.1872,2.2017,2.2017,2.2004,2.0788,1.9166,1.9032,1.6726,1.3738,1.3738,1.2521,1.1165,1.1165,1.1165,1.1165,1.1165,1.1165,1.1165,1.1165,1.1165,1.1172,1.1172,1.1172,1.1179,1.1179,1.1179,1.1674,1.3116,1.3478,1.4068,1.5574,1.5923,0.0,1.5913,1.5913,1.5913,1.5913,1.5913,1.656,1.8244,1.7906,1.7719,1.8203,1.7373,1.6234,1.4816,1.4269,1.3943,1.386,1.3901,1.4252,1.5028,0.0,0.0,0.0,0.0,0.0,0.0,0.0,0.0,0.0,0.0,0.0,0.0,0.0,0.0,0.0,0.0,0.0,0.0,0.0,0.0,0.0,1.8642,1.852,1.8748,1.8489,1.6455,1.16,1.031,0.9566,0.8817,1.0385,1.2234,1.4217,1.5238,1.6053,1.6671,1.6813,1.6918,1.7149,1.7561,1.7669,1.7497,1.7497,1.6619,1.4973,1.5026,1.5053,1.5053,1.5115,1.5839,1.7248,1.7809,1.7669,1.7248,1.7809,1.7669,1.7238,1.8229,1.9427,2.0674,2.0674,2.1505,2.2483,2.1096,2.0131,1.9016,1.6402,1.48,1.3601,1.2246,1.1572,1.1185,1.1294,1.1246,1.1192,1.1301,1.1246,1.1165,1.1165,1.1246,1.1328,1.1328,1.1416,1.1497,1.1497,1.1497,1.155,1.1826,1.2759,1.3587,1.4059,1.5109,0.0,1.5913,1.5913,1.5913,1.5913,1.5913,1.6043,1.656,1.6139,1.5958,1.5852,1.5194,1.4184,1.2822,1.2472,1.233,1.256,1.2056,1.2413,0.0,0.0,0.0,0.0,0.0,0.0,0.0,0.0,0.0,0.0,0.0,0.0,0.0,0.0,0.0,0.0,0.0,0.0,0.0,0.0,0.0,0.0,1.7344,1.6045,1.4449,1.3831,1.1645,0.6571,0.4816,0.4377,0.5332,0.721,0.9633,1.2988,1.363,1.4148,1.492,1.5138,1.5278,1.5484,1.6167,1.6275,1.5793,1.5793,1.4877,1.3167,1.3167,1.3167,1.3167,1.3167,1.3912,1.498,1.5827,1.5739,1.5102,1.5956,1.5812,0.0,0.0,0.0,0.0,0.0,2.0756,2.1459,1.9495,1.8282,1.7046,1.4964,1.3644,1.2734,1.1629,1.1355,1.1369,1.1463,1.1423,1.1375,1.1463,1.1423,1.1355,1.1355,1.1423,1.1484,1.1484,1.1558,1.1619,1.1619,1.1619,0.0,1.1382,1.2051,1.2596,1.2527,1.3294,1.3831,1.3831,1.3761,1.3709,1.3709,1.3709,1.397,1.4754,1.437,0.0,0.0,0.0,1.2604,1.1105,1.0105,0.0,0.0,0.0,0.0,0.0,0.0,0.0,0.0,1.5329,1.5624,0.0,0.0,0.0,0.0,0.0,0.0,0.0,0.0,0.0,0.0,0.0,0.0,0.0,0.0,0.0,0.0,1.6127,1.3781,0.979,0.9062,0.7214,0.2464,0.0794,0.0801,0.2794,0.4806,0.7887,1.2684,1.1926,1.176,1.3133,1.3415,0.0,0.0,0.0,1.5514,1.4148,1.4148,1.3309,1.1619,1.1633,1.1647,1.1647,1.166,1.1735,1.2004,1.3597,1.3536,1.221,1.3964,1.3675,1.248,1.5623,1.8023,1.9575,1.9715,1.9843,1.9541,1.757,0.0,0.0,1.4148,1.3031,1.1619,1.1619,1.1619,1.1619,1.1619,1.1619,1.1619,1.1619,1.1619,1.1619,1.1619,1.1619,1.1619,1.1619,1.1619,1.1619,1.1619,1.1619,1.1619,1.1619,1.1491,1.1341,1.0928,1.0783,1.0561,1.0283,1.0309,1.0365,1.0365,0.0,0.0,1.2832,1.2395,1.2123,1.2515,1.1736,1.0776,0.9303,0.7612,0.6846,0.7121,0.5587,0.5752,0.7771,0.8026,0.8,0.781,1.1784,1.3352,0.0,0.0,0.0,0.0,0.0,0.0,0.0,0.0,0.0,0.0,0.0,0.0,0.0,0.0,0.0,1.7313,1.4971,1.2266,1.0317,0.8969,0.6288,0.1061,0.0133,0.1199,0.4496,0.7695,1.0028,1.122,1.2365,1.2663,1.1838,1.1881,1.1973,1.213,1.2415,1.243,1.218,1.2187,1.19,1.1619,0.0,0.0,1.1796,1.1918,1.1993,1.2013,1.2459,1.248,1.206,1.2501,1.2501,1.2352,1.4473,1.5603,1.6031,1.7639,1.8104,1.7796,1.5803,1.4845,1.4148,1.2602,1.19,1.1619,1.1619,1.1619,0.0,1.1619,1.1619,1.1619,1.1619,1.1619,1.1619,1.1619,1.1619,1.1619,1.1619,1.1619,1.1619,1.1619,1.1619,1.1619,1.1619,1.1491,1.0805,0.9214,0.8831,0.8198,0.6672,0.7764,0.8724,0.8724,1.0104,1.1166,1.1312,0.9782,0.8853,0.8649,0.7243,0.6205,0.5799,0.5774,0.5722,0.5769,0.5418,0.5481,0.5969,0.6112,0.6106,0.6236,0.8637,0.9722,0.0,0.0,0.0,0.0,0.0,0.0,0.0,0.0,0.0,0.0,0.0,1.7674,1.636,0.0,1.5962,1.5056,1.2926,1.114,1.0507,0.9726,0.7631,0.3183,0.4084,0.59,0.7747,1.1178,1.289,1.2216,1.3133,1.3054,1.1516,1.1463,1.1538,1.1619,1.1619,1.1619,1.1619,1.1619,1.1653,1.1728,1.1796,1.187,1.1952,1.2026,1.2101,1.2176,1.2176,1.2216,1.2284,1.2284,1.2284,1.2429,1.3325,1.4263,1.4982,1.6012,1.6232,1.5858,1.3984,1.3351,1.3122,1.2039,1.1728,1.1714,1.164,1.1619,1.1619,1.1619,1.1619,1.1619,1.1619,1.1619,1.1619,1.1619,1.1619,1.1619,1.1619,1.1619,1.1619,1.1619,1.1619,1.1325,1.0305,1.0102,0.9769,0.876,0.7672,0.6625,0.5638,0.6306,0.7252,0.8233,0.8228,0.8623,0.9537,0.782,0.6677,0.65,0.5587,0.5214,0.5112,0.4482,0.4117,0.4028,0.217,0.1168,0.1183,0.0,0.0154,0.1419,0.2214,0.4452,0.0,0.0,0.0,0.0,0.0,0.0,0.0,0.0,1.9099,1.8224,1.8111,1.759,1.5754,1.5725,1.5397,1.3277,1.1795,1.1027,1.1534,1.2102,1.1379,0.866,1.0385,1.2155,1.3029,1.5268,1.6121,1.4672,1.4458,1.3425,1.1564,1.1552,1.1619,1.1619,1.1619,1.1619,1.1619,1.1647,1.1714,1.183,1.1891,1.1986,1.2108,1.2135,1.2216,1.2332,1.2332,1.2393,1.2501,1.2501,1.2501,1.2501,1.2501,1.3253,1.4505,1.4505,1.4481,1.4159,1.2692,1.2088,1.204,1.1877,1.183,1.1803,1.166,1.1619,1.1619,1.1619,1.1619,1.1619,1.1619,1.1619,1.1619,1.1619,1.1619,1.1619,1.1619,1.1619,1.1619,1.1619,1.1325,1.0593,0.8992,0.8121,0.7544,0.7544,0.6184,0.5003,0.4575,0.4814,0.5484,0.703,0.6189,0.5901,0.7144,0.5744,0.4765,0.4345,0.4366,0.4115,0.3727,0.2304,0.1311,0.0891,-0.2085,-0.3773,-0.3704,-0.515,-0.4926,-0.3093,-0.2794,0.033,2.0916,2.1238,2.1761,2.3112,2.2214,2.1445,0.0,0.0,2.1707,1.9964,1.9278,1.8571,1.6937,1.4769,1.3725,1.4915,1.3931,1.3544,1.5125,1.7896,1.9638,1.9234,1.8046,1.8488,2.1658,2.1007,1.9749,1.8271,1.6923,1.4716,1.1722,1.1613,1.1619,1.1619,1.1619,1.1619,1.1619,1.1742,1.1816,1.1837,1.2108,1.225,1.2271,1.2393,1.2461,1.2481,1.2481,1.2488,1.2501,1.2501,1.2501,1.2501,1.2501,1.2635,1.2755,1.2755,1.2671,1.256,1.2416,1.2176,1.204,1.1877,1.183,1.1803,1.166,1.1619,1.1619,1.1619,1.1619,1.1619,1.1619,1.1619,1.1619,1.1619,1.1619,1.1619,1.1619,1.1619,1.1619,1.1619,1.0161,0.8992,0.8703,0.5805,0.3488,0.3488,0.3339,0.2613,0.0873,0.2175,0.3329,0.3473,0.4918,0.5183,0.3701,0.3132,0.2279,0.0713,0.0583,-0.0295,-0.2065,-0.2387,-0.3304,-0.5262,-0.5777,-0.6005,-0.6088,-0.4268,-0.3381,-0.3295,-0.1322,0.1003,2.3862,2.3675,2.3266,2.4447,2.3867,2.3213,2.3985,2.2758,2.1415,2.1122,2.0475,1.9594,1.7911,1.6768,1.6039,1.5782,1.5216,1.5394,1.7216,1.9472,2.1659,2.3337,2.3825,2.4283,2.4913,2.4332,2.244,1.9099,1.7336,1.5,1.1743,1.1619,1.1619,1.1619,1.1619,1.1619,1.1619,1.1762,1.1276,1.0168,1.0347,0.9856,0.8842,0.8886,0.9532,1.0779,1.203,1.2501,1.2501,1.2501,1.2501,1.2501,1.2501,1.2501,1.2501,1.2501,1.2467,1.2413,1.2413,1.2372,1.2291,1.2149,1.204,1.1938,1.1789,1.1687,1.1619,1.1619,1.1681,1.1721,1.164,1.1681,1.1721,1.164,1.1619,1.164,1.1728,1.1681,1.1352,1.0256,0.9334,0.7977,0.566,0.3923,0.2472,0.1311,0.1166,0.0874,0.0146,0.0729,0.1166,0.1166,0.2909,0.3337,0.1445,0.1157,0.0871,0.0,0.0,-0.0449,-0.1213,-0.2438,-0.3523,-0.4468,-0.6855,-0.8172,-0.8373,-0.7401,-0.6364,-0.5111,-0.2992,-0.0845,2.4613,2.4371,2.3861,2.4203,2.4164,2.3927,2.3323,2.2198,2.132,2.1435,2.0699,1.9649,1.8387,1.7897,1.7374,1.6594,1.6518,1.7205,1.9024,2.0572,2.2443,2.4522,2.6457,2.6953,2.5432,2.531,2.3429,1.9099,1.6799,1.4449,1.1743,1.1619,1.1619,1.1619,1.1619,1.1345,1.08,1.0932,1.0019,0.8031,0.8278,0.7594,0.6254,0.6254,0.7189,0.8594,1.0779,1.1714,1.1721,1.2185,1.2501,1.2501,1.2501,1.2501,1.2501,1.2501,1.2501,1.2501,1.2501,1.2501,1.2481,1.2338,1.2216,1.2094,1.1938,1.1823,1.1735,1.1687,1.1782,1.1864,1.1714,1.1755,1.1816,1.1755,1.1708,1.1721,1.1864,1.1371,1.0444,0.9203,0.7966,0.6158,0.338,0.2499,0.1469,-0.044,-0.0294,0.0,0.0,0.0,0.0,0.0,0.1311,0.1602,0.0146,0.0,0.0,0.0,0.0,-0.0303,-0.077,-0.2316,-0.3725,-0.4847,-0.7906,-0.956,-0.9591,-0.9131,-0.7749,-0.563,-0.3512,-0.1531,2.1811,2.2244,2.3005,2.1866,2.235,2.2779,2.1692,2.2186,2.2428,2.0999,1.9387,1.8125,1.8125,1.674,1.6107,1.7759,1.8221,1.9024,2.0716,2.2196,2.32,2.3638,2.4827,2.506,2.3595,2.3488,2.2118,1.9099,1.5721,1.3221,1.1743,1.1619,1.1619,1.1619,1.1619,1.0661,0.8867,0.8979,0.8031,0.6138,0.6217,0.641,0.6254,0.6254,0.6257,0.6566,0.8594,0.9532,0.9687,1.1714,1.2501,1.2501,1.2501,1.2501,1.2501,1.2501,1.2501,1.2501,1.2501,1.2501,1.2481,1.2338,1.2284,1.2257,1.2101,1.2054,1.202,1.1864,1.1938,1.202,1.1864,1.183,1.187,1.2013,1.1932,1.1864,1.202,1.0392,0.9035,0.8885,0.5725,0.3018,0.2867,0.136,-0.0602,-0.2525,-0.12,0.0,0.0,0.0,0.0,0.0,0.0,0.0,0.0,0.0,0.0,0.0,0.0,-0.0924,-0.2925,-0.3111,-0.5,-0.9061,-0.9489,-0.9601,-0.9547,-0.753,-0.5468,-0.3357,-0.1177,0.0,2.2519,2.1514,2.0117,2.0538,1.9671,1.8889,1.9918,1.9814,1.9537,2.0,1.9455,1.889,1.8698,1.8339,1.7913,1.7596,1.7847,1.7644,1.607,1.734,1.8265,1.7929,1.9661,2.0473,1.9735,2.0926,2.0436,1.7139,1.4971,1.3165,1.1598,1.1565,1.1619,1.1619,1.0305,0.934,0.8725,0.7485,0.5916,0.3997,0.2648,0.2195,0.2195,0.3601,0.4224,0.4381,0.7812,0.9376,0.9532,1.1714,1.2501,1.2501,1.2501,1.2501,1.2501,1.2501,1.2501,1.2501,1.2501,1.2501,1.2494,1.2447,1.2366,1.2284,1.223,1.2142,1.2054,1.1999,1.2094,1.2176,1.2026,1.206,1.2121,1.2074,1.202,1.1722,1.0492,0.9548,0.8159,0.5489,0.3946,0.2114,-0.0604,-0.1662,-0.2716,-0.4798,-0.3267,-0.1479,-0.0149,0.0,0.0,0.0,0.0,0.0,0.0,0.0,0.0,0.0,0.0,-0.031,-0.1092,-0.2345,-0.377,-0.5221,-0.672,-0.7605,-0.7534,-0.5471,-0.4011,-0.3357,-0.1009,0.0,2.0755,1.9682,1.8011,1.8031,1.6966,1.625,1.7601,1.7684,1.7768,1.8601,1.8971,1.8971,1.8664,1.8771,1.8224,1.638,1.6542,1.5513,1.1804,1.275,1.3465,1.2521,1.427,1.5376,1.5219,1.6488,1.6679,1.5233,1.3747,1.2459,1.1382,1.1538,1.1325,1.0593,0.9329,0.8085,0.67,0.5431,0.3822,0.186,0.0626,0.0314,0.1098,0.2506,0.3443,0.4381,0.7968,0.9376,0.9532,1.1714,1.2501,1.2501,1.2501,1.2501,1.2501,1.2501,1.2501,1.2501,1.2501,1.2501,1.2501,1.2501,1.1972,1.1281,1.1281,1.1219,1.1138,1.1089,1.1631,1.2332,1.2182,1.2216,1.2277,1.223,1.1566,1.0806,0.955,0.7982,0.6125,0.3554,0.1846,0.0,-0.2601,-0.4266,-0.5474,-0.626,-0.5683,-0.4147,-0.1509,-0.1052,-0.075,-0.0151,0.0,0.0,0.0,0.0,0.0,0.0,0.0774,0.1089,0.1098,0.0628,0.0,-0.0794,-0.2256,-0.2932,-0.2955,-0.1663,-0.0502,0.0335,0.0844,0.1195,1.6927,1.6673,1.6563,1.4604,1.4361,1.4801,1.4781,1.6101,1.7101,1.6915,1.7717,1.825,1.7929,1.7809,1.6967,1.4306,1.4023,1.2627,0.807,0.8716,0.9215,0.7717,0.898,1.0187,1.0498,1.0518,1.1394,1.3202,1.2027,1.1226,1.1241,1.1389,1.0593,0.8559,0.8518,0.6697,0.287,0.2756,0.1861,0.0,0.0,0.1098,0.313,0.313,0.4224,0.641,0.8439,0.9376,0.9532,1.1714,1.2501,1.2501,1.2501,1.2501,1.2501,1.2501,1.2501,1.2501,1.2501,1.2501,1.2501,1.2501,1.1095,0.9376,0.9376,0.9376,0.9196,0.9086,1.0526,1.2159,1.2026,1.1993,1.2026,1.2159,1.0526,0.9086,0.9041,0.5939,0.313,0.2974,-0.0469,-0.3286,-0.3443,-0.6656,-0.8789,-0.6866,-0.8121,-0.7845,-0.3631,-0.3026,-0.227,-0.0152,0.0,0.0,0.0,0.0,0.0,0.0,0.2024,0.313,0.313,0.5218,0.556,0.3486,0.3561,0.3766,0.3933,0.3811,0.4672,0.6867,0.4411,0.3433,1.5887,1.4494,1.3105,1.2785,1.1954,1.1571,1.249,1.3839,1.4866,1.5125,1.5871,1.6286,1.5551,1.524,1.416,1.1321,0.9745,0.7406,0.2638,0.3441,0.3968,0.2257,0.6023,0.8778,0.8817,1.0141,1.118,1.1783,1.1413,1.0664,0.9377,0.9363,0.8559,0.6532,0.5146,0.3875,0.287,0.139,0.047,0.0,0.0,0.1098,0.313,0.313,0.4224,0.641,0.8439,0.9376,0.9532,1.1714,1.2501,1.2501,1.2501,1.2501,1.2501,1.2501,1.2501,1.2501,1.2501,1.2501,1.2501,1.2501,1.1095,0.9376,0.9376,0.8283,0.703,0.7007,0.7484,0.7808,0.7787,0.7782,0.7787,0.7808,0.7484,0.6541,0.5,0.3912,0.2662,0.1098,-0.2661,-0.5942,-0.7501,-0.997,-1.1522,-1.0928,-1.1343,-0.9592,-0.3876,-0.3081,-0.2307,-0.0155,0.0,0.0,0.0,0.0,0.0,0.0,0.1877,0.313,0.313,0.5218,0.6224,0.5632,0.7313,0.8199,0.8271,0.8293,0.8479,0.899,0.5248,0.3433,1.4087,1.2938,1.1852,1.1238,1.0436,0.9995,1.0532,1.1552,1.2459,1.2299,1.3485,1.4244,1.2979,1.3259,1.236,0.8461,0.718,0.484,-0.0395,0.1066,0.2005,0.0267,0.4996,0.8319,0.834,1.0085,1.1303,1.1253,1.126,1.0448,0.8671,0.8642,0.7399,0.4649,0.3403,0.2564,0.169,0.0468,0.0,0.0,0.0,0.1568,0.4537,0.4537,0.6095,0.9061,0.0,1.0779,1.0779,1.203,1.2501,1.2501,1.2501,1.2501,1.2501,1.2501,1.2501,1.2347,1.1405,1.1095,1.1095,1.1095,0.9687,0.7812,0.6874,0.5783,0.4849,0.4849,0.563,0.6254,0.6254,0.6254,0.6254,0.6254,0.563,0.4537,0.3286,0.2349,0.1097,-0.0941,-0.407,-0.7037,-0.9061,-1.1095,-1.2501,-1.2501,-1.2501,-1.0618,-0.5159,-0.4512,-0.342,-0.0314,0.0,0.0,0.0,0.0,0.0314,0.1254,0.346,0.5041,0.5987,0.9099,1.0816,1.0884,1.3085,1.3846,1.2795,1.2795,1.2307,1.134,0.6972,0.4824,1.1913,1.1741,1.1495,1.0158,0.9686,0.9456,0.8988,0.9777,1.0271,0.9332,1.0942,1.2082,1.0665,1.1576,1.1067,0.6334,0.5738,0.4001,-0.13,0.0928,0.2403,0.0934,0.5658,0.912,0.9024,1.0646,1.1774,1.1825,1.1557,1.0561,0.8697,0.8361,0.668,0.3061,0.3133,0.2444,0.047,0.0471,0.0314,0.0,0.0,0.2194,0.6254,0.6254,0.8594,1.2501,1.2501,1.2501,1.2501,1.2185,1.203,1.203,1.1721,1.1721,1.1721,1.203,1.1876,1.1405,0.9998,0.9216,0.9061,0.9061,0.7501,0.5474,0.3599,0.2975,0.2662,0.2662,0.4068,0.5477,0.5477,0.5477,0.5477,0.5477,0.4068,0.2662,0.2662,0.1254,-0.0628,-0.2662,-0.4849,-0.7037,-0.9061,-1.1095,-1.2501,-1.2501,-1.2501,-1.094,-0.6878,-0.6254,-0.4696,-0.0471,0.0314,0.0471,0.0471,0.0628,0.1569,0.345,0.5685,0.7786,0.9565,1.3931,1.636,1.6385,1.8665,1.8933,1.6975,1.6475,1.5185,1.3258,0.8569,0.624,1.0419,1.0158,1.0151,0.9673,0.953,0.9273,0.8696,0.9338,0.0,0.8581,0.9426,1.0089,0.9489,0.9333,0.8665,0.7101,0.5364,0.3546,0.1807,0.3388,0.4571,0.4355,0.9454,1.2911,1.2926,1.3539,1.3915,1.3823,1.2423,1.0706,0.8817,0.7102,0.5253,0.2955,0.4641,0.4406,0.247,0.2493,0.1725,0.0,0.0,0.2194,0.6254,0.6254,0.8594,1.2501,1.2501,0.0,1.2347,1.0624,0.9998,0.9842,0.7972,0.7349,0.7661,0.9371,0.8905,0.7505,0.8905,0.8283,0.6878,0.6878,0.5318,0.3599,0.3286,0.188,0.0471,0.0471,0.0785,0.1098,0.1098,0.1098,0.1098,0.1098,0.0785,0.0471,0.0471,0.0314,-0.0628,-0.2662,-0.4849,-0.7037,-0.9061,-1.1095,-1.2501,-1.2501,-1.2501,-1.094,-0.6878,-0.6254,-0.4696,-0.0471,0.1568,0.2506,0.2506,0.4224,0.5341,0.5865,0.7711,0.9169,0.9672,1.3873,1.6224,1.6385,1.8665,1.9745,1.9258,1.5615,1.37,1.3164,0.6867,0.4005,0.9765,0.9768,0.9788,0.9646,0.9435,0.9042,0.8214,0.0,0.0,0.7057,0.7612,0.8136,0.7303,0.7752,0.7975,0.6783,0.6098,0.5686,0.5758,0.7351,0.8973,1.0561,1.4289,1.6365,1.5259,1.5561,1.5,1.3024,1.2043,1.0743,0.8848,0.6821,0.5405,0.4443,0.536,0.5409,0.4413,0.4468,0.4185,0.3103,0.3279,0.4849,0.7972,0.7972,0.9061,1.0934,1.0934,1.0314,0.9216,0.8128,0.7816,0.7661,0.6722,0.6254,0.6414,0.7345,0.7193,0.6254,0.6095,0.5471,0.4381,0.3445,0.3132,0.2975,0.188,0.0784,0.0,0.0,0.0,0.0,0.0,0.0,0.0,0.0,0.0,0.0,0.0,0.0,-0.0314,-0.1254,-0.3132,-0.5006,-0.5939,-0.7812,-0.9216,-0.9216,-0.9216,-0.7808,-0.3589,-0.2966,-0.1874,0.1254,0.3445,0.486,0.4889,0.5836,0.6975,0.8176,0.9148,1.0329,1.1583,1.4723,1.6427,1.652,1.8722,1.8751,1.6425,1.4288,1.205,0.984,0.5335,0.3312,0.951,0.9666,0.9741,0.9598,0.9334,0.8832,0.7787,0.7177,0.0,0.5718,0.612,0.6463,0.5771,0.6787,0.7554,0.7119,0.7456,0.837,1.0089,1.1946,1.4038,1.6423,1.89,1.9435,1.7026,1.7042,1.5793,1.2466,1.1756,1.0743,0.8848,0.7688,0.6853,0.6481,0.6798,0.6837,0.6451,0.6535,0.643,0.5989,0.6203,0.7174,0.875,0.875,0.875,0.875,0.875,0.7812,0.6254,0.5312,0.5159,0.5474,0.4688,0.4534,0.5006,0.5474,0.5318,0.4852,0.3599,0.2819,0.2194,0.0471,0.1098,0.2194,0.0471,0.0,0.0,0.0,0.0,0.0,0.0,0.0,0.0,0.0,0.0,0.0,0.0,0.0314,0.0628,0.0628,-0.0626,-0.1718,-0.1718,-0.3589,-0.4989,-0.4989,-0.4515,-0.3111,0.0312,0.14,0.2646,0.422,0.5942,0.7068,0.7148,0.7631,0.8636,1.0384,1.0622,1.151,1.322,1.4906,1.5934,1.5811,1.7095,1.609,1.2624,1.1641,0.9402,0.5986,0.3626,0.262,0.9327,0.951,0.9591,0.9442,0.9178,0.8682,0.7631,0.0,0.6302,0.5542,0.5336,0.5524,0.6433,0.6263,0.6829,0.9441,0.0,1.0663,1.4492,1.711,1.8933,1.9827,2.2006,2.2392,1.924,1.7612,1.6044,1.4273,1.2602,1.0743,0.8848,1.0161,1.0311,0.843,1.0286,1.0357,0.8445,0.8552,0.7742,0.5989,0.5995,0.6186,0.6566,0.6566,0.6566,0.6566,0.6566,0.641,0.0,0.2184,0.1718,0.2974,-0.0782,-0.1096,0.0785,0.2662,0.2194,0.0785,0.2506,0.188,0.0314,0.0,0.0157,0.0314,0.0,0.0,0.0,0.0,0.0,0.0,0.0,0.0,0.0,0.0,0.0,0.0,0.0,0.1411,0.2819,0.2819,0.2652,0.2488,0.2488,0.0775,-0.0619,-0.0619,0.0923,0.2307,0.2796,0.6179,0.8501,0.874,0.9061,0.9105,0.9376,1.0978,1.2364,1.2807,1.2714,1.2936,1.337,1.337,1.3492,1.3624,1.1788,1.0623,1.0133,0.618,0.4068,0.3633,0.1389,0.0351,0.9987,0.9853,0.9415,0.9171,0.8886,0.8391,0.7346,0.6641,0.6044,0.5481,0.5608,0.5934,0.6603,0.7009,0.8022,1.0293,1.0571,1.1729,1.5307,1.6756,1.8454,2.0872,2.0551,1.984,1.9002,1.6742,1.45,1.2873,1.2043,1.1325,1.0449,1.1181,1.1181,1.0449,1.1234,1.1266,1.0384,0.9476,0.8513,0.7805,0.6657,0.6243,0.6274,0.6274,0.5663,0.4443,0.4443,0.292,0.0,-0.1074,-0.2005,-0.2654,-0.4188,-0.3578,-0.1724,-0.0939,-0.0313,0.0157,0.0941,0.0628,0.0,0.0,0.0,0.0,0.0,0.0,0.0,0.0,0.0,0.0,0.0,0.0,0.0,0.0,0.0,0.0,0.0,0.1568,0.313,0.313,0.4218,0.5453,0.6674,0.6196,0.6028,0.7237,0.8144,0.9066,1.0338,1.0815,1.1619,1.2909,1.2011,1.1305,1.1445,1.2331,1.2956,1.3159,1.3207,1.2611,1.138,1.1317,1.0634,0.9345,0.8514,0.7346,0.6013,0.4218,0.2736,0.1389,0.035,0.0,1.0387,1.0264,0.9582,0.903,0.8608,0.8099,0.7143,0.643,0.5906,0.5711,0.5958,0.638,0.6894,0.7644,0.8754,0.0,1.1123,1.2444,1.5865,1.6457,1.7631,2.0463,1.892,1.7449,1.7173,1.4864,1.2841,1.1749,1.1619,1.1619,1.1619,1.1619,1.1619,1.1619,1.1619,1.1325,1.0743,0.9518,0.8543,0.7984,0.6864,0.5859,0.5428,0.5428,0.4226,0.2116,0.2116,0.0152,0.0,-0.3637,-0.4725,-0.6183,-0.5975,-0.476,-0.2943,-0.2325,-0.1244,0.0,0.0,0.0,0.0,0.0,0.0,0.0,0.0,0.0,0.0,0.0,0.0,0.0,0.0,0.0,0.0,0.0,0.0,0.0,0.0,0.2194,0.4068,0.4068,0.6254,0.8736,1.0868,1.117,1.1773,1.3885,1.4182,1.4501,1.5303,1.4252,1.367,1.4467,1.279,1.1616,1.1761,1.1905,1.1714,1.1347,1.1317,1.0715,0.9207,0.854,0.7368,0.57,0.503,0.4027,0.2352,0.2379,0.1547,0.0,0.0,0.0,1.0129,1.0352,1.042,0.9033,0.8377,0.7848,0.7102,0.6342,0.5881,0.631,0.6292,0.6518,0.7521,0.7869,0.8589,1.0301,1.1079,1.2933,1.6996,1.7399,1.7516,1.8414,1.7919,1.6339,1.3497,1.2112,1.1457,1.1606,1.1619,1.1619,1.1619,1.1619,1.1619,1.1619,1.1619,1.0743,0.8703,0.8703,0.7738,0.6061,0.6065,0.5066,0.3172,0.3172,0.1965,0.0,0.0,-0.1059,0.0,-0.5127,-0.5879,-0.5879,-0.5879,-0.4678,-0.2721,-0.0758,0.0,0.0,0.0,0.0,0.0,0.0,0.0,0.0,0.0,0.0,0.0,0.0,0.0,0.0,0.0,0.0,0.0,0.0,0.0,0.0,0.0,0.3288,0.6254,0.6254,0.9532,1.3112,1.5081,1.5387,1.6142,1.827,1.8572,1.7815,1.5693,1.554,1.4782,1.2811,1.0624,0.9422,0.9692,0.9652,0.8788,0.6913,0.6825,0.67,0.6703,0.4695,0.3357,0.3357,0.1178,0.0,0.0,0.0,0.0,0.0,0.0,0.0,1.0489,1.0372,0.9679,0.8317,0.7846,0.7491,0.6359,0.582,0.5723,0.6481,0.6874,0.7411,0.8617,0.9336,1.0371,1.208,1.1661,0.0,1.4383,1.4272,1.4173,1.5043,1.4862,1.3985,1.1836,1.1337,1.1301,1.145,1.1463,1.0928,0.9718,0.9574,0.9574,0.9574,0.9574,0.8703,0.6677,0.537,0.4511,0.38,0.2488,0.1615,0.1033,0.1033,0.059,0.0,0.0,-0.1186,-0.3129,-0.369,-0.4752,-0.6173,-0.5972,-0.479,-0.3021,-0.2418,-0.1213,0.0,0.0,0.0,0.0,0.0,0.0,0.0,0.0,0.0,0.0,0.0,0.0,0.0,0.0,0.0,0.0,0.0,0.0,0.0,0.0,0.2194,0.4537,0.5942,0.8439,1.1541,1.4927,1.554,1.6142,1.827,1.8572,1.8421,1.7663,1.5192,1.3202,1.244,0.9356,0.7855,0.9376,0.8198,0.7158,0.6584,0.6659,0.6035,0.4528,0.3692,0.2687,0.1009,0.0337,0.0,0.0,0.0,0.0,0.0,0.0,0.0,1.0405,1.0317,0.9601,0.826,0.7606,0.7175,0.6643,0.6045,0.595,0.7075,0.7542,0.8032,0.8959,0.9819,1.0797,1.1848,1.1397,1.1419,1.2858,1.2193,1.1711,1.2074,1.2274,1.1916,1.0987,1.0995,1.1145,1.1294,1.1307,1.0799,0.9787,0.9072,0.8371,0.7688,0.7544,0.6677,0.4794,0.3488,0.2472,0.1746,0.0583,0.0,0.0,0.0,0.0,0.0,0.0,-0.1171,0.0,-0.2917,-0.4106,-0.6089,-0.5158,-0.4135,-0.2978,-0.2235,-0.1047,0.0,0.0,0.0,0.0,0.0,0.0,0.0,0.0,0.0,0.0,0.0,0.0,0.0,0.0,0.0,0.0,0.0,0.0,0.0,0.0,0.1568,0.3443,0.4849,0.6722,0.9206,1.258,1.3195,1.3793,1.5911,1.5607,1.5159,1.5159,1.2099,1.0125,1.0175,0.7041,0.5676,0.6919,0.5981,0.4885,0.4121,0.4167,0.3524,0.2184,0.2016,0.1345,0.0,0.0,0.0,0.0,0.0,0.0,0.0,0.0,0.0,0.0,1.0214,1.0114,0.8663,0.7645,0.7068,0.7567,0.684,0.0,0.8058,0.8281,0.8338,0.8894,0.9604,1.016,1.0287,1.0582,1.1075,1.2081,1.1039,1.0085,0.9895,1.0134,1.0419,1.0697,1.0846,1.0989,1.1138,1.1145,1.1212,1.1221,0.9519,0.7571,0.5647,0.565,0.464,0.2763,0.2763,0.1748,0.0,0.0,0.0,0.0,0.0,0.0,0.0,0.0,-0.102,-0.2763,-0.2763,-0.3778,-0.5229,-0.3342,-0.2763,-0.2472,-0.0729,0.0,0.0,0.0,0.0,0.0,0.0,0.0,0.0,0.0,0.0,0.0,0.0,0.0,0.0,0.0,0.0,0.0,0.0,0.0,0.0,0.0,0.1568,0.2975,0.313,0.4693,0.6715,0.8697,0.9156,0.9762,1.1574,1.0213,0.9156,0.9156,0.7325,0.6125,0.6036,0.4099,0.2862,0.296,0.2938,0.2122,0.0166,0.0,0.0,0.0,0.0,0.0,0.0,0.0,0.0,0.0,0.0,0.0,0.0,0.0,0.0,1.0754,0.0,1.0215,0.8362,0.7774,0.7568,0.0,0.6866,0.7029,0.8142,0.8281,0.8737,1.0483,1.0626,1.0834,1.2014,1.1069,1.0319,1.0854,1.0193,0.987,1.0419,1.0575,1.0643,1.0711,1.0751,1.0839,1.0989,1.0995,1.0372,0.9104,0.8552,0.6881,0.3529,0.3388,0.2567,0.0729,0.0729,0.0437,0.0,0.0,0.0,0.0,0.0,0.0,0.0,0.0,-0.0292,-0.0729,-0.0729,-0.1021,-0.1311,-0.0875,-0.0729,-0.0583,-0.0146,0.0,0.0,0.0,0.0,0.0,0.0,0.0,0.0,0.0,0.0,0.0,0.0,0.0,0.0,0.0,0.0,0.0,0.0,0.0,0.0,0.0,0.0314,0.1254,0.2819,0.3443,0.4534,0.6711,0.7022,0.7178,0.7636,0.7329,0.7022,0.7022,0.5156,0.3916,0.3927,0.19,0.0801,0.0652,0.0651,0.0492,0.0,0.0,0.0,0.0,0.0,0.0,0.0,0.0,0.0,0.0,0.0,0.0,0.0,0.0,0.0,1.0965,1.1204,1.1272,0.9672,0.9245,0.9061,0.8504,0.7779,0.7522,0.8385,0.8633,0.9093,1.0558,1.0902,1.1209,1.1758,1.1013,1.0332,1.0015,0.9881,1.0039,1.0649,1.0717,1.0717,1.0717,1.0717,1.0758,1.0839,1.0846,1.0361,0.9537,0.8708,0.6932,0.405,0.3217,0.1839,0.0,0.0,0.0,0.0,0.0,0.0,0.0,0.0,0.0,0.0,0.0,0.0,0.0,0.0,0.0,0.0,0.0,0.0,0.0,0.0,0.0,0.0,0.0,0.0,0.0,0.0,0.0,0.0,0.0,0.0,0.0,0.0,0.0,0.0,0.0,0.0,0.0,0.0,0.0,0.0,0.0,0.0,0.0314,0.1411,0.1725,0.2037,0.3132,0.3445,0.3445,0.3445,0.3445,0.3445,0.3445,0.235,0.1728,0.1738,0.0634,0.0,0.0,0.0,0.0,0.0,0.0,0.0,0.0,0.0,0.0,0.0,0.0,0.0,0.0,0.0,0.0,0.0,0.0,0.0,1.1473,1.2367,1.3058,1.1534,1.1152,1.0929,1.0347,0.0,0.0,0.0,0.9205,0.9562,1.0434,1.1156,1.148,1.1101,1.0721,1.0331,0.9697,0.9876,1.0215,1.067,1.0717,1.0717,1.0717,1.0717,1.0717,1.0717,1.0717,1.0778,1.0907,0.9267,0.7669,0.5961,0.4167,0.224,0.0426,0.0142,0.0,0.0,0.0,0.0,0.0,0.0,0.0,0.0,0.0,0.0,0.0,0.0,0.0,0.0,0.0,0.0,0.0,0.0,0.0,0.0,0.0,0.0,0.0,0.0,0.0,0.0,0.0,0.0,0.0,-0.0297,-0.03,0.0,0.0,0.0,0.0,0.0,0.0,0.0,0.0,0.0,0.0,0.0,0.0,0.0,0.0,0.0,0.0,0.0,0.0,0.0,0.0,0.0,0.0,0.0,0.0,0.0,0.0,0.0,0.0,0.0,0.0,0.0,0.0,0.0,0.0,0.0,0.0,0.0,0.0,0.0,0.0,0.0,0.0,0.0,1.3815,1.5137,1.5369,1.2197,1.2216,1.2625,1.1103,1.0578,0.0,0.0,0.0,1.0541,1.2398,1.2639,1.2431,1.2068,1.045,0.9307,0.9686,0.9937,1.0215,1.067,1.0717,1.0717,1.0717,1.0717,1.0717,1.0717,1.0717,1.0731,1.0751,1.0485,0.9413,0.7679,0.5934,0.4077,0.2346,0.0699,0.0,0.0,0.0,0.0,0.0,0.0,0.0,0.0,0.0,0.0,0.0,0.0,0.0,0.0,0.0,0.0,0.0,0.0,0.0,0.0,0.0,0.0,0.0,0.0,0.0,0.0,0.0,0.0,-0.0293,-0.2043,-0.1338,0.0,0.0,0.0,0.0,0.0,0.0,0.0,0.0,0.0,0.0,0.0,0.0,0.0,0.0,0.0,0.0,0.0,0.0,0.0,0.0,0.0,0.0,0.0,0.0,0.0,0.0,0.0,0.0,0.0,0.0,0.0,0.0,0.0,0.0,0.0,0.0,0.0,0.0,0.0,0.0,0.0,0.0,0.0,1.3184,1.4687,1.5602,1.4016,1.4671,1.5167,1.3406,1.2629,1.2084,0.0,0.0,0.0,1.2999,1.3614,1.3711,1.2761,1.0761,0.9449,0.9883,1.0141,1.0399,1.0683,1.0717,1.0717,1.0717,1.0717,1.0717,1.0717,1.0717,1.0717,1.0717,1.0717,0.9908,0.803,0.7231,0.5912,0.4197,0.3273,0.1931,0.0,0.0,0.0,0.0,0.0,0.0,0.0,0.0,0.0,0.0,0.0,0.0,0.0,0.0,0.0,0.0,0.0,0.0,0.0,0.0,0.0,0.0,0.0,0.0,-0.0146,-0.1311,-0.1602,-0.2037,-0.3923,-0.3081,-0.1633,-0.1495,-0.1504,-0.1361,-0.0305,0.0,0.0,0.0,0.0,0.0,0.0,0.0,0.0,0.0,0.0,0.0,0.0,0.0,0.0,0.0,0.0,0.0,0.0,0.0,0.0,0.0,0.0,0.0,0.0,0.0,0.0,0.0,0.0,0.0,0.0,0.0,0.0,0.0,0.0,0.0,0.0,0.0,0.0,1.2695,1.3945,1.5234,1.5742,1.6644,1.699,1.532,1.4402,1.36,0.0,0.0,0.0,1.3641,1.4418,1.4582,1.327,1.138,1.0081,1.0059,1.0297,1.0514,1.0697,1.0717,1.0717,1.0717,1.0717,1.0717,1.0717,1.0717,1.0717,1.0717,1.0717,1.0047,0.8701,0.8163,0.7365,0.603,0.5629,0.4067,0.1249,0.1253,0.0977,0.0698,0.0566,0.0427,0.0,0.0,0.0,0.0,0.0,0.0,0.0,0.0,0.0,0.0,0.0,0.0,0.0,-0.0583,-0.0729,-0.0729,-0.1166,-0.1311,-0.1602,-0.3199,-0.3633,-0.3923,-0.5953,-0.537,-0.4223,-0.3678,-0.3549,-0.312,-0.1203,-0.0609,-0.0615,-0.0154,0.0,0.0,0.0,0.0,0.0,0.0,0.0,0.0,0.0,0.0,0.0,0.0,0.0,0.0,0.0,0.0,0.0,0.0,0.0,0.0,0.0,0.0,0.0,0.0,0.0,0.0,0.0,0.0,0.0,0.0,0.0,0.0,0.0,0.0,0.0,1.4062,1.4414,1.4707,1.6738,1.6986,1.6581,1.5719,1.513,0.0,1.4049,0.0,0.0,1.5084,1.501,1.4466,1.3487,1.2364,1.1303,1.0447,1.0283,1.0399,1.0683,1.0717,1.0717,1.0717,1.0717,1.0717,1.0717,1.0717,1.0717,1.0717,1.0717,1.0585,1.0452,0.8839,0.7897,0.7764,0.6164,0.5235,0.4977,0.5043,0.4116,0.2474,0.2507,0.1543,0.0,0.0,0.0,0.0,0.0,0.0,0.0,0.0,0.0,0.0,0.0,0.0,-0.0292,-0.2037,-0.2763,-0.3054,-0.4794,-0.5373,-0.5373,-0.5518,-0.5518,-0.5953,-0.7977,-0.8415,-0.7833,-0.6105,-0.5577,-0.5037,-0.3116,-0.2699,-0.2126,-0.0461,0.0,0.0,0.0,0.0,0.0,0.0,0.0,0.0,0.0,0.0,0.0,0.0,0.0,0.0,0.0,0.0,0.0,0.0,0.0,0.0,0.0,0.0,0.0,0.0,0.0,0.0,0.0,0.0,0.0,0.0,0.0,0.0,0.0,0.0,0.0,1.3436,1.4584,1.5689,1.688,1.7031,0.0,0.0,1.6314,1.6044,1.5545,1.5591,0.0,1.6152,1.5392,1.4473,1.3407,1.2472,1.1503,1.0218,1.0297,1.0453,1.0568,0.9588,0.9504,1.0585,0.9643,0.951,1.0585,1.0717,1.0717,1.0717,1.0717,1.0717,1.0717,1.0047,0.9643,0.9643,0.8972,0.8706,0.8706,0.6468,0.4462,0.2707,0.2745,0.166,0.0,0.0,0.0,0.0,0.0,0.0,0.0,0.0,0.0,-0.0142,-0.1292,-0.187,-0.2015,-0.4056,-0.4649,-0.4794,-0.5518,-0.5808,-0.5953,-0.7255,-0.7544,-0.7982,-1.0011,-1.1299,-1.1565,-0.841,-0.757,-0.716,-0.5122,-0.3844,-0.2698,-0.1974,-0.092,0.0,0.0,0.0,0.0,0.0,0.0,0.0,0.0,0.0,0.0,0.0,0.0,0.0,0.0,0.0,0.0,0.0,0.0,0.0,0.0,0.0,0.0,0.0,0.0,0.0,0.0,0.0,0.0,0.0,0.0,0.0,0.0,0.0,0.0,1.3428,1.4655,1.5863,1.6497,0.0,0.0,1.6601,1.6692,1.6718,1.6441,1.6567,1.67,1.67,1.5704,1.4473,1.3407,1.2481,1.1495,1.0143,1.0222,1.0385,1.048,0.899,0.8392,0.9775,0.8701,0.8568,0.9775,1.0319,1.0717,1.0717,1.0717,1.0717,1.0717,1.0717,1.0717,1.0717,1.018,0.9908,0.9775,0.6831,0.4693,0.349,0.2984,0.1772,0.0,0.0,0.0,0.0,0.0,0.0,0.0,0.0,-0.028,-0.0982,-0.2403,-0.3258,-0.3971,-0.6033,-0.6634,-0.6785,-0.7395,-0.7693,-0.7837,-0.9141,-0.9574,-0.9867,-1.1181,-1.2888,-1.3855,-1.1136,-1.0986,-1.0836,-0.8955,-0.699,-0.5302,-0.4031,-0.2274,-0.0769,-0.0156,0.0,0.0,0.0,0.0,0.0,0.0,0.0,0.0,0.0,0.0,0.0,0.0,0.0,0.0,0.0,0.0,0.0,0.0,0.0,0.0,0.0,0.0,0.0,0.0,0.0,0.0,0.0,0.0,0.0,0.0,0.0,0.0,1.4563,1.4653,1.4852,1.575,0.0,0.0,1.5992,1.6168,1.6273,1.6657,1.6714,1.6714,1.6714,1.5602,1.4473,1.3407,1.2497,1.1359,1.0129,1.0046,1.0161,1.0453,0.8915,0.7913,0.8015,0.8025,0.803,0.803,0.9643,1.0717,1.0717,1.0717,1.0717,1.0717,1.0717,1.0717,1.0717,0.8834,0.803,0.7897,0.6164,0.5362,0.5362,0.3488,0.1747,0.0,0.0,0.0,0.0,0.0,0.0,0.0,0.0,-0.1121,-0.2658,-0.2658,-0.3911,-0.573,-0.7785,-0.853,-0.8834,-1.0986,-1.1619,-1.1619,-1.1619,-1.1619,-1.1619,-1.1619,-1.3031,-1.4432,-1.4432,-1.5839,-1.6806,-1.4762,-1.2932,-1.0413,-0.6593,-0.4176,-0.2275,-0.0308,0.0,0.0,0.0,0.0,0.0,0.0,0.0,0.0,0.0,0.0,0.0,0.0,0.0,0.0,0.0,0.0,0.0,0.0,0.0,0.0,0.0,0.0,0.0,0.0,0.0,0.0,0.0,0.0,0.0,0.0,0.0,0.0,1.4641,1.5228,1.5896,1.6294,0.0,0.0,0.0,1.648,0.0,0.0,1.4839,1.3986,1.3986,1.3762,1.3156,1.2006,1.1808,1.132,0.9978,0.9978,1.008,1.0168,0.873,0.8151,0.9491,0.853,0.8443,0.9633,1.0392,1.0717,1.0717,1.0717,1.0717,1.0717,1.0717,1.0047,0.8834,0.8296,0.7365,0.6164,0.4292,0.3488,0.3488,0.2954,0.1747,0.0,0.0,0.0,0.0,0.0,-0.0814,-0.1904,-0.1904,-0.2989,-0.4623,-0.4664,-0.5093,-0.5787,-0.7822,-0.8609,-0.8965,-1.087,-1.1531,-1.1619,-1.1619,-1.1619,-1.19,-1.3167,-1.4858,-1.6685,-1.8089,-2.0707,-2.1919,-1.7337,-1.3807,-1.0843,-0.8343,-0.5176,-0.2251,-0.0307,0.0,0.0,0.0,0.0,0.0,0.0,0.0,0.0,0.0,0.0,0.0,0.0,0.0,0.0,0.0,0.0,0.0,0.0,0.0,0.0,0.0,0.0,0.0,0.0,0.0,0.0,0.0,0.0,0.0,0.0,0.0,0.0891,1.5381,1.5526,0.0,1.6316,1.5842,1.5385,1.5819,0.0,0.0,0.0,1.3614,1.2856,1.2946,1.2606,1.2045,1.1343,1.1113,1.0666,0.993,0.9897,0.9978,1.0039,0.8477,0.7907,0.9112,0.8285,0.8194,0.9233,1.0149,1.0629,1.0629,1.0683,1.0313,0.9643,0.9643,0.8839,0.6965,0.6293,0.5359,0.4292,0.2551,0.1613,0.1613,0.1613,0.1076,0.0,0.0,0.0,0.0,0.0,-0.0672,-0.1613,-0.1613,-0.2685,-0.4297,-0.4465,-0.4885,-0.5708,-0.6889,-0.7931,-0.8697,-0.9924,-1.0876,-1.1538,-1.1599,-1.1619,-1.2043,-1.3872,-1.5698,-1.7669,-1.9634,-2.2792,-2.468,-2.1246,-1.8133,-1.5176,-1.2551,-0.8319,-0.4302,-0.1664,-0.0459,0.0,0.0,0.0,0.0,0.0,0.0,0.0,0.0,0.0,0.0,0.0,0.0,0.0,0.0,0.0,0.0,0.0,0.0,0.0,0.0,0.0,0.0,0.0,0.0,0.0,0.0,0.0,0.0,0.0,0.0,0.0709,1.6256,1.5487,1.4702,1.5873,1.4923,0.0,1.4033,1.4413,1.4372,1.3332,0.0,1.2491,1.2793,1.1806,1.0988,1.1265,1.0414,0.9788,0.9802,0.9802,0.9856,1.0012,0.8641,0.7681,0.7785,0.7806,0.7811,0.7811,0.9478,1.048,1.0493,1.0622,0.9896,0.803,0.803,0.7098,0.5228,0.3488,0.2551,0.2417,0.0807,0.0,0.0,0.0,0.0,0.0,0.0,0.0,0.0,0.0,-0.0135,-0.0269,-0.0269,-0.1344,-0.2954,-0.2819,-0.3756,-0.5104,-0.5301,-0.6553,-0.8098,-0.8578,-0.993,-1.1396,-1.1552,-1.1599,-1.2022,-1.3863,-1.5698,-1.7388,-1.9495,-2.2642,-2.5233,-2.5517,-2.4246,-2.1829,-1.7834,-1.2656,-0.7624,-0.3699,-0.1361,0.0,0.0,0.0,0.0,0.0,0.0,0.0,0.0,0.0,0.0,0.0,0.0,0.0,0.0,0.0,0.0,0.0,0.0,0.0,0.0,0.0,0.0,0.0,0.0,0.0,0.0,0.0,0.0,0.0,0.0,0.0176,1.4602,1.353,0.0,1.3736,1.3357,1.2433,1.1381,1.1511,1.1727,1.1611,1.0639,0.9764,0.9801,0.972,0.961,0.9646,0.9585,0.9517,0.9639,0.9652,0.9707,0.9849,0.9496,0.9265,0.929,0.9398,0.9462,0.9462,0.9982,1.0371,1.0487,1.0521,0.9795,0.8025,0.803,0.6427,0.3354,0.2954,0.2016,0.0538,0.0135,0.0,0.0,0.0,0.0,0.0,0.0,0.0,0.0,0.0,-0.0807,-0.2148,-0.2148,-0.3222,-0.4693,-0.3222,-0.2954,-0.3222,-0.3367,-0.4612,-0.6429,-0.7844,-0.9722,-1.124,-1.1396,-1.1443,-1.1882,-1.3831,-1.4716,-1.5839,-1.9206,-2.1671,-2.369,-2.5099,-2.5145,-2.3389,-1.8099,-1.3652,-0.9209,-0.3981,-0.1342,0.0,0.0,0.0,0.0,0.0,0.0,0.0,0.0,0.0,0.0,0.0,0.0,0.0,0.0,0.0,0.0,0.0,0.0,0.0,0.0,0.0,0.0,0.0,0.0,0.0,0.0,0.0,0.0,0.0,0.0,0.1038,1.3901,0.0,0.0,1.2353,0.0,1.1061,1.0339,0.9911,0.9684,0.9854,0.937,0.894,0.894,0.9055,0.915,0.915,0.9279,0.9408,0.949,0.9503,0.953,0.9598,0.9673,0.972,0.972,0.9849,0.9937,0.9937,1.0086,1.0202,1.0276,1.0351,0.9638,0.7872,0.7923,0.6233,0.2658,0.2677,0.1747,0.0,0.0941,0.1344,0.121,0.0404,0.0,0.0,0.0,0.0,0.0,0.0,-0.0538,-0.1344,-0.1344,-0.2014,-0.2685,-0.1747,-0.1344,-0.1344,-0.1344,-0.2697,-0.4476,-0.6413,-0.8239,-0.9973,-1.0955,-1.1335,-1.1825,-1.3709,-1.4364,-1.5132,-1.7949,-1.9392,-2.0251,-2.122,-2.3444,-2.4146,-1.9404,-1.4623,-0.9883,-0.5262,-0.1922,0.0,0.0,0.0,0.0,0.0,0.0,0.0,0.0,0.0,0.0,0.0,0.0,0.0,0.0,0.0,0.0,0.0,0.0,0.0,0.0,0.0,0.0,0.0,0.0,0.0,0.0,0.0,0.0,0.0,0.0,0.0687,1.3113,1.2497,1.1462,1.1434,1.0665,0.0,1.0179,0.915,0.8303,0.8425,0.8669,0.8866,0.8893,0.8994,0.9083,0.911,0.9225,0.9313,0.934,0.934,0.9354,0.9374,0.9496,0.9578,0.9605,0.9713,0.9795,0.9822,0.9937,1.0019,1.0046,1.0168,0.9481,0.7699,0.7662,0.6141,0.3009,0.3047,0.2403,0.0938,0.2414,0.2954,0.2685,0.1209,0.0269,0.0,0.0,0.0,0.0,0.0,0.0,0.0,0.0,0.0,0.0,0.0,0.0,0.0,0.0,-0.121,-0.2959,-0.4617,-0.6537,-0.8606,-1.0247,-1.0935,-1.1594,-1.3269,-1.3512,-1.3766,-1.5625,-1.5645,-1.5108,-1.5413,-1.8902,-2.1454,-1.9003,-1.4509,-0.974,-0.6083,-0.25,0.0,0.0,0.0,0.0,0.0,0.0,0.0,0.0,0.0,0.0,0.0,0.0,0.0,0.0,0.0,0.0,0.0,0.0,0.0,0.0,0.0,0.0,0.0,0.0,0.0,0.0,0.0,0.0,0.0,0.0,0.0,1.0645,0.0,1.0976,0.0,1.0359,0.9614,0.0,0.0,0.8275,0.8296,0.8431,0.8581,0.8716,0.8757,0.8811,0.8947,0.8988,0.9042,0.9164,0.9184,0.9232,0.9367,0.9401,0.9462,0.9598,0.9625,0.9686,0.9815,0.9842,0.991,1.0039,1.0066,0.9249,0.7699,0.7586,0.6695,0.4634,0.4643,0.455,0.4475,0.4799,0.4158,0.2685,0.2417,0.1478,0.0,0.0,0.0,0.0,0.0,0.0,0.0,0.0,0.0,0.0,0.0,0.0,0.0,0.0,-0.121,-0.2685,-0.2959,-0.5372,-0.8076,-0.8601,-0.9751,-1.1029,-1.1427,-1.0499,-0.9683,-1.1587,-0.9719,-0.7585,-0.9192,-0.8884,-0.9003,-1.1895,-1.0498,-0.7695,-0.4056,-0.1472,0.0,0.0,0.0,0.0,0.0,0.0,0.0,0.0,0.0,0.0,0.0,0.0,0.0,0.0,0.0,0.0,0.0,0.0,0.0,0.0,0.0,0.0,0.0,0.0,0.0,0.0,0.0,0.0,0.0,0.0,0.0,1.0846,1.1418,1.169,0.0,1.1212,0.9956,0.979,0.8916,0.814,0.814,0.8187,0.8303,0.854,0.8581,0.8635,0.8784,0.8811,0.8866,0.9015,0.9035,0.9055,0.9123,0.9205,0.9279,0.9347,0.9429,0.951,0.9571,0.9652,0.9734,0.9802,0.9876,0.9575,0.8889,0.8961,0.8111,0.6336,0.6387,0.6438,0.6481,0.5657,0.4769,0.3978,0.3076,0.1747,0.0,0.0,0.0,0.0,0.0,0.0,0.0,0.0,0.0,0.0,0.0,0.0,0.0,0.0,-0.0538,-0.1344,-0.2417,-0.3756,-0.5366,-0.755,-0.8698,-0.9449,-0.9502,-0.9015,-0.8233,-0.6987,-0.4608,-0.2796,-0.3661,-0.2403,-0.1704,-0.4424,-0.5994,-0.6147,-0.348,-0.1317,0.0,0.0,0.0,0.0,0.0,0.0,0.0,0.0,0.0,0.0,0.0,0.0,0.0,0.0,0.0,0.0,0.0,0.0,0.0,0.0,0.0,0.0,0.0,0.0,0.0,0.0,0.0,0.0673,0.1849,0.1849,0.1849,0.0,0.0,1.2176,1.3198,1.1997,1.0362,0.0,0.0,0.7991,0.8031,0.8038,0.8106,0.833,0.8404,0.8479,0.8628,0.8655,0.8696,0.8804,0.8859,0.8879,0.8879,0.9008,0.9117,0.915,0.9259,0.934,0.9374,0.949,0.9551,0.9551,0.9686,0.9768,0.9768,0.991,0.9366,0.7986,0.8106,0.8171,0.8171,0.6997,0.6011,0.5119,0.385,0.2142,0.0,0.0,0.0,0.0,0.0,0.0,0.0,0.0,0.0,0.0,0.0,0.0,0.0,0.0,0.0,-0.0269,-0.1613,-0.2283,-0.322,-0.5893,-0.7013,-0.7617,-0.7617,-0.7265,-0.6356,-0.3178,-0.0553,0.1388,0.182,0.3104,0.3274,0.0,-0.3313,-0.5183,-0.3339,-0.1748,-0.0583,-0.0146,0.0,0.0,0.0,0.0,0.0,0.0,0.0,0.0,0.0,0.0,0.0,0.0,0.0,0.0,0.0,0.0,0.0,0.0,0.0,0.0,0.0,0.0,0.0,0.0,0.0,0.1174,0.3358,0.2687,0.2687,0.0,1.0601,0.0,1.2924,1.1927,1.0616,0.0,0.0,0.7862,0.8011,0.8038,0.8045,0.8058,0.818,0.833,0.8472,0.8492,0.8499,0.8506,0.8628,0.8723,0.8723,0.8859,0.9001,0.9144,0.9157,0.9225,0.9367,0.9388,0.9395,0.9395,0.9537,0.9618,0.9618,0.9761,0.9707,0.9707,0.9861,0.9935,0.9935,0.9962,0.8285,0.5119,0.4991,0.3179,0.0,0.0,0.0,0.0,0.0,0.0,0.0,0.0,0.0,0.0,0.0,0.0,0.0,0.0,0.0,0.0,-0.0135,-0.1344,-0.2685,-0.2954,-0.416,-0.5503,-0.5503,-0.43,-0.2562,-0.0681,0.2596,0.5765,0.7511,0.8099,0.6185,-0.1155,-0.4356,-0.5225,-0.3342,-0.2763,-0.2183,-0.0292,0.0,0.0,0.0,0.0,0.0,0.0,0.0,0.0,0.0,0.0,0.0,0.0,0.0,0.0,0.0,0.0,0.0,0.0,0.0,0.0,0.0,0.0,0.0,0.0,0.0,0.1165,0.3358,0.1178,0.1346,0.0,0.0,0.0,1.2774,1.1733,1.047,1.006,0.8705,0.757,0.7726,0.7828,0.7923,0.8024,0.8085,0.8174,0.8323,0.8343,0.8377,0.8472,0.8526,0.8567,0.8567,0.8703,0.8811,0.8866,0.806,0.8015,0.8977,0.8262,0.819,0.9232,0.9381,0.9462,0.9462,0.9605,0.9727,0.9822,0.9876,0.9903,0.9903,1.0059,0.8248,0.4976,0.5026,0.3264,0.0,0.0,0.0,0.0135,0.121,0.1747,0.1881,0.2954,0.2819,0.1747,0.1747,0.0941,0.0,0.0,0.0,0.0,0.0,-0.0404,-0.121,-0.2283,-0.3088,-0.3622,-0.3622,-0.3222,-0.2016,0.0944,0.2702,0.3932,0.4535,0.2621,-0.0417,-0.3994,-0.5342,-0.5953,-0.6528,-0.4646,-0.2618,-0.2037,-0.0874,0.0,0.0,0.0,0.0,0.0,0.0,0.0,0.0,0.0,0.0,0.0,0.0,0.0,0.0,0.0,0.0,0.0,0.0,0.0,0.0,0.0,0.0,0.0,0.0,0.116,0.3321,0.2511,0.252,0.9288,0.0,0.0,0.0,1.1107,0.9845,0.9489,0.8188,0.7143,0.7394,0.7563,0.7726,0.7923,0.7963,0.8011,0.8167,0.8194,0.8228,0.8323,0.8377,0.8411,0.8411,0.8117,0.7987,0.7987,0.6795,0.6423,0.7309,0.6634,0.0,0.8283,0.8527,0.8858,0.9381,0.953,0.9652,0.9747,0.9795,0.9822,0.9822,0.9924,0.8121,0.4896,0.4946,0.3215,0.0,0.0,0.0,0.0135,0.1344,0.2148,0.2819,0.4024,0.3756,0.2685,0.2685,0.1613,0.0,0.0,0.0,0.0,0.0,0.0,-0.0269,-0.1478,-0.1747,-0.1747,-0.1747,-0.1747,-0.1074,0.1879,0.3088,0.3497,0.2852,0.0,-0.3034,-0.4485,-0.5841,-0.7217,-0.8405,-0.6094,-0.3633,-0.3052,-0.1311,0.0,0.0,0.0,0.0,0.0,0.0,0.0,0.0,0.0,0.0,0.0,0.0,0.0,0.0,0.0,0.0,0.0,0.0,0.0,0.0,0.0,0.0,0.0,0.0,0.1149,0.3302,0.2496,0.2177,0.0,0.0,0.0,0.0,0.0,0.0,0.9329,0.7911,0.6566,0.7021,0.7238,0.7441,0.774,0.7801,0.7848,0.8011,0.8038,0.8038,0.8038,0.8167,0.8262,0.8262,0.7235,0.6463,0.6463,0.5277,0.4463,0.4463,0.4426,0.5023,0.6584,0.6797,0.7715,0.9367,0.9517,0.9598,0.9605,0.9741,0.9815,0.9815,0.9822,0.8038,0.4893,0.4893,0.3167,0.0,0.0,0.0,0.0,0.0,0.1076,0.2685,0.2819,0.2685,0.2685,0.2685,0.1613,0.0,0.0,0.0,0.0,0.0,0.0,0.0,0.0,0.0,0.0,0.0,0.0,0.0404,0.2148,0.389,0.4827,0.3088,0.1082,-0.0819,-0.2603,-0.6005,-0.8561,-0.8673,-0.711,-0.5084,-0.3197,-0.1311,0.0,0.0,0.0,0.0,0.0,0.0,0.0,0.0,0.0,0.0,0.0,0.0,0.0,0.0,0.0,0.0,0.0,0.0,0.0,0.0,0.0,0.0,0.0,0.0,0.1131,0.3299,0.0992,0.0,0.7501,0.0,0.0,0.0,0.0,0.0,0.0,0.6489,0.5827,0.639,0.662,0.6878,0.74,0.7495,0.7577,0.7834,0.797,0.8038,0.8038,0.8079,0.8106,0.8106,0.7094,0.6339,0.6339,0.4232,0.3316,0.0,0.348,0.3515,0.5045,0.6125,0.7477,0.9211,0.9259,0.9334,0.9442,0.9591,0.9666,0.9673,0.9774,0.8116,0.4947,0.4947,0.312,0.0,0.0,0.0,0.0131,0.1467,0.2283,0.2819,0.4158,0.389,0.2685,0.2685,0.1613,0.0,0.0,0.0,0.0,0.0,0.0,0.0,0.0,0.0,0.0,0.0,0.0,0.0135,0.0672,0.1076,0.1344,0.0807,-0.0673,-0.2567,-0.4504,-0.5639,-0.6541,-0.6555,-0.5051,-0.3488,-0.3052,-0.1311,0.0,0.0,0.0,0.0,0.0,0.0,0.0,0.0,0.0,0.0,0.0,0.0,0.0,0.0,0.0,0.0,0.0,0.0,0.0,0.0,0.0,0.0,0.0,0.0,0.0321,0.0968,0.0326,0.0,0.0,0.0,0.0,0.0,0.0,0.0,0.6711,0.5887,0.5332,0.5867,0.6091,0.6277,0.6379,0.6779,0.7094,0.7012,0.7374,0.7828,0.8011,0.7534,0.7135,0.7135,0.5574,0.4489,0.4489,0.2598,0.1684,0.2523,0.1818,0.2276,0.4358,0.5937,0.7459,0.9055,0.9123,0.9198,0.9286,0.9435,0.9544,0.9612,0.9693,0.8055,0.4916,0.4916,0.3092,0.0,0.0,0.0,0.0128,0.1179,0.1987,0.2796,0.3882,0.3622,0.2685,0.2685,0.1613,0.0,0.0,0.0,0.0,0.0,0.0,0.0,0.0,0.0,0.0,0.0,0.0,0.0,0.0,0.0,0.0,0.0,-0.0807,-0.1885,-0.2982,-0.3273,-0.3996,-0.6469,-0.4692,-0.2868,-0.2881,-0.1301,0.0,0.0,0.0,0.0,0.0,0.0,0.0,0.0,0.0,0.0,0.0,0.0,0.0,0.0,0.0,0.0,0.0,0.0,0.0,0.0,0.0,0.0,0.0,0.0,0.0,0.0,0.0,0.0,0.5434,0.6405,0.0,0.0,0.6944,0.0,0.6602,0.5701,0.5033,0.5433,0.5616,0.5617,0.5185,0.5916,0.642,0.5918,0.6637,0.7461,0.7923,0.6802,0.6011,0.6011,0.3613,0.2012,0.2012,0.0819,0.0,0.0,0.0,0.1284,0.4124,0.5656,0.7127,0.8575,0.8943,0.913,0.913,0.9279,0.9422,0.9557,0.9578,0.7965,0.4906,0.4906,0.3071,0.0,0.0,0.0,0.0,0.0,0.0909,0.2369,0.24,0.2414,0.2417,0.2417,0.1344,0.0,0.0,0.0,0.0,0.0,0.0,0.0,0.0,0.0,0.0,0.0,0.0,0.0,0.0,0.0,0.0,0.0,-0.0135,-0.0269,-0.0269,-0.0408,-0.206,-0.7208,-0.5298,-0.2948,-0.3122,-0.1569,-0.0287,-0.0291,-0.0146,0.0,0.0,0.0,0.0,0.0,0.0,0.0,0.0,0.0,0.0,0.0,0.0,0.0,0.0,0.0,0.0157,0.0314,0.0628,0.0628,0.0314,0.0157,0.0,0.0,0.0,0.0,0.5963,0.6239,0.6456,0.626,0.0,0.0,0.5567,0.5128,0.4945,0.5033,0.5074,0.5165,0.5467,0.5643,0.5828,0.5963,0.6491,0.7034,0.7604,0.6617,0.5791,0.5791,0.3586,0.2012,0.2012,0.0809,0.0,0.0,0.0,0.0736,0.2562,0.4108,0.556,0.7111,0.8342,0.8981,0.8981,0.9123,0.9211,0.9245,0.9367,0.7836,0.4704,0.4704,0.3039,0.0,0.0,0.0,0.0,0.0,0.0258,0.0527,0.0528,0.0533,0.0538,0.0538,0.0269,0.0,0.0,0.0,0.0,0.0,0.0,0.0,0.0,0.0,0.0,0.0,0.0,0.0,0.0,0.0,0.0,0.0,-0.1076,-0.2148,-0.2148,-0.3362,-0.4717,-0.5807,-0.4269,-0.3219,-0.4622,-0.3398,-0.2145,-0.215,-0.0869,0.0,0.0,0.0,0.0,0.0,0.0,0.0,0.0,0.0,0.0,0.0,0.0,0.0,0.0,0.0,0.0777,0.2506,0.4224,0.4224,0.2506,0.0784,0.0,0.0,0.0,0.0,0.5408,0.5493,0.5495,0.5544,0.0,0.0,0.0,0.4862,0.4755,0.4979,0.4904,0.4816,0.4785,0.5196,0.5411,0.5123,0.5815,0.6471,0.6776,0.6082,0.5426,0.4905,0.2988,0.1555,0.1091,0.0398,0.0,0.0,0.0,0.0928,0.3035,0.3909,0.5324,0.7517,0.8419,0.8825,0.8825,0.8974,0.9083,0.9157,0.9232,0.8055,0.5814,0.5022,0.3379,0.1097,0.0369,0.0494,0.1234,0.1243,0.1767,0.2317,0.065,0.0,0.0,0.0,0.0,0.0,0.0,0.0,0.0,0.0,0.0,0.0,0.0,0.0,0.0,0.0,0.0,0.0,0.0,0.0,0.0,0.0,-0.0672,-0.1344,-0.1344,-0.2016,-0.2954,-0.389,-0.3259,-0.3296,-0.5109,-0.4591,-0.3792,-0.2849,-0.1868,-0.1013,-0.0146,0.0,0.0,0.0,0.0,0.0,0.0,0.0,0.0,0.0,0.0,0.0,0.0,0.0,0.093,0.313,0.5162,0.5786,0.4693,0.2506,0.0941,0.0,0.0,0.0,0.0,0.0,0.0,0.0,0.0,0.5128,0.0,0.0,0.0,0.451,0.4511,0.4349,0.0,0.0,0.0,0.4378,0.0,0.0,0.0,0.549,0.0,0.3748,0.2287,0.0927,0.0096,0.0,0.0,0.0,0.0,0.11,0.3591,0.402,0.5404,0.8007,0.8481,0.8682,0.871,0.8832,0.8967,0.911,0.911,0.8382,0.6768,0.5676,0.4178,0.2646,0.1464,0.172,0.2954,0.2954,0.3715,0.4633,0.2039,0.0907,0.0917,0.0917,0.0794,0.0536,0.0536,0.0268,0.0,0.0,0.0,0.0,0.0,0.0,0.0,0.0,0.0,0.0,0.0,0.0,0.0,0.0,0.0,0.0,0.0,-0.0269,-0.0941,-0.2417,-0.2954,-0.3636,-0.5172,-0.5059,-0.4417,-0.2964,-0.242,-0.1721,-0.0145,0.0,0.0,0.0,0.0,0.0,0.0,0.0,0.0,0.0,0.0,0.0,0.0,0.0759,0.2005,0.3741,0.6234,0.7329,0.6878,0.5159,0.2975,0.0628,0.0157,0.0,0.0,0.0,0.0,0.0,0.3225,0.0,0.0,0.0,0.2973,0.2592,0.0,0.0,0.0,0.0,0.0,0.0,0.0,0.0,0.525,0.4956,0.4336,0.311,0.1352,0.0177,0.0,0.0,0.0,0.0,0.0,0.0658,0.2213,0.348,0.4957,0.6519,0.7799,0.8574,0.871,0.873,0.8811,0.896,0.896,0.8133,0.6764,0.6546,0.5722,0.4444,0.4211,0.437,0.4671,0.4671,0.4677,0.4813,0.4508,0.4319,0.4377,0.4377,0.3379,0.2241,0.2241,0.1197,0.0,0.0,0.0,0.0,0.0,0.0,0.0,0.0,0.0,0.0,0.0,0.0,0.0,0.0,0.0,0.0,0.0,-0.121,-0.2417,-0.2685,-0.4024,-0.5098,-0.5376,-0.4075,-0.2882,-0.2753,-0.1267,-0.0286,0.0,0.0,0.0,0.0,0.0,0.0,0.0,0.0,0.0,0.0,0.0,0.0,0.0,0.3454,0.5471,0.5999,0.9693,1.0827,0.9061,0.875,0.6562,0.2662,0.0784,0.0,0.0,0.0,0.0,0.0,0.0,0.0,0.2684,0.0,0.2488,0.0,0.0,0.0,0.0,0.0,0.0,0.0,0.4674,0.0,0.0,0.0,0.3279,0.2972,0.0,0.0,0.0084,0.0,0.0,0.0,0.063,0.1633,0.3104,0.4453,0.5827,0.7214,0.7968,0.8391,0.8459,0.8621,0.8743,0.8804,0.8899,0.8523,0.7897,0.7059,0.645,0.5843,0.5,0.5301,0.6185,0.6359,0.6874,0.7739,0.7782,0.6625,0.4943,0.4943,0.4479,0.3894,0.3927,0.356,0.2787,0.1875,0.1613,0.1344,0.0269,0.0,0.0,0.0,0.0,0.0,0.0,0.0,0.0,0.0,0.0,0.0,0.0,-0.0538,-0.1076,-0.1076,-0.1747,-0.2283,-0.2283,-0.3371,-0.3937,-0.2875,-0.2078,-0.1121,-0.0141,0.0,0.0,0.0,0.0,0.0,0.0,0.0,0.0,0.0,0.0,0.0,0.0,0.2831,0.4951,0.6074,0.902,1.0773,1.114,0.8721,0.6722,0.4849,0.2819,0.1098,0.5341,0.0,0.0,0.0,0.0,0.0,0.0,0.0,0.0,0.0,0.0,0.0,0.0,0.0,0.0,0.0,0.0,0.4809,0.0,0.3513,0.0,0.0,0.0,0.0,0.0,0.0314,0.0406,0.0696,0.1523,0.2755,0.4313,0.5274,0.6446,0.7872,0.8126,0.8228,0.8269,0.8486,0.8628,0.871,0.8825,0.8899,0.883,0.7797,0.7285,0.7323,0.6331,0.665,0.7757,0.7878,0.866,0.9768,0.9802,0.8401,0.6234,0.6234,0.5918,0.562,0.5683,0.5472,0.4866,0.3739,0.349,0.3088,0.1344,0.0807,0.0672,0.0135,0.0,0.0,0.0,0.0,0.0,0.0,0.0,0.0,0.0,0.0,0.0,0.0,0.0,0.0,0.0,-0.2148,-0.3501,-0.2178,-0.1916,-0.1515,-0.0139,0.0,0.0,0.0,0.0,0.0,0.0,0.0,0.0,0.0,0.0,0.0,0.0,0.192,0.3705,0.5247,0.741,0.9147,1.0597,0.7744,0.5923,0.5318,0.3288,0.1411,0.0,0.0,0.0,0.2861,0.0,0.0,0.0,0.0,0.2579,0.0,0.0,0.0,0.0,0.0,0.0,0.0,0.0,0.0,0.0,0.0,0.0,0.0,0.0,0.0,0.0,0.1074,0.1462,0.0,0.2667,0.3459,0.5218,0.5541,0.6317,0.7717,0.797,0.8119,0.8269,0.8282,0.8425,0.871,0.8716,0.8798,0.894,0.883,0.891,0.915,0.9051,0.9138,0.9285,0.9432,0.9618,0.9632,0.9768,0.97,0.97,0.97,0.8676,0.7286,0.7286,0.6404,0.5129,0.5205,0.5362,0.4961,0.3222,0.2551,0.2283,0.0538,0.0,0.0,0.0,0.0,0.0,0.0,0.0,0.0,0.0,0.0,0.0,0.0,0.0,0.0,0.0,-0.0135,-0.0135,-0.0135,-0.0136,0.0,0.0,0.0,0.0,0.0,0.0,0.0,0.0,0.0,0.0,0.0,0.0,0.0,0.0,0.1893,0.2927,0.3263,0.5185,0.6294,0.6448,0.6298,0.5257,0.313,0.1098,0.0,0.0,0.0,0.5427,0.4407,0.0,0.0,0.0,0.0,0.0,0.0,0.0,0.0,0.0,0.0,0.0,0.0,0.0,0.0,0.0,0.0,0.0,0.0,0.0,0.0,0.0,0.0,0.0,0.2694,0.3407,0.0,0.5354,0.6303,0.7082,0.7801,0.7963,0.8065,0.8119,0.8221,0.8323,0.8425,0.8615,0.8189,0.7357,0.7442,0.6943,0.6083,0.6148,0.6194,0.635,0.7513,0.7965,0.8289,0.93,0.9741,0.9822,0.9822,0.9483,0.9038,0.9131,0.8908,0.8425,0.7365,0.7003,0.6621,0.4948,0.4426,0.4158,0.2283,0.1747,0.1478,0.0269,0.0,0.0,0.0,0.0,0.0,0.0,0.0,0.0,0.0,0.0,0.0,0.0,0.0,0.0,0.0,0.0,0.0,0.0,0.0,0.0,0.0,0.0,0.0,0.0,0.0,0.0,0.0,0.0,0.0,0.0,0.0583,0.1605,0.2927,0.3688,0.4758,0.6141,0.4839,0.3805,0.3058,0.0919,0.0,0.6688,0.681,0.0,0.5622,0.5358,0.0,0.3906,0.0,0.0,0.0,0.0,0.0,0.0,0.0,0.0,0.0,0.0,0.0,0.0,0.3499,0.0,0.0,0.0,0.0,0.0,0.0,0.283,0.3518,0.4246,0.0,0.0,0.6718,0.74,0.7645,0.7902,0.8038,0.8038,0.814,0.8214,0.8275,0.8465,0.7855,0.6531,0.6608,0.5886,0.4474,0.463,0.4878,0.5451,0.658,0.7481,0.8154,0.9209,0.9666,0.9754,0.9802,0.9822,0.9842,0.9998,1.0114,0.9969,0.9074,0.875,0.841,0.6766,0.6273,0.5763,0.3354,0.2685,0.2283,0.0404,0.0,0.0,0.0,0.0,0.0,0.0,0.0,0.0,0.0,0.0,0.0,0.0,0.0,0.0,0.0,0.0,0.0,0.0,0.0,0.0,0.0,0.0,0.0,0.0,0.0,0.0,0.0,0.0,0.0,0.0,0.0,0.0583,0.1892,0.1909,0.2658,0.3851,0.2542,0.1957,0.1965,0.0605,0.0]},{"header":{"parameterUnit":"m.s-1","parameterCategory":1,"la1":30.6,"la2":29.2853,"lo1":-89.7004,"lo2":-87.6739,"dy":0.0162,"dx":0.0183,"nx":112,"ny":82,"refTime":"2024-08-22T06:00:00:Z","depth":0,"parameterNumber":3,"parameterNumberName":"V-component_of_WINDS"},"data":[0.0,0.0,0.0,0.0,0.0,0.0,0.0,0.0,0.0,0.0,0.0,0.0,0.0,0.0,0.0,0.0,0.0,0.0,0.0,0.0,0.0,0.0,0.0,0.0,0.0,0.0,0.0,0.0,0.0,0.0,0.0,0.0,0.0,0.0,0.0,0.0,0.0,0.0,0.0,0.0,0.0,0.0,0.0,0.0,0.0,0.0,0.0,0.0,0.0,0.0,0.0,0.0,0.0,0.0,0.0,0.0,0.0,0.0,0.0,0.0,0.0,0.0,0.0,0.0,0.0,0.0,0.0,0.0,0.0,0.0,0.0,0.0,0.0,0.0,0.0,0.0,0.0,0.0,0.0,0.0,0.0,0.0,0.0,0.0,0.0,0.0,0.0,0.0,0.0,0.0,4.4952,4.9908,5.5169,5.8046,5.7453,5.6071,5.2234,4.5149,0.0,0.0,0.0,0.0,0.0,0.0,0.0,0.0,0.0,0.0,0.0,0.0,0.0,0.0,0.0,0.0,0.0,0.0,0.0,0.0,0.0,0.0,0.0,0.0,0.0,0.0,0.0,0.0,0.0,0.0,0.0,0.0,0.0,0.0,0.0,0.0,0.0,0.0,0.0,0.0,0.0,0.0,0.0,0.0,0.0,0.0,0.0,0.0,0.0,0.0,0.0,0.0,0.0,0.0,0.0,0.0,0.0,0.0,0.0,0.0,0.0,0.0,0.0,0.0,0.0,0.0,0.0,0.0,0.0,0.0,0.0,0.0,0.0,0.0,0.0,0.0,0.0,0.0,0.0,0.0,0.0,0.0,0.0,0.0,0.0,0.0,0.0,0.0,0.0,0.0,0.0,0.0,0.0,0.0,0.0,0.0,0.0,0.0,0.0,0.0,0.0,0.0,0.0,0.0,4.7193,5.5945,5.828,5.8635,5.7205,5.4907,5.1022,4.5076,0.0,0.0,0.0,0.0,0.0,0.0,0.0,0.0,0.0,0.0,0.0,0.0,0.0,0.0,0.0,0.0,0.0,0.0,0.0,0.0,0.0,0.0,0.0,0.0,0.0,0.0,0.0,0.0,0.0,0.0,0.0,0.0,0.0,0.0,0.0,0.0,0.0,0.0,0.0,0.0,0.0,0.0,0.0,0.0,0.0,0.0,0.0,0.0,0.0,0.0,0.0,0.0,0.0,0.0,0.0,0.0,0.0,0.0,0.0,0.0,0.0,0.0,0.0,0.0,0.0,0.0,0.0,0.0,0.0,0.0,0.0,0.0,0.0,0.0,0.0,0.0,0.0,0.0,0.0,0.0,0.0,0.0,0.0,0.0,0.0,0.0,0.0,0.0,0.0,0.0,0.0,0.0,0.0,0.0,0.0,0.0,0.0,0.0,0.0,0.0,0.0,0.0,0.0,4.5445,5.0275,5.7787,5.9071,5.8794,5.7414,5.4788,5.0765,4.5076,4.1222,0.0,0.0,0.0,0.0,0.0,0.0,0.0,0.0,0.0,0.0,0.0,0.0,0.0,0.0,0.0,0.0,0.0,0.0,0.0,0.0,0.0,0.0,0.0,0.0,0.0,0.0,0.0,0.0,0.0,0.0,0.0,0.0,0.0,0.0,0.0,0.0,0.0,0.0,0.0,0.0,0.0,0.0,0.0,0.0,0.0,0.0,0.0,0.0,0.0,0.0,0.0,0.0,0.0,0.0,0.0,0.0,0.0,0.0,0.0,0.0,0.0,0.0,0.0,0.0,0.0,0.0,0.0,0.0,0.0,0.0,0.0,0.0,0.0,0.0,0.0,0.0,0.0,0.0,0.0,0.0,0.0,0.0,0.0,0.0,0.0,0.0,0.0,0.0,0.0,0.0,0.0,0.0,0.0,0.0,0.0,0.0,0.0,0.0,0.0,0.0,0.0,0.0,5.0532,5.3453,5.8394,5.9114,5.869,5.7337,5.4035,4.9884,4.4745,3.9103,0.0,0.0,0.0,0.0,0.0,0.0,0.0,0.0,0.0,0.0,0.0,0.0,0.0,0.0,0.0,0.0,0.0,0.0,0.0,0.0,0.0,0.0,0.0,0.0,0.0,0.0,0.0,0.0,0.0,0.0,0.0,0.0,0.0,0.0,0.0,0.0,0.0,0.0,0.0,0.0,0.0,0.0,0.0,0.0,0.0,0.0,0.0,0.0,0.0,0.0,0.0,0.0,0.0,0.0,0.0,0.0,0.0,0.0,0.0,0.0,0.0,0.0,0.0,0.0,0.0,0.0,0.0,0.0,0.0,0.0,0.0,0.0,0.0,0.0,0.0,0.0,0.0,0.0,0.0,0.0,0.0,0.0,0.0,0.0,0.0,0.0,0.0,0.0,0.0,0.0,0.0,0.0,0.0,0.0,0.0,0.0,0.0,0.0,0.0,0.0,0.0,0.0,5.1949,5.6366,5.9046,5.899,5.8082,5.6517,5.1636,4.7205,4.3791,3.5957,0.0,0.0,0.0,0.0,0.0,0.0,0.0,0.0,0.0,0.0,0.0,0.0,0.0,0.0,0.0,0.0,0.0,0.0,0.0,0.0,0.0,0.0,0.0,0.0,0.0,0.0,0.0,0.0,0.0,0.0,0.0,0.0,0.0,0.0,0.0,0.0,0.0,0.0,0.0,0.0,0.0,0.0,0.0,0.0,0.0,0.0,0.0,0.0,0.0,0.0,0.0,0.0,0.0,0.0,0.0,0.0,0.0,0.0,0.0,0.0,0.0,0.0,0.0,0.0,0.0,0.0,0.0,0.0,0.0,0.0,0.0,0.0,0.0,0.0,0.0,0.0,0.0,0.0,0.0,0.0,0.0,0.0,0.0,0.0,0.0,0.0,0.0,0.0,0.0,0.0,0.0,0.0,0.0,0.0,0.0,0.0,0.0,0.0,0.0,0.0,0.0,0.0,5.0478,5.4605,0.0,5.8796,5.7921,5.6034,5.2614,4.8343,4.3094,0.0,0.0,0.0,0.0,0.0,0.0,0.0,0.0,0.0,0.0,0.0,0.0,0.0,0.0,0.0,0.0,0.0,0.0,0.0,0.0,0.0,0.0,0.0,0.0,0.0,0.0,0.0,0.0,0.0,0.0,0.0,0.0,0.0,0.0,0.0,0.0,0.0,0.0,0.0,0.0,0.0,0.0,0.0,0.0,0.0,0.0,0.0,0.0,0.0,0.0,0.0,0.0,0.0,0.0,0.0,0.0,0.0,0.0,0.0,0.0,0.0,0.0,0.0,0.0,0.0,0.0,0.0,0.0,0.0,0.0,0.0,0.0,0.0,0.0,0.0,0.0,0.0,0.0,0.0,0.0,0.0,0.0,0.0,0.0,0.0,0.0,0.0,0.0,0.0,0.0,0.0,0.0,0.0,0.0,0.0,0.0,0.0,0.0,0.0,0.0,0.0,0.0,4.5769,5.0302,5.4275,0.0,5.8503,5.7703,5.5765,5.2417,4.8122,4.2653,0.0,0.0,0.0,0.0,0.0,0.0,0.0,0.0,0.0,0.0,0.0,0.0,0.0,0.0,0.0,0.0,0.0,0.0,0.0,0.0,0.0,0.0,0.0,0.0,0.0,0.0,0.0,0.0,0.0,0.0,0.0,0.0,0.0,0.0,0.0,0.0,0.0,0.0,0.0,0.0,0.0,0.0,0.0,0.0,0.0,0.0,0.0,0.0,0.0,0.0,0.0,0.0,0.0,0.0,0.0,0.0,0.0,0.0,0.0,0.0,0.0,0.0,0.0,0.0,0.0,0.0,0.0,0.0,0.0,0.0,0.0,0.0,0.0,0.0,0.0,0.0,0.0,0.0,0.0,0.0,0.0,0.0,0.0,0.0,0.0,0.0,0.0,0.0,0.0,0.0,0.0,0.0,0.0,0.0,0.0,0.0,0.0,0.0,0.0,0.0,0.0,0.0,4.6397,5.2087,5.6198,5.7813,5.7997,5.7336,5.5721,5.0398,4.5773,0.0,0.0,0.0,0.0,0.0,0.0,0.0,0.0,0.0,0.0,0.0,0.0,0.0,0.0,0.0,0.0,0.0,0.0,0.0,0.0,0.0,0.0,0.0,0.0,0.0,0.0,0.0,0.0,0.0,0.0,0.0,0.0,0.0,0.0,0.0,0.0,0.0,0.0,0.0,0.0,0.0,0.0,0.0,0.0,0.0,0.0,0.0,0.0,0.0,0.0,0.0,0.0,0.0,0.0,0.0,0.0,0.0,0.0,0.0,0.0,0.0,0.0,0.0,0.0,0.0,0.0,0.0,0.0,0.0,0.0,0.0,0.0,0.0,0.0,0.0,0.0,0.0,0.0,0.0,0.0,0.0,0.0,0.0,0.0,0.0,0.0,0.0,0.0,0.0,0.0,0.0,0.0,0.0,0.0,0.0,0.0,0.0,0.0,0.0,0.0,0.0,0.0,0.0,4.6397,5.2087,5.6198,5.7813,5.7997,5.7336,5.5721,5.1977,4.7457,4.2123,0.0,0.0,0.0,0.0,0.0,0.0,0.0,0.0,0.0,0.0,0.0,0.0,0.0,0.0,0.0,0.0,0.0,0.0,0.0,0.0,0.0,0.0,0.0,0.0,0.0,0.0,0.0,0.0,0.0,0.0,0.0,0.0,0.0,0.0,0.0,0.0,0.0,0.0,0.0,0.0,0.0,0.0,0.0,0.0,0.0,0.0,0.0,0.0,0.0,0.0,0.0,0.0,0.0,0.0,0.0,0.0,0.0,0.0,0.0,0.0,0.0,0.0,0.0,0.0,0.0,0.0,0.0,0.0,0.0,0.0,0.0,0.0,0.0,0.0,0.0,0.0,0.0,0.0,0.0,0.0,0.0,0.0,0.0,0.0,0.0,0.0,0.0,0.0,0.0,0.0,0.0,0.0,0.0,0.0,0.0,0.0,0.0,0.0,0.0,0.0,0.0,0.0,4.6838,5.227,5.6198,5.7813,5.7997,5.7336,5.5721,5.2931,4.8888,4.3178,0.0,0.0,0.0,0.0,0.0,0.0,0.0,0.0,0.0,0.0,0.0,0.0,0.0,0.0,0.0,0.0,0.0,0.0,0.0,0.0,0.0,0.0,0.0,0.0,0.0,0.0,0.0,0.0,0.0,0.0,0.0,0.0,0.0,0.0,0.0,0.0,0.0,0.0,0.0,0.0,0.0,0.0,0.0,0.0,0.0,0.0,0.0,0.0,0.0,0.0,0.0,0.0,0.0,0.0,0.0,0.0,0.0,0.0,0.0,0.0,0.0,0.0,0.0,0.0,0.0,0.0,0.0,0.0,0.0,0.0,0.0,0.0,0.0,0.0,0.0,0.0,0.0,0.0,0.0,0.0,0.0,0.0,0.0,0.0,0.0,0.0,0.0,0.0,0.0,0.0,0.0,0.0,0.0,0.0,0.0,0.0,0.0,0.0,0.0,0.0,0.0,0.0,4.7609,5.2674,5.6308,5.785,5.7997,5.7373,5.5831,5.3482,5.0068,4.526,0.0,0.0,0.0,0.0,0.0,0.0,0.0,0.0,0.0,0.0,0.0,0.0,0.0,0.0,0.0,0.0,0.0,0.0,0.0,0.0,0.0,0.0,0.0,0.0,0.0,0.0,0.0,0.0,0.0,0.0,0.0,0.0,0.0,0.0,0.0,0.0,0.0,0.0,0.0,0.0,0.0,0.0,0.0,0.0,0.0,0.0,0.0,0.0,0.0,0.0,0.0,0.0,0.0,0.0,0.0,0.0,0.0,0.0,0.0,0.0,3.1326,0.0,0.0,0.0,0.0,0.0,0.0,0.0,0.0,0.0,0.0,0.0,0.0,0.0,0.0,0.0,0.0,0.0,0.0,0.0,0.0,0.0,0.0,0.0,0.0,0.0,0.0,0.0,0.0,0.0,0.0,0.0,0.0,0.0,0.0,0.0,0.0,0.0,0.0,0.0,0.0,0.0,4.8563,5.3555,5.6932,5.7886,5.7997,5.7593,5.6638,5.4326,5.1266,4.7288,4.1893,0.0,0.0,0.0,0.0,0.0,0.0,0.0,0.0,0.0,0.0,0.0,0.0,0.0,0.0,0.0,0.0,0.0,0.0,0.0,0.0,0.0,0.0,0.0,0.0,0.0,0.0,0.0,0.0,0.0,0.0,0.0,0.0,0.0,0.0,0.0,0.0,0.0,0.0,0.0,0.0,0.0,0.0,0.0,0.0,0.0,0.0,0.0,0.0,0.0,0.0,0.0,0.0,0.0,0.0,0.0,0.0,0.0,0.0,0.0,0.0,3.4269,0.0,0.0,0.0,0.0,0.0,0.0,0.0,0.0,0.0,0.0,0.0,0.0,0.0,0.0,0.0,0.0,0.0,0.0,0.0,0.0,0.0,0.0,0.0,0.0,0.0,0.0,0.0,0.0,0.0,0.0,0.0,0.0,0.0,0.0,0.0,0.0,0.0,0.0,0.0,0.0,4.8857,5.3775,5.7116,5.7923,5.7997,5.7666,5.6859,5.495,5.2627,4.9971,4.4802,0.0,0.0,0.0,0.0,0.0,0.0,0.0,0.0,0.0,0.0,0.0,0.0,0.0,0.0,0.0,0.0,0.0,0.0,0.0,0.0,0.0,0.0,0.0,0.0,0.0,0.0,0.0,0.0,0.0,0.0,0.0,0.0,0.0,0.0,0.0,0.0,0.0,0.0,0.0,0.0,0.0,0.0,0.0,0.0,0.0,0.0,0.0,0.0,0.0,0.0,0.0,0.0,0.0,4.1902,4.2997,4.4126,4.4824,4.5507,4.5917,4.2091,4.0612,4.0595,3.711,0.0,0.0,0.0,0.0,0.0,0.0,0.0,0.0,0.0,0.0,0.0,0.0,0.0,0.0,0.0,0.0,0.0,0.0,0.0,0.0,0.0,0.0,0.0,0.0,4.8263,4.8125,4.0353,0.0,0.0,0.0,0.0,0.0,0.0,0.0,0.0,0.0,0.0,0.0,4.9554,5.4179,5.7262,5.7923,5.7997,5.774,5.7079,5.5647,5.4142,5.2527,4.7955,4.4321,0.0,0.0,0.0,0.0,0.0,0.0,0.0,0.0,0.0,0.0,0.0,0.0,0.0,0.0,0.0,0.0,0.0,0.0,0.0,0.0,0.0,0.0,0.0,0.0,0.0,0.0,0.0,0.0,0.0,0.0,0.0,0.0,2.2293,2.3626,0.0,0.0,0.0,0.0,0.0,0.0,0.0,0.0,0.0,0.0,0.0,0.0,0.0,4.1471,4.4171,4.6269,4.7452,4.7807,5.0452,5.1494,5.1123,5.1811,5.2235,5.2251,5.0989,0.0,4.3775,4.1339,0.0,0.0,0.0,0.0,0.0,0.0,0.0,0.0,0.0,0.0,0.0,0.0,0.0,0.0,0.0,0.0,0.0,0.0,0.0,0.0,0.0,0.0,5.3719,5.32,5.3932,5.4054,0.0,4.6613,4.2103,4.0214,3.851,0.0,0.0,0.0,0.0,0.0,0.0,0.0,5.2197,5.5721,5.7886,5.7997,5.7997,5.796,5.785,5.7005,5.5794,5.4179,5.1624,4.9104,4.6819,4.3268,0.0,0.0,0.0,0.0,0.0,0.0,0.0,0.0,0.0,0.0,0.0,0.0,0.0,0.0,0.0,0.0,0.0,0.0,0.0,0.0,0.0,0.0,0.0,0.0,0.0,0.0,0.0,0.0,0.0,2.1874,2.4537,2.5106,2.6183,2.6249,0.0,0.0,0.0,0.0,0.0,0.0,0.0,0.0,0.0,4.4596,4.5554,4.7075,4.9297,5.0423,5.1398,5.2199,5.3495,5.415,5.4256,5.4611,5.4752,5.4697,5.4358,5.2704,4.998,4.6408,4.3707,4.1644,0.0,0.0,0.0,0.0,4.161,4.2929,4.5337,4.6178,4.6013,4.4963,0.0,0.0,0.0,0.0,0.0,0.0,0.0,0.0,0.0,0.0,5.5809,5.6051,5.6995,5.7562,5.6918,5.4127,5.0523,0.0,4.5272,4.3642,3.9661,0.0,0.0,0.0,0.0,5.0325,5.3482,5.6308,5.7997,5.7997,5.7997,5.7997,5.7997,5.7262,5.6492,5.5794,5.4005,5.2134,5.0262,4.7378,4.4217,0.0,0.0,0.0,0.0,0.0,0.0,0.0,0.0,0.0,0.0,0.0,0.0,0.0,0.0,0.0,0.0,0.0,0.0,0.0,0.0,0.0,0.0,0.0,0.0,0.0,0.0,0.0,0.0,2.4627,2.6801,2.7297,2.9191,2.9909,0.0,0.0,0.0,0.0,0.0,0.0,4.3032,4.5255,4.7597,5.0105,5.1085,5.2245,5.3577,5.377,5.4379,5.5472,5.5651,5.6081,5.6599,5.6778,5.6885,5.6885,5.672,5.6308,5.547,5.1095,4.8449,4.703,4.5863,4.5314,4.5314,4.6859,4.7899,4.8907,5.1926,5.2966,5.2715,5.1256,5.0339,4.9256,4.626,0.0,0.0,0.0,0.0,5.132,5.3829,5.5584,5.6941,5.7791,5.8726,5.9389,5.9389,5.8899,5.7114,0.0,5.1556,5.0148,4.5477,0.0,0.0,0.0,0.0,5.2527,5.473,5.6748,5.7997,5.7997,5.7997,5.7997,5.7997,5.7446,5.7042,5.6822,5.5464,5.4115,5.2835,5.0737,4.8098,4.4869,0.0,0.0,0.0,0.0,0.0,0.0,0.0,0.0,0.0,0.0,0.0,0.0,0.0,0.0,0.0,0.0,0.0,0.0,0.0,0.0,0.0,0.0,0.0,0.0,0.0,0.0,0.0,0.0,0.0,3.2029,3.4146,0.0,0.0,0.0,0.0,4.052,4.3315,4.6494,5.0101,5.1825,5.3518,5.517,5.6006,5.685,5.7694,5.773,5.7757,5.7831,5.86,5.9003,5.9077,5.981,6.0176,6.0091,5.9414,5.9114,5.8736,5.4848,5.2378,5.1012,5.0941,5.048,5.0019,5.1528,5.2555,5.3299,5.4166,5.4504,5.4575,5.5157,5.379,5.2028,5.3017,5.1713,0.0,0.0,5.478,5.5837,5.7507,5.8562,5.9238,5.9279,5.9351,5.9389,5.9389,5.9351,5.905,0.0,5.653,5.5036,5.3533,0.0,5.2382,5.2684,5.3592,5.4803,5.6492,5.7446,5.7997,5.7997,5.7997,5.7997,5.7997,5.796,5.7593,5.6859,5.6014,5.517,5.4319,5.2705,5.1018,4.9331,4.4889,0.0,0.0,0.0,0.0,0.0,0.0,0.0,0.0,0.0,0.0,0.0,0.0,0.0,0.0,0.0,0.0,0.0,0.0,0.0,0.0,0.0,0.0,0.0,0.0,0.0,0.0,0.0,0.0,3.6527,3.8917,0.0,4.0147,4.22,4.4474,4.6711,4.9081,5.1412,5.3775,5.4913,5.6014,5.7116,5.7409,5.796,5.8767,5.8767,5.9173,6.0055,6.0351,6.0462,6.0499,6.0759,6.072,6.0419,6.0103,6.0003,5.9894,5.8528,5.7045,5.573,5.573,5.5553,5.5375,5.5943,5.6577,5.7298,5.7496,5.7959,5.8333,5.8396,5.7471,5.645,5.7228,5.6814,5.6455,5.8065,5.8559,5.876,5.9568,6.0045,6.0217,5.9916,6.0523,6.1114,6.1114,6.1534,6.1802,6.1534,5.9665,5.7503,5.5484,5.5471,5.5471,5.4533,5.5318,5.6345,5.7446,5.7813,5.7997,5.7997,5.7997,5.7997,5.7997,5.7519,5.7116,5.6822,5.5574,5.4564,5.4044,5.2936,5.1676,5.0314,4.7165,4.3503,0.0,0.0,0.0,0.0,0.0,0.0,0.0,0.0,0.0,0.0,0.0,0.0,0.0,0.0,0.0,0.0,0.0,0.0,0.0,0.0,0.0,0.0,0.0,0.0,0.0,3.5064,3.8427,4.1298,4.4132,4.5954,4.6266,4.8457,5.0488,5.2004,5.385,5.5418,5.6578,5.7168,5.7832,5.8644,5.8492,5.886,5.9862,5.9862,6.0395,6.1462,6.1724,6.1874,6.1874,6.2173,6.2118,6.1767,6.1579,6.1579,6.1767,6.1579,6.1043,6.0223,5.9295,5.8896,5.8896,5.8896,5.9258,5.9662,5.9662,6.0115,6.0609,6.0412,6.0185,6.0076,6.0392,6.0595,6.0836,6.1406,6.1362,6.1239,6.1538,6.16,6.1579,6.1234,6.1864,6.2512,6.2512,6.2935,6.332,6.332,6.1917,6.0083,5.8053,5.8329,5.8313,5.6779,5.7186,5.7872,5.8429,5.8503,5.8503,5.8503,5.8503,5.8418,5.8238,5.7242,5.6762,5.6977,5.5207,5.4121,5.3979,5.2893,5.1794,5.0727,4.8422,4.5749,4.2754,0.0,0.0,0.0,0.0,0.0,0.0,0.0,0.0,0.0,0.0,0.0,0.0,0.0,0.0,0.0,0.0,0.0,0.0,0.0,0.0,0.0,0.0,0.0,3.8013,4.0466,4.3462,4.643,4.9713,5.1809,5.1809,5.3908,5.5573,5.637,5.7559,5.8384,5.8716,5.8791,5.9123,5.9942,5.9538,5.9944,6.1251,6.1251,6.1499,6.2027,6.282,6.3161,6.3161,6.403,6.4407,6.437,6.385,6.3934,6.4332,6.385,6.3934,6.4143,6.1567,6.0504,6.0504,6.0504,6.0493,6.0493,6.0456,6.0802,6.1251,6.1293,6.1881,6.2612,6.2612,6.2946,6.332,6.332,6.332,6.332,6.332,6.332,6.332,6.332,6.332,6.3358,6.3358,6.3358,6.3397,6.3397,6.3397,6.299,6.1707,6.1429,6.0936,5.9681,5.9427,0.0,5.9389,5.9389,5.9389,5.9389,5.9389,5.9212,5.8756,5.7225,5.6628,5.7295,5.5099,5.3938,5.4345,5.2793,5.1586,5.084,4.8882,4.7355,4.6252,0.0,0.0,0.0,0.0,0.0,0.0,0.0,0.0,0.0,0.0,0.0,0.0,0.0,0.0,0.0,0.0,0.0,0.0,0.0,0.0,0.0,3.9752,4.2848,4.2109,4.5192,4.8825,5.2323,5.4303,5.5668,5.6464,5.7428,5.8181,5.8653,5.8921,5.9392,6.0114,6.0115,6.0491,6.1319,6.1243,6.1618,6.256,6.256,6.3122,6.4215,6.4443,6.4557,6.4557,6.4824,6.4731,6.437,6.4217,6.4255,6.437,6.4217,6.4255,6.4332,6.3571,6.3051,6.2695,6.2695,6.2456,6.2194,6.2595,6.242,6.2197,6.2856,6.2851,6.2642,6.3,6.3207,6.3435,6.4051,6.3782,6.3474,6.4089,6.3782,6.332,6.332,6.3782,6.4243,6.4243,6.4743,6.5205,6.5205,6.5205,6.468,6.3041,6.2021,6.1285,6.0898,6.0042,0.0,5.9389,5.9389,5.9389,5.9389,5.9389,5.9354,5.9212,5.7707,5.6582,5.6206,5.3875,5.2937,5.3926,5.2965,5.2878,5.3867,5.222,5.073,0.0,0.0,0.0,0.0,0.0,0.0,0.0,0.0,0.0,0.0,0.0,0.0,0.0,0.0,0.0,0.0,0.0,0.0,0.0,0.0,0.0,0.0,4.4891,4.8303,4.9171,5.1171,5.3633,5.6573,5.7964,5.89,5.9449,5.9801,5.9973,5.9817,6.0235,6.0677,6.0974,6.1283,6.1852,6.2686,6.2513,6.2929,6.3938,6.3938,6.4438,6.5446,6.5446,6.5446,6.5446,6.5446,6.5452,6.5536,6.5297,6.5559,6.6069,6.5828,6.5863,0.0,0.0,0.0,0.0,0.0,6.3408,6.3215,6.3766,6.3759,6.3615,6.4177,6.4191,6.4019,6.4308,6.4397,6.4474,6.5013,6.4782,6.4512,6.5013,6.4782,6.4397,6.4397,6.4782,6.5128,6.5128,6.5551,6.5897,6.5897,6.5897,0.0,6.4551,6.3475,6.2613,6.2268,6.1229,6.051,6.051,6.0205,5.9977,5.9977,5.9977,5.9916,5.9728,5.8173,0.0,0.0,0.0,5.4058,5.4585,5.3865,0.0,0.0,0.0,0.0,0.0,0.0,0.0,0.0,5.4811,5.5864,0.0,0.0,0.0,0.0,0.0,0.0,0.0,0.0,0.0,0.0,0.0,0.0,0.0,0.0,0.0,0.0,4.9633,5.377,5.6977,5.7216,5.7715,5.9402,6.062,6.1206,6.0951,6.1061,6.0937,6.0321,6.1352,6.194,6.1784,6.2442,0.0,0.0,0.0,6.4006,6.5161,6.5161,6.5417,6.5897,6.5974,6.6051,6.6051,6.6128,6.6551,6.7218,6.6834,6.7285,6.8371,6.7875,6.7974,6.8164,6.5707,6.4441,6.4027,6.3985,6.3904,6.3915,6.4445,0.0,0.0,6.5161,6.5513,6.5897,6.5897,6.5897,6.5897,6.5897,6.5897,6.5897,6.5897,6.5897,6.5897,6.5897,6.5897,6.5897,6.5897,6.5897,6.5897,6.5897,6.5897,6.5897,6.5897,6.5166,6.432,6.3599,6.2752,6.2275,6.2282,6.1604,6.1119,6.1119,0.0,0.0,6.037,5.8945,5.8284,5.888,5.7685,5.6759,5.6346,5.593,5.6776,5.9064,5.9386,6.1136,6.4455,6.5368,6.6355,6.7243,6.1339,6.0857,0.0,0.0,0.0,0.0,0.0,0.0,0.0,0.0,0.0,0.0,0.0,0.0,0.0,0.0,0.0,4.9232,5.3532,5.7096,5.8511,5.9128,5.9827,6.0811,6.1133,6.1082,6.0497,6.0489,6.074,6.1286,6.1464,6.224,6.3873,6.4103,6.4603,6.5448,6.5394,6.5471,6.5717,6.5755,6.5808,6.5897,0.0,0.0,6.6898,6.759,6.8013,6.8129,6.8048,6.8164,6.8398,6.8279,6.8279,6.8306,6.7369,6.6916,6.6774,6.6408,6.5837,6.5274,6.5825,6.5607,6.5161,6.5597,6.5808,6.5897,6.5897,6.5897,0.0,6.5897,6.5897,6.5897,6.5897,6.5897,6.5897,6.5897,6.5897,6.5897,6.5897,6.5897,6.5897,6.5897,6.5897,6.5897,6.5897,6.5166,6.4571,6.4541,6.3845,6.3339,6.3478,6.3236,6.3071,6.3071,6.2905,6.2526,6.1785,6.0899,6.0133,5.965,6.0073,6.0306,6.0229,6.1369,6.2277,6.2782,6.3519,6.4259,6.4961,6.6517,6.8086,6.9525,6.789,6.8098,0.0,0.0,0.0,0.0,0.0,0.0,0.0,0.0,0.0,0.0,0.0,4.1638,4.3468,0.0,5.1407,5.3833,5.6549,5.8678,5.9588,5.9721,5.9985,6.0737,6.0291,5.9905,5.9852,5.9585,5.9998,6.1414,6.1784,6.2758,6.4487,6.5013,6.5436,6.5897,6.5897,6.5897,6.5897,6.5897,6.609,6.6513,6.6898,6.7321,6.7782,6.8205,6.8629,6.9052,6.9052,6.9283,6.9667,6.9667,6.9667,6.9602,6.9356,6.8571,6.7578,6.7341,6.6967,6.6695,6.7233,6.7122,6.673,6.6576,6.6513,6.6436,6.6013,6.5897,6.5897,6.5897,6.5897,6.5897,6.5897,6.5897,6.5897,6.5897,6.5897,6.5897,6.5897,6.5897,6.5897,6.5897,6.5897,6.5909,6.5997,6.5633,6.5368,6.5432,6.4821,6.4386,6.4441,6.4026,6.3651,6.361,6.3571,6.3361,6.2874,6.256,6.2221,6.1847,6.2289,6.2752,6.3192,6.4101,6.4987,6.5853,6.6292,6.6943,6.7802,6.9023,7.0507,7.2252,7.2466,7.2793,0.0,0.0,0.0,0.0,0.0,0.0,0.0,0.0,3.7485,3.9988,4.3996,4.7679,4.9589,5.2663,5.5522,5.7511,5.863,5.9494,6.0035,5.9484,5.9229,5.9727,5.8896,5.8437,5.8768,5.8509,5.9131,6.1115,6.2008,6.3159,6.4757,6.5513,6.5897,6.5897,6.5897,6.5897,6.5897,6.6051,6.6436,6.709,6.7436,6.7975,6.8667,6.8821,6.9283,6.9937,6.9937,7.0283,7.0898,7.0898,7.0898,7.0898,7.0898,6.9808,6.8241,6.8241,6.8126,6.8074,6.8482,6.8552,6.8282,6.7359,6.709,6.6936,6.6128,6.5897,6.5897,6.5897,6.5897,6.5897,6.5897,6.5897,6.5897,6.5897,6.5897,6.5897,6.5897,6.5897,6.5897,6.5897,6.5909,6.5951,6.607,6.6144,6.6212,6.6212,6.5725,6.5395,6.5426,6.4782,6.4298,6.4186,6.4273,6.4221,6.3938,6.404,6.412,6.415,6.4462,6.4948,6.5636,6.5975,6.6745,6.808,6.8249,6.9116,7.0684,7.1416,7.2724,7.4584,7.53,7.5741,2.4926,2.6581,2.8747,3.081,3.2321,3.4825,0.0,0.0,4.426,4.7032,5.055,5.3179,5.3312,5.6096,5.8289,5.8197,5.9163,5.9854,5.9555,5.8536,5.7851,5.7905,5.7672,5.7327,5.6791,5.7327,5.8597,6.0708,6.1544,6.3112,6.5641,6.5859,6.5897,6.5897,6.5897,6.5897,6.5897,6.659,6.7013,6.7128,6.8667,6.9475,6.959,7.0283,7.0667,7.0783,7.0783,7.0821,7.0898,7.0898,7.0898,7.0898,7.0898,7.0755,7.0536,7.0536,7.0074,6.9459,6.9525,6.9052,6.8282,6.7359,6.709,6.6936,6.6128,6.5897,6.5897,6.5897,6.5897,6.5897,6.5897,6.5897,6.5897,6.5897,6.5897,6.5897,6.5897,6.5897,6.5897,6.5897,6.6019,6.607,6.6109,6.6348,6.6549,6.6549,6.6479,6.6511,6.6674,6.6449,6.6283,6.6276,6.6185,6.5851,6.5168,6.5198,6.5273,6.5387,6.6833,6.7655,6.7585,6.8357,6.8788,6.8783,6.9526,7.0408,7.1381,7.2374,7.375,7.5475,7.573,7.6595,3.0134,3.156,3.2921,3.5905,3.8011,4.0409,4.4405,4.692,4.8959,5.0994,5.3689,5.5718,5.5953,5.7528,5.8829,5.8899,5.937,5.9526,5.9065,5.8196,5.7167,5.5995,5.579,5.5847,5.5955,5.6295,5.7704,6.0576,6.1469,6.3085,6.5756,6.5897,6.5897,6.5897,6.5897,6.5897,6.5897,6.6705,6.7383,6.8033,6.9231,7.0131,7.0738,7.1087,7.1201,7.1062,7.094,7.0898,7.0898,7.0898,7.0898,7.0898,7.0898,7.0898,7.0898,7.0898,7.0706,7.0398,7.0398,7.0167,6.9706,6.8898,6.8282,6.7705,6.6859,6.6282,6.5897,6.5897,6.6244,6.6474,6.6013,6.6244,6.6474,6.6013,6.5897,6.6013,6.6513,6.6244,6.6063,6.6637,6.6417,6.6161,6.636,6.6525,6.6634,6.6745,6.6787,6.6791,6.6875,6.6832,6.6787,6.6787,6.6616,6.644,6.6234,6.6279,6.6518,6.707,6.7812,6.8592,6.9481,6.9801,7.0146,7.0523,7.1194,7.1723,7.2093,7.3495,7.4612,7.5452,7.6152,7.7417,3.3878,3.5626,3.7275,4.028,4.3148,4.5719,4.7819,5.0449,5.277,5.407,5.5733,5.7063,5.7441,5.8086,5.8653,5.8837,5.9062,5.9028,5.8549,5.7692,5.6612,5.5402,5.4851,5.4957,5.5806,5.5861,5.7268,6.0576,6.1618,6.3213,6.5756,6.5897,6.5897,6.5897,6.5897,6.6024,6.6314,6.7123,6.8055,6.9144,6.9941,7.0765,7.1485,7.1485,7.1397,7.128,7.1062,7.0953,7.0992,7.0914,7.0898,7.0898,7.0898,7.0898,7.0898,7.0898,7.0898,7.0898,7.0898,7.0898,7.0783,6.9975,6.9283,6.859,6.7705,6.7051,6.6551,6.6282,6.6821,6.7282,6.6436,6.6667,6.7013,6.6667,6.6397,6.6474,6.7282,6.705,6.6885,6.7619,6.7304,6.7022,6.7298,6.7336,6.7328,6.7186,6.7421,6.7422,6.6953,6.6914,6.6914,6.6914,6.6784,6.6738,6.6875,6.7109,6.7539,6.8164,6.8633,6.9413,7.0582,7.0743,7.1074,7.1555,7.2185,7.2615,7.2848,7.4363,7.5305,7.5767,7.6599,7.7954,3.4736,3.7764,4.1289,4.2914,4.6597,5.0275,5.173,5.3893,5.5861,5.6539,5.7112,5.7484,5.7484,5.7902,5.8081,5.7638,5.8231,5.8549,5.8097,5.6709,5.601,5.6717,5.5437,5.4989,5.6269,5.6356,5.7619,6.0576,6.1902,6.3561,6.5756,6.5897,6.5897,6.5897,6.5897,6.6376,6.7348,6.82,6.9144,7.0162,7.1057,7.1471,7.1485,7.1485,7.1523,7.1457,7.128,7.1201,7.118,7.0953,7.0898,7.0898,7.0898,7.0898,7.0898,7.0898,7.0898,7.0898,7.0898,7.0898,7.0783,6.9975,6.9667,6.9513,6.8629,6.8359,6.8167,6.7282,6.7705,6.8167,6.7282,6.709,6.7321,6.8129,6.7667,6.7282,6.8167,6.8513,6.8626,6.8646,6.8903,6.9114,6.912,6.9244,6.8982,6.8039,6.8739,6.8828,6.7109,6.6914,6.6914,6.6914,6.6875,6.6875,6.6914,6.7656,6.8164,6.8203,6.9726,7.058,7.0525,7.126,7.1505,7.1223,7.2073,7.2925,7.376,7.4778,7.5819,7.688,7.7061,7.8086,3.9005,4.1997,4.492,4.6955,4.9937,5.261,5.3273,5.481,5.5945,5.5324,5.4938,5.4474,5.392,5.4415,5.5131,5.5807,5.7038,5.8164,5.8942,5.854,5.7931,5.7299,5.71,5.7022,5.691,5.7107,5.8113,6.0266,6.1766,6.3294,6.4949,6.559,6.5897,6.5897,6.5997,6.6456,6.7406,6.8341,6.9357,7.0394,7.1357,7.1841,7.1841,7.1706,7.1633,7.1624,7.1331,7.1221,7.1201,7.0953,7.0898,7.0898,7.0898,7.0898,7.0898,7.0898,7.0898,7.0898,7.0898,7.0898,7.086,7.0591,7.0129,6.9667,6.936,6.8859,6.8359,6.8052,6.859,6.9052,6.8205,6.8398,6.8744,6.8475,6.8167,6.8219,6.917,6.903,6.8933,6.9745,6.9497,6.9186,6.9216,6.9238,6.9126,6.8621,6.8007,6.7796,6.8476,6.8086,6.7969,6.8555,6.8633,6.8594,6.8555,6.8867,6.9297,6.9844,7.039,7.0937,7.1476,7.1641,7.1932,7.239,7.3129,7.3906,7.4817,7.5857,7.6535,7.688,7.7103,7.8086,4.3029,4.5538,4.7855,5.022,5.2605,5.4423,5.4576,5.5246,5.5507,5.4408,5.3203,5.2123,5.1279,5.1573,5.2555,5.4424,5.5844,5.7393,5.9345,5.9349,5.891,5.8279,5.8318,5.84,5.832,5.8461,5.9138,6.0534,6.201,6.3357,6.4551,6.5436,6.5909,6.5951,6.6379,6.7053,6.803,6.9005,7.0013,7.103,7.1677,7.1952,7.1906,7.1753,7.1675,7.1624,7.1314,7.1221,7.1201,7.0953,7.0898,7.0898,7.0898,7.0898,7.0898,7.0898,7.0898,7.0898,7.0898,7.0898,7.0898,7.0898,7.0593,7.0232,7.0232,6.9847,6.9345,6.9037,6.9502,6.9937,6.909,6.9283,6.9629,6.936,6.9117,6.92,7.0173,7.0054,7.0006,7.077,7.0483,7.0078,7.0108,6.9752,6.955,6.9798,6.8397,6.7803,6.9163,6.8898,6.8785,6.9414,6.9453,6.9453,6.9414,6.9726,7.0156,7.0664,7.0933,7.132,7.1866,7.1989,7.2305,7.2808,7.3833,7.463,7.5215,7.6193,7.6717,7.6796,7.7339,7.8272,4.6507,4.8421,5.023,5.2661,5.4547,5.5724,5.5648,5.524,5.4653,5.3646,5.1821,5.0141,4.926,4.9263,5.0343,5.339,5.4716,5.6376,5.9297,5.9205,5.9011,5.962,5.9205,5.9287,6.0304,6.0419,6.0737,6.1449,6.2605,6.3666,6.4576,6.5422,6.5951,6.6128,6.696,6.7991,6.9198,7.0141,7.1069,7.1992,7.1992,7.1906,7.1689,7.1689,7.1633,7.1471,7.1299,7.1221,7.1201,7.0953,7.0898,7.0898,7.0898,7.0898,7.0898,7.0898,7.0898,7.0898,7.0898,7.0898,7.0898,7.0898,7.1053,7.1221,7.1221,7.1221,7.1048,7.0196,7.0429,7.076,6.999,6.9797,6.999,7.076,7.0429,7.0196,7.1068,7.1472,7.1689,7.1696,7.1717,7.1682,7.1675,7.0742,7.0312,7.1311,6.992,6.8851,6.928,6.9309,6.9338,6.9492,6.9531,6.9531,6.9531,7.0273,7.0781,7.0781,7.1338,7.1689,7.1689,7.2351,7.2678,7.2572,7.4133,7.4983,7.5053,7.5881,7.6381,7.6567,7.7687,7.8636,4.9259,5.1393,5.3054,5.4296,5.5644,5.6244,5.4645,5.3997,5.2709,4.909,4.6755,4.4745,4.2727,4.4576,4.7423,5.0544,5.3891,5.7218,6.0411,6.0605,6.0534,6.0817,6.1149,6.1486,6.1756,6.2265,6.2603,6.281,6.3117,6.3723,6.4675,6.5585,6.6128,6.632,6.7264,6.8249,6.9198,7.0806,7.1756,7.1992,7.1992,7.1906,7.1689,7.1689,7.1633,7.1471,7.1299,7.1221,7.1201,7.0953,7.0898,7.0898,7.0898,7.0898,7.0898,7.0898,7.0898,7.0898,7.0898,7.0898,7.0898,7.0898,7.1053,7.1221,7.1221,7.1317,7.1373,7.114,7.1209,7.1292,7.1098,7.1059,7.1098,7.1292,7.1209,7.1184,7.1505,7.1651,7.1747,7.1906,7.1708,7.1511,7.1365,7.0943,7.0747,7.1,7.0618,7.0483,7.0988,7.0558,7.047,7.125,7.1328,7.1328,7.1328,7.1523,7.168,7.168,7.1694,7.1689,7.1689,7.2351,7.2977,7.3613,7.425,7.4865,7.5525,7.5719,7.5895,7.5954,7.7479,7.8636,5.1669,5.3376,5.4587,5.5235,5.5631,5.5275,5.2947,5.1574,4.9511,4.5111,4.3096,4.1366,3.9073,4.1733,4.5337,4.8605,5.2756,5.6747,6.0311,6.1045,6.1256,6.1288,6.1751,6.2141,6.2296,6.2789,6.3295,6.382,6.3858,6.4155,6.4774,6.5644,6.6228,6.6478,6.7766,6.9093,7.0409,7.1483,7.1992,7.1992,7.1992,7.1858,7.1614,7.1614,7.1459,7.1223,0.0,7.1062,7.1062,7.094,7.0898,7.0898,7.0898,7.0898,7.0898,7.0898,7.0898,7.0925,7.1004,7.1053,7.1053,7.1053,7.118,7.1331,7.1388,7.1485,7.1594,7.1594,7.1536,7.1485,7.1485,7.1485,7.1485,7.1485,7.1536,7.1614,7.1682,7.1758,7.1827,7.1869,7.1681,7.1451,7.1223,7.1053,7.0898,7.0898,7.0898,7.1047,7.1533,7.1224,7.1207,7.1913,7.1992,7.1992,7.1992,7.1992,7.1952,7.1864,7.2026,7.2089,7.2056,7.2793,7.3466,7.393,7.4207,7.4704,7.5446,7.5446,7.5567,7.5876,7.7735,7.8876,5.3734,5.4651,5.5262,5.5484,5.4934,5.3626,5.0971,4.8597,4.5856,4.1663,4.0137,3.891,3.6888,3.9714,4.3577,4.7312,5.136,5.5481,5.9556,6.0735,6.1164,6.1165,6.1576,6.1949,6.224,6.2775,6.3527,6.459,6.4718,6.4849,6.4967,6.572,6.6344,6.6766,6.8327,6.9996,7.1795,7.1912,7.1952,7.1992,7.1992,7.1802,7.1485,7.1485,7.128,7.0898,7.0898,7.0898,7.0898,7.0914,7.094,7.094,7.0992,7.0992,7.0992,7.094,7.0966,7.1004,7.1137,7.1203,7.1223,7.1223,7.1365,7.1549,7.1667,7.1735,7.1747,7.1747,7.1642,7.1587,7.1587,7.1587,7.1587,7.1587,7.1642,7.1747,7.1747,7.1864,7.195,7.1747,7.1594,7.1451,7.1223,7.1053,7.0898,7.0898,7.0898,7.1077,7.1427,7.1485,7.1643,7.1951,7.1991,7.1951,7.1951,7.195,7.1897,7.1831,7.2237,7.2552,7.2654,7.3377,7.3794,7.3908,7.4172,7.4547,7.5017,7.5089,7.548,7.6159,7.8243,7.9286,5.4879,5.5484,5.5445,5.4857,5.4049,5.2587,4.9317,4.6414,0.0,3.9109,3.678,3.5184,3.4216,3.7086,4.1208,4.6136,4.9986,5.4103,5.9152,5.9669,5.9747,6.039,6.1425,6.207,6.2146,6.3694,6.4772,6.5031,6.5433,6.5735,6.5858,6.6182,6.6747,6.767,6.8515,6.9548,7.0738,7.1402,7.1854,7.1992,7.1992,7.1802,7.1485,7.1485,7.128,7.0898,7.0898,0.0,7.0925,7.1085,7.1137,7.1158,7.1353,7.142,7.1387,7.1182,7.1242,7.1403,7.1242,7.1317,7.1427,7.1427,7.156,7.1667,7.1682,7.1811,7.1951,7.1951,7.1949,7.1906,7.1906,7.1906,7.1906,7.1906,7.1949,7.1951,7.1951,7.1991,7.195,7.1747,7.1594,7.1451,7.1223,7.1053,7.0898,7.0898,7.0898,7.1077,7.1427,7.1485,7.1643,7.1951,7.1858,7.1753,7.1753,7.1633,7.1872,7.2497,7.1853,7.2075,7.3467,7.307,7.3184,7.3908,7.4172,7.4336,7.4464,7.5073,7.5763,7.6611,7.8489,7.9743,5.4682,5.5395,5.5511,5.4703,5.351,5.1279,4.6586,0.0,0.0,3.5477,3.3642,3.2634,3.1949,3.5331,3.9197,4.2232,4.6319,5.0894,5.5954,5.6792,5.7468,5.9142,6.0684,6.1613,6.1776,6.3592,6.4971,6.5475,6.5781,6.5967,6.609,6.629,6.6813,6.7784,6.811,6.8733,6.9665,7.0523,7.097,7.1065,7.1526,7.1594,7.1353,7.1353,7.1223,7.1038,7.1038,7.1131,7.1203,7.1335,7.137,7.1387,7.1442,7.1485,7.151,7.1381,7.1435,7.1485,7.1459,7.151,7.1624,7.1714,7.1728,7.1735,7.1811,7.191,7.1992,7.1992,7.1992,7.1992,7.1992,7.1992,7.1992,7.1992,7.1992,7.1992,7.1992,7.1992,7.1952,7.1864,7.1728,7.1583,7.1472,7.1331,7.1203,7.1203,7.1203,7.1292,7.1472,7.1501,7.1577,7.1825,7.1714,7.1749,7.2178,7.2147,7.2438,7.3177,7.318,7.3496,7.4179,7.4018,7.4099,7.4519,7.4399,7.4513,7.486,7.5257,7.6083,7.7345,7.8765,7.9853,5.3933,5.4818,5.5241,5.4434,5.2933,5.0087,4.4162,4.07,0.0,3.2429,3.1123,3.0734,3.0394,3.3738,3.713,3.8885,4.2832,4.7471,5.2516,5.3887,5.5276,5.7749,5.9492,6.0715,6.1394,6.305,6.4541,6.5663,6.5833,6.5967,6.609,6.6195,6.6601,6.7306,6.751,6.7899,6.8564,6.9459,6.9978,7.0214,7.0901,7.1241,7.1262,7.1262,7.1262,7.1262,7.1262,7.1331,7.1485,7.1482,7.1533,7.1549,7.1526,7.1575,7.1583,7.1549,7.156,7.1633,7.1667,7.1741,7.1802,7.1951,7.1906,7.1802,7.1951,7.1992,7.1992,7.1992,7.1992,7.1992,7.1992,7.1992,7.1992,7.1992,7.1992,7.1992,7.1992,7.1952,7.195,7.195,7.1755,7.1581,7.1581,7.1472,7.1349,7.1349,7.1263,7.126,7.1405,7.1314,7.1318,7.1555,7.1511,7.1762,7.2578,7.2608,7.2967,7.3883,7.4402,7.4783,7.4976,7.4938,7.4966,7.5191,7.479,7.4893,7.5435,7.5633,7.6573,7.8248,7.9096,8.0035,5.2895,5.3933,5.4395,5.3549,5.2049,4.924,4.3278,0.0,3.5738,3.1429,2.9879,2.9447,2.9942,3.1851,3.4726,3.895,0.0,4.4843,5.0541,5.2271,5.3838,5.6381,5.7704,5.9103,6.1023,6.2447,6.3754,6.5054,6.5597,6.5967,6.609,6.6019,6.6036,6.6263,6.683,6.7293,6.756,6.8413,6.9295,7.0214,7.0292,7.0706,7.1457,7.1457,7.1457,7.1457,7.1457,7.1471,0.0,7.149,7.1581,7.1696,7.1675,7.1788,7.1949,7.1747,7.1802,7.1949,7.1753,7.1811,7.1991,7.1992,7.1992,7.1991,7.1992,7.1992,7.1992,7.1992,7.1992,7.1992,7.1992,7.1992,7.1992,7.1992,7.1992,7.1992,7.1992,7.1861,7.1741,7.1741,7.1474,7.1245,7.1245,7.1089,7.0974,7.0974,7.0541,7.047,7.1156,7.0628,7.0505,7.1184,7.1223,7.1571,7.2442,7.2375,7.2904,7.4533,7.3994,7.4312,7.5822,7.487,7.461,7.534,7.5491,7.5585,7.5692,7.6391,7.7628,7.9252,7.9558,8.0546,5.0785,5.2521,5.3395,5.201,5.0394,4.7586,4.1662,3.7661,3.4276,3.1083,2.9193,2.853,2.9785,3.0975,3.2783,3.5897,3.7483,4.0239,4.5749,4.7316,4.9358,5.3326,5.5705,5.803,6.0729,6.2483,6.4083,6.5465,6.5781,6.5909,6.5974,6.5933,6.5933,6.5974,6.6242,6.6434,6.6499,6.7423,6.8103,6.8502,6.9133,6.9603,6.9953,6.9953,7.0006,7.0133,7.0133,7.0408,0.0,7.0343,7.0675,7.1513,7.1009,7.1238,7.1815,7.1712,7.1835,7.1992,7.1908,7.1911,7.1992,7.1992,7.1992,7.1992,7.1992,7.1992,7.1992,7.1992,7.1992,7.1992,7.1992,7.1992,7.1992,7.1992,7.1992,7.1992,7.1992,7.1858,7.1689,7.1689,7.1516,7.1276,7.0937,7.0823,7.0681,7.0332,7.0114,7.0041,7.022,7.0266,7.0375,7.0508,7.0825,7.1376,7.2263,7.2712,7.3476,7.463,7.4899,7.5358,7.6146,7.5721,7.5662,7.6108,7.6205,7.6288,7.6404,7.7268,7.835,7.9597,8.0194,8.1133,4.835,5.0451,5.1698,5.0567,4.8817,4.5932,4.0508,3.6469,3.3071,3.0445,2.8645,2.7913,2.9277,3.0099,3.1299,0.0,3.4747,3.7192,4.2152,4.4016,4.6537,5.0967,5.3801,5.663,5.9891,6.2515,6.4555,6.5795,6.5897,6.5897,6.5897,6.5897,6.5897,6.5897,6.5897,6.5909,6.5967,6.6668,6.7154,6.7459,6.8171,6.8696,6.8966,6.8966,6.9089,6.9264,6.9264,6.957,0.0,6.9397,6.9762,7.0667,7.0058,7.0269,7.0954,7.1016,7.1278,7.1601,7.1601,7.1797,7.1992,7.1992,7.1992,7.1953,7.168,7.1797,7.1992,7.1992,7.1992,7.1992,7.1992,7.1992,7.1992,7.1992,7.1992,7.1992,7.1992,7.1802,7.1642,7.1642,7.1485,7.1145,7.0614,7.0527,7.035,6.9804,6.9705,6.9719,6.9747,7.0049,7.0324,7.0324,7.0728,7.1326,7.2212,7.3099,7.3961,7.4808,7.5721,7.6243,7.6361,7.6438,7.6521,7.6702,7.6749,7.6847,7.6995,7.7854,7.8774,7.9726,8.0586,8.1484,4.5687,4.7678,4.9022,4.9336,4.7509,4.4509,4.0277,3.5968,3.2122,2.9369,2.8093,2.768,2.8315,2.9112,3.0453,3.2672,3.4351,3.6777,4.078,4.361,4.6539,4.9915,5.204,5.4722,5.8462,6.231,6.4974,6.582,6.5897,6.5897,6.5897,6.5897,6.5897,6.5897,6.5897,6.5967,6.6109,6.6109,6.6622,6.758,6.7619,6.8171,6.9185,6.9185,6.9269,6.9414,6.9414,6.9328,0.0,6.8989,6.8929,6.8929,6.8929,6.906,6.9243,6.9449,7.0039,7.0703,7.0703,7.1289,7.1992,7.1992,7.1992,7.1836,7.0976,7.1328,7.1992,7.1992,7.1992,7.1992,7.1992,7.1992,7.1992,7.1992,7.1992,7.1992,7.1992,7.1721,7.1485,7.1485,7.1201,7.0748,7.0195,7.0129,6.9918,6.9393,6.9313,6.9511,7.0061,7.0095,7.0298,7.0843,7.1085,7.157,7.2401,7.3313,7.4247,7.523,7.6101,7.6582,7.6621,7.677,7.688,7.688,7.71,7.7187,7.7187,7.8086,7.8906,7.9726,8.0586,8.1484,3.949,4.1215,4.2345,4.0881,3.99,3.8536,3.5608,3.3006,3.088,2.9851,2.8358,2.7657,2.8858,2.9167,3.0553,3.4592,3.5887,0.0,4.1773,4.5264,4.8234,5.038,5.5465,5.9391,6.0891,6.2694,6.4089,6.4936,6.5013,6.5303,6.6007,6.6028,6.6028,6.6028,6.6028,6.6109,6.6305,6.6385,6.6605,6.6923,6.7063,6.7285,6.7648,6.7648,6.7654,6.7695,6.7695,6.7919,6.8248,6.7594,6.7959,6.8825,6.8255,6.8504,6.9192,6.9255,6.9521,6.9805,6.9805,7.0,7.0234,7.0234,7.0234,7.0234,6.9922,7.0859,7.1992,7.1992,7.1992,7.1992,7.1992,7.1992,7.1992,7.1992,7.1992,7.1992,7.1992,7.1802,7.1614,7.1511,7.1299,7.0863,7.0228,7.0095,6.9918,6.9393,6.9313,6.9353,6.955,6.9971,7.0374,7.0552,7.1066,7.1719,7.2442,7.3371,7.4343,7.5259,7.6115,7.6677,7.678,7.6864,7.6945,7.7103,7.7187,7.7187,7.7187,7.8633,8.0078,8.1484,8.1758,8.2031,3.4847,3.6581,3.7461,3.6138,3.5403,3.4496,3.2651,3.0739,2.9245,2.8913,2.7662,2.7117,2.8631,2.8719,2.9866,3.3928,3.5603,3.7642,4.1409,4.5504,4.9252,5.2296,5.7134,6.0597,6.1527,6.2358,6.3205,6.4051,6.4128,6.4532,6.5484,6.5586,6.5798,6.6195,6.6212,6.6305,6.6468,6.6549,6.6634,6.6696,6.6833,6.6914,6.6914,6.6914,6.6914,6.6914,6.6914,6.7099,0.0,6.6811,6.714,6.7891,6.742,6.7608,6.8216,6.8284,6.8586,6.8945,6.8945,6.914,6.9414,6.9414,6.9219,6.9062,6.9336,7.039,7.1523,7.1523,7.1758,7.1992,7.1992,7.1992,7.1992,7.1992,7.1992,7.1992,7.1992,7.1858,7.1675,7.1594,7.1442,7.1125,7.0448,7.0335,7.0141,6.9611,6.968,6.9818,6.9818,7.0413,7.0921,7.1269,7.149,7.2121,7.3542,7.3938,7.4527,7.5473,7.6331,7.6872,7.7,7.7005,7.7058,7.7187,7.7187,7.7187,7.7187,7.8867,8.0586,8.2304,8.2304,8.2304,0.0,3.315,3.3874,3.4112,3.3113,3.1882,3.0924,2.9049,0.0,2.6987,2.6264,2.6246,2.7996,2.8091,2.8891,3.1898,3.4344,3.7093,4.0461,4.5114,5.0128,5.5412,5.7473,5.9088,6.0666,6.1512,6.232,6.3166,6.3205,6.3589,6.446,6.4655,6.5187,6.6205,6.6244,6.6361,6.6622,6.6622,6.6735,6.6914,6.6914,6.6914,6.6914,6.6914,6.6914,0.0,6.6914,6.6789,6.6622,6.6622,6.6533,6.6435,6.6557,6.6622,6.6634,6.6832,6.7422,6.8125,6.8125,6.8633,6.9297,6.9258,6.8711,6.8242,6.9062,6.9922,7.0625,7.0664,7.1328,7.1992,7.1992,7.1992,7.1992,7.1992,7.1992,7.1992,7.1992,7.1858,7.1735,7.1689,7.1604,7.1364,7.0835,7.0738,7.0578,7.0105,7.0435,7.0738,7.0738,7.1186,7.1809,7.264,7.2188,7.2834,7.5332,7.4786,7.4813,7.5937,7.6758,7.7187,7.7187,7.7187,7.7187,7.7187,7.7187,7.7265,7.7383,7.8945,8.0586,8.2304,8.2304,8.2304,2.5183,0.0,2.7875,2.7139,2.7111,2.729,0.0,2.679,2.6465,2.6839,2.6264,2.6692,3.0019,2.9596,3.0807,3.7251,3.8601,4.0261,4.4355,4.9548,5.4583,5.9088,5.9973,6.0358,6.0742,6.0973,6.1473,6.232,6.2358,6.2821,6.3767,6.3883,6.4124,6.463,6.4638,6.534,6.6832,6.6832,6.6834,6.6914,6.6914,6.6914,6.6914,6.6914,6.6914,6.6914,6.6914,6.6874,6.6832,6.6832,6.6828,6.6784,6.683,6.6832,6.6833,6.6875,6.7031,6.7226,6.7226,6.7344,6.75,6.75,6.7344,6.7226,6.7461,6.8555,6.9922,7.0547,7.1328,7.1992,7.1992,7.1992,7.1992,7.1992,7.1992,7.1992,7.1992,7.1952,7.1864,7.1741,7.1675,7.1575,7.1325,7.1295,7.128,7.1154,7.1225,7.1295,7.1295,7.1494,7.1729,7.1924,7.2553,7.3433,7.4724,7.4645,7.5194,7.6797,7.7109,7.7187,7.7187,7.7187,7.7187,7.7187,7.7187,7.7812,7.9101,7.9492,8.0586,8.2304,8.2304,8.2304,2.3117,2.4728,2.6236,2.5868,2.6107,2.6502,2.6767,2.6051,2.5394,2.5616,2.5616,2.6408,2.9205,2.9953,3.1875,3.7292,3.9712,4.3035,4.9226,5.3311,5.6934,6.0396,6.0781,6.0781,6.0781,6.0781,6.1012,6.1473,6.1512,6.1912,6.2874,6.2955,6.3293,6.3934,6.406,6.4818,6.6289,6.6289,6.6484,6.6914,6.6914,6.6914,6.6914,6.6914,6.6914,6.6914,6.6914,6.6914,6.6914,6.6914,6.6914,6.6914,6.6914,6.6914,6.6914,6.6914,6.6914,6.6914,6.6914,6.6914,6.6914,6.6914,6.6914,6.6914,6.6914,6.7851,6.8984,6.9414,7.0156,7.0898,7.1289,7.1406,7.1484,7.1914,7.1992,7.1992,7.1992,7.1992,7.1952,7.1861,7.1854,7.1807,7.1728,7.1714,7.1714,7.1714,7.1714,7.1714,7.1714,7.1797,7.1971,7.2401,7.2614,7.3398,7.5039,7.4844,7.5351,7.7109,7.7187,7.7187,7.7187,7.7187,7.7187,7.7187,7.7187,7.8008,7.9687,7.9687,8.0586,8.2304,8.2304,8.2304,2.3393,2.5216,2.6922,2.6846,2.7091,2.7393,2.7492,0.0,0.0,0.0,2.5291,2.645,2.8668,3.065,3.3105,3.6595,4.0722,4.6123,5.3622,5.6011,5.7934,6.0512,6.0781,6.0781,6.0781,6.0781,6.0781,6.0781,6.0781,6.1127,6.1858,6.2007,6.246,6.3353,6.3574,6.414,6.5155,6.5312,6.5781,6.6484,6.664,6.6719,6.6719,6.6836,6.6914,6.6914,0.0,0.0,6.6914,6.6914,6.6914,6.6914,6.6914,6.6914,6.6914,6.6914,6.6914,6.6914,6.6914,6.6914,6.6914,6.6914,6.6914,6.6914,6.6914,6.7422,6.8008,6.7968,6.8671,6.9609,7.0312,7.0625,7.0898,7.164,7.1914,7.1992,7.1992,7.1992,7.1992,7.1992,7.1992,7.1992,7.1992,7.1992,7.1992,7.1992,7.1992,7.1992,7.1992,7.1992,7.2265,7.3008,7.2578,7.3164,7.5508,7.5156,7.5508,7.7109,7.7187,7.7187,7.7187,7.7187,7.7187,7.7187,7.7187,7.7969,7.9531,7.9648,8.0547,8.2109,8.2226,8.2304,2.4543,2.6892,2.8014,2.5429,2.6198,2.7386,2.6477,2.6018,0.0,0.0,0.0,2.8962,3.4064,3.4724,3.6619,4.3149,4.7137,5.0835,5.4934,5.6357,5.7934,6.0512,6.0781,6.0781,6.0781,6.0781,6.0781,6.0781,6.0781,6.0858,6.0973,6.102,6.1155,6.1436,6.1629,6.221,6.3238,6.4059,6.457,6.4726,6.5469,6.5781,6.582,6.6562,6.6914,6.6914,0.0,6.6914,6.6914,6.6914,6.6914,6.6914,6.6914,6.6914,6.6914,6.6914,6.6914,6.6914,6.6914,6.6914,6.6914,6.6914,6.6914,6.6914,6.6914,6.6992,6.707,6.6883,6.8112,6.9531,6.9648,7.0195,7.0742,7.0859,7.1445,7.1992,7.1992,7.1992,7.1992,7.1992,7.1992,7.1992,7.1992,7.1992,7.1992,7.1992,7.1992,7.1992,7.1992,7.1992,7.2031,7.2187,7.2734,7.3555,7.4687,7.5351,7.6133,7.7148,7.7187,7.7187,7.7187,7.7187,7.7187,7.7187,7.7187,7.7695,7.8672,7.9375,8.0234,8.1211,8.1953,8.2304,2.2835,2.5439,2.7437,2.5949,2.8034,3.0587,3.1016,3.0116,2.9538,0.0,0.0,0.0,3.5716,3.7404,4.0392,4.6807,5.0627,5.3587,5.6049,5.7511,5.8973,6.0589,6.0781,6.0781,6.0781,6.0781,6.0781,6.0781,6.0781,6.0781,6.0781,6.0781,6.0839,6.0997,6.1097,6.1396,6.1967,6.2453,6.3213,6.4297,6.4726,6.4883,6.4922,6.5781,6.6211,6.6211,0.0,6.6914,6.6914,6.6914,6.6914,6.6914,6.6914,6.6914,6.6914,6.6914,6.6914,6.6914,6.6914,6.6914,6.6914,6.6914,6.6914,6.6875,6.6784,6.6738,6.6687,6.6525,6.7195,6.8027,6.8499,6.8929,6.9322,6.9921,7.0703,7.1289,7.1289,7.168,7.1992,7.1992,7.1992,7.1992,7.1992,7.1992,7.1992,7.1992,7.1992,7.1992,7.1992,7.1992,7.1992,7.1992,7.2344,7.3125,7.4492,7.4961,7.5781,7.7109,7.7187,7.7187,7.7187,7.7187,7.7187,7.7187,7.7187,7.7851,7.914,7.9531,8.039,8.1719,8.2109,8.2304,2.1989,2.4154,2.6387,2.7266,2.9719,3.2464,3.4613,3.3521,3.2631,0.0,0.0,0.0,3.7477,4.0436,4.422,4.9097,5.2412,5.5061,5.7049,5.8396,5.9627,6.0666,6.0781,6.0781,6.0781,6.0781,6.0781,6.0781,6.0781,6.0781,6.0781,6.0781,6.0856,6.0944,6.0979,6.1081,6.1227,6.1265,6.2054,6.3581,6.3816,6.3938,6.398,6.4841,6.5272,6.5312,6.6015,6.6406,6.6601,6.6601,6.6719,6.6914,6.6914,6.6914,6.6914,6.6914,6.6914,6.6875,6.6833,6.6832,6.6832,6.6787,6.6784,6.6738,6.6603,6.6541,6.6525,6.6374,6.6385,6.6663,6.736,6.7719,6.8053,6.8935,6.9763,7.0427,7.0664,7.1211,7.1758,7.1953,7.1992,7.1992,7.1992,7.1992,7.1992,7.1992,7.1992,7.1992,7.1992,7.1992,7.1992,7.1992,7.1992,7.2695,7.4453,7.4805,7.5547,7.7109,7.7187,7.7187,7.7187,7.7187,7.7187,7.7187,7.7187,7.793,7.9414,7.9609,8.0508,8.1992,8.2187,8.2304,2.4357,2.4966,2.5473,2.8991,2.957,3.0067,3.3141,3.3199,0.0,3.7577,0.0,0.0,4.1442,4.486,4.8065,5.0334,5.2509,5.4943,5.7774,5.8319,5.8973,6.0589,6.0781,6.0781,6.0781,6.0781,6.0781,6.0781,6.0781,6.0781,6.0781,6.0781,6.0804,6.0827,6.0964,6.1014,6.1031,6.1214,6.1379,6.1518,6.2335,6.2795,6.2959,6.3818,6.4278,6.4414,6.4453,6.4961,6.5703,6.5703,6.6172,6.6914,6.6914,6.6914,6.6914,6.6914,6.6914,6.6874,6.6687,6.6622,6.661,6.6468,6.6423,6.6423,6.6412,6.6412,6.6374,6.6161,6.6146,6.6179,6.6439,6.7112,6.7782,6.7975,6.8697,6.9577,7.0506,7.0742,7.1015,7.1836,7.1992,7.1992,7.1992,7.1992,7.1992,7.1992,7.1992,7.1992,7.1992,7.1992,7.1992,7.1992,7.1992,7.2695,7.4453,7.5351,7.6211,7.7148,7.7187,7.7187,7.7187,7.7187,7.7187,7.7187,7.7187,7.7656,7.8594,7.9336,8.0195,8.1094,8.1914,8.2304,2.099,2.3453,2.5982,2.7818,2.9949,0.0,0.0,3.7077,3.8975,4.1855,4.2837,0.0,4.4378,4.6338,4.8471,5.0476,5.2965,5.5301,5.722,5.8396,5.9281,5.9935,6.0534,6.0864,6.0804,6.0882,6.0902,6.0804,6.0781,6.0781,6.0781,6.0781,6.0781,6.0781,6.0856,6.0882,6.0882,6.0945,6.0983,6.0983,6.1536,6.187,6.2011,6.287,6.3377,6.3515,6.4062,6.4492,6.4805,6.4805,6.5,6.5273,6.5273,6.5273,6.5312,6.5768,6.5911,6.5946,6.6321,6.6478,6.6468,6.6412,6.6387,6.6374,6.6244,6.6212,6.62,6.6003,6.5755,6.559,6.6108,6.6445,6.6726,6.6953,6.7703,6.8658,6.9581,7.0267,7.0976,7.1836,7.1992,7.1992,7.1992,7.1992,7.1992,7.1992,7.1992,7.1992,7.1992,7.1992,7.1992,7.1992,7.2461,7.3086,7.375,7.4609,7.5469,7.6328,7.6914,7.7187,7.7187,7.7187,7.7187,7.7187,7.7187,7.7617,7.8515,7.9297,8.0156,8.1015,8.1875,8.2304,1.9447,2.2247,2.5509,2.732,0.0,0.0,3.7506,3.9806,4.1905,4.4564,4.5516,4.5883,4.5883,4.6935,4.8471,5.0476,5.3003,5.5262,5.6797,5.7973,5.8896,5.9435,6.0152,6.0672,6.086,6.0944,6.0963,6.086,6.085,6.0781,6.0781,6.0781,6.0781,6.0781,6.0781,6.0781,6.0781,6.0834,6.0839,6.086,6.1143,6.1344,6.1463,6.2116,6.2475,6.2617,6.3203,6.3633,6.3906,6.3906,6.4062,6.4297,6.4297,6.4257,6.4289,6.476,6.4879,6.4918,6.5661,6.5878,6.5941,6.619,6.6234,6.6217,6.6089,6.6028,6.6024,6.5933,6.5542,6.5184,6.5664,6.5649,6.5635,6.58,6.6508,6.737,6.8358,6.9455,7.0503,7.1406,7.1797,7.1992,7.1992,7.1992,7.1992,7.1992,7.1992,7.1992,7.1992,7.1992,7.1992,7.1992,7.2539,7.3008,7.3281,7.3867,7.4687,7.582,7.6445,7.6914,7.7187,7.7187,7.7187,7.7187,7.7187,7.7617,7.8515,7.9297,8.0156,8.1015,8.1875,8.2304,2.0799,2.1827,2.3653,2.7981,0.0,0.0,3.9334,4.0526,4.1577,4.515,4.592,4.592,4.592,4.6969,4.8471,5.0476,5.2558,5.4612,5.672,5.6973,5.7627,5.9281,5.965,6.0106,6.0881,6.0958,6.0997,6.0997,6.0882,6.0781,6.0781,6.0781,6.0781,6.0781,6.0781,6.0781,6.0781,6.0925,6.0997,6.1014,6.1214,6.1289,6.1289,6.1424,6.1577,6.1719,6.1719,6.2187,6.3008,6.3008,6.3515,6.4258,6.4258,6.4209,6.4085,6.4085,6.3943,6.3884,6.4571,6.4792,6.4909,6.5649,6.5897,6.5897,6.5897,6.5897,6.5897,6.5897,6.5513,6.5099,6.5099,6.4731,6.4406,6.4584,6.5015,6.5743,6.6942,6.8271,6.9494,7.0507,7.1406,7.1992,7.1992,7.1992,7.1992,7.1992,7.1992,7.1992,7.1992,7.1992,7.1992,7.1992,7.1992,7.2344,7.3203,7.3281,7.4023,7.5781,7.5898,7.6289,7.7148,7.7187,7.7187,7.7187,7.7187,7.7617,7.8476,7.9297,8.0156,8.1015,8.1875,8.2304,1.9877,2.2899,2.6587,2.9244,0.0,0.0,0.0,4.2377,0.0,0.0,4.7788,4.7597,4.7597,4.8394,4.9532,5.0988,5.2717,5.4421,5.5874,5.6588,5.7165,5.7665,5.8414,5.8931,5.9086,5.9746,6.0074,5.9973,6.0481,6.0781,6.0781,6.0781,6.0781,6.0781,6.0781,6.0856,6.0925,6.0961,6.1081,6.1214,6.1373,6.1424,6.1424,6.1491,6.1577,6.1719,6.1719,6.1836,6.2109,6.2109,6.2182,6.2315,6.2315,6.2233,6.2211,6.2756,6.2958,6.2977,6.3701,6.4309,6.4812,6.4956,6.5397,6.5897,6.5897,6.5897,6.5808,6.5446,6.5003,6.4518,6.4138,6.326,6.2767,6.4143,6.4955,6.5673,6.6746,6.7654,6.8752,7.039,7.0898,7.1289,7.1875,7.1992,7.1992,7.1992,7.1992,7.1992,7.1992,7.1992,7.1992,7.1992,7.1992,7.2109,7.2344,7.2383,7.3125,7.4883,7.5,7.5664,7.7148,7.7187,7.7187,7.7187,7.7187,7.7344,7.7578,7.8437,7.9297,8.0117,8.0976,8.1636,2.1464,2.5212,0.0,3.237,3.6218,4.0078,4.2878,0.0,0.0,0.0,4.8679,4.84,4.874,4.9635,5.0658,5.17,5.3427,5.4871,5.5605,5.6126,5.6588,5.6934,5.7582,5.8097,5.8355,5.8952,5.9241,5.9127,5.9848,6.0281,6.0281,6.0589,6.0811,6.0882,6.0882,6.0964,6.1128,6.1161,6.125,6.1373,6.1509,6.158,6.158,6.158,6.1631,6.1719,6.1719,6.1719,6.1719,6.1719,6.1637,6.158,6.158,6.1504,6.1451,6.1909,6.2074,6.2121,6.2905,6.3451,6.3903,6.4475,6.4995,6.5436,6.5782,6.5897,6.5781,6.5261,6.4765,6.4255,6.3723,6.2622,6.186,6.3039,6.3761,6.4448,6.5329,6.6552,6.7911,6.9316,7.0194,7.0859,7.1406,7.1758,7.1992,7.1992,7.1992,7.1992,7.1992,7.1992,7.1992,7.1992,7.1992,7.1992,7.1992,7.1992,7.2734,7.4492,7.4609,7.539,7.7148,7.7187,7.7187,7.7187,7.7187,7.7187,7.7187,7.8086,7.875,7.9258,8.0469,8.1208,2.456,2.8083,3.1891,3.629,3.8875,0.0,4.5543,4.7143,4.8134,4.9324,0.0,4.8737,4.9466,5.0634,5.1697,5.2436,5.4204,5.5511,5.5588,5.5588,5.5895,5.678,5.6965,5.7379,5.8153,5.8308,5.8347,5.8347,5.9009,5.9435,5.9511,6.0242,6.0762,6.0997,6.0997,6.1112,6.1301,6.1424,6.1509,6.1515,6.1635,6.1719,6.1719,6.1719,6.1719,6.1719,6.1719,6.1719,6.1719,6.1719,6.1679,6.1679,6.1679,6.1587,6.1491,6.1498,6.1409,6.1429,6.2157,6.2352,6.2564,6.4077,6.4514,6.4628,6.5513,6.5782,6.5666,6.5222,6.4765,6.4332,6.3766,6.2634,6.1678,6.1604,6.1947,6.2509,6.3236,6.5109,6.6911,6.7751,6.9283,7.0508,7.0664,7.1367,7.1914,7.1992,7.1992,7.1992,7.1992,7.1992,7.1992,7.1992,7.1992,7.1992,7.1992,7.1992,7.2695,7.4375,7.457,7.5351,7.6992,7.7148,7.7187,7.7187,7.7187,7.7187,7.7187,7.8008,7.8437,7.8555,8.0078,8.0781,2.5038,2.8688,0.0,3.7234,4.1415,4.4831,4.6076,4.7492,4.8846,4.9797,5.0054,5.0232,5.0423,5.1195,5.1851,5.2043,5.3007,5.3972,5.4664,5.4741,5.5049,5.5857,5.5997,5.6115,5.6269,5.6925,5.731,5.731,5.8094,5.8819,5.9473,5.9665,6.0145,6.0958,6.0997,6.1147,6.1432,6.1491,6.1568,6.1677,6.1679,6.1719,6.1719,6.1719,6.1719,6.1719,6.1719,6.1719,6.1719,6.1719,6.1635,6.1525,6.1525,6.1478,6.1344,6.1478,6.1491,6.1478,6.1666,6.2055,6.2482,6.2754,6.3162,6.3743,6.4628,6.4897,6.4898,6.507,6.5035,6.4731,6.3813,6.2936,6.212,6.1733,6.1462,6.1733,6.312,6.4229,6.5528,6.75,6.8346,6.914,7.0469,7.0859,7.1211,7.1914,7.1992,7.1992,7.1992,7.1992,7.1992,7.1992,7.1992,7.1992,7.1992,7.1992,7.2461,7.3515,7.4219,7.5078,7.6133,7.6836,7.7187,7.7187,7.7187,7.7187,7.7187,7.7383,7.7812,7.8515,7.8867,7.929,2.6143,0.0,0.0,3.948,0.0,4.5632,4.6161,4.7133,4.8137,4.8979,4.9949,5.0702,5.0702,5.1356,5.1895,5.1895,5.2626,5.3356,5.3818,5.3895,5.4049,5.4434,5.4857,5.5126,5.5126,5.5857,5.6357,5.6357,5.7203,5.7857,5.828,5.8704,5.9181,5.9796,6.0184,6.0578,6.0879,6.1309,6.1577,6.1719,6.1633,6.1587,6.1629,6.1678,6.1719,6.1719,6.1719,6.1719,6.1719,6.1719,6.1677,6.1587,6.1587,6.1529,6.1504,6.1577,6.1587,6.1587,6.1587,6.1777,6.2065,6.2327,6.2585,6.2965,6.3753,6.4282,6.459,6.4496,6.4794,6.49,6.4178,6.343,6.2792,6.2512,6.188,6.1693,6.2977,6.3975,6.5153,6.6863,6.7746,6.8476,6.9336,6.9805,7.0351,7.125,7.1367,7.1523,7.1953,7.1992,7.1992,7.1992,7.1992,7.1992,7.1992,7.1992,7.2383,7.3242,7.3711,7.4375,7.5234,7.6094,7.6758,7.7187,7.7187,7.7187,7.7187,7.7187,7.7422,7.789,7.832,7.8669,2.6591,3.093,3.5541,4.1582,4.3999,0.0,4.5916,4.6531,4.7086,4.7778,4.9163,5.0279,5.0433,5.101,5.151,5.1664,5.2318,5.2818,5.2972,5.2972,5.3049,5.3164,5.3857,5.4318,5.4472,5.5088,5.5549,5.5703,5.6357,5.6819,5.6973,5.7665,5.8217,5.848,5.9194,5.9685,5.9924,6.0666,6.1164,6.1399,6.1437,6.1491,6.1504,6.159,6.1679,6.1719,6.1719,6.1719,6.1719,6.1719,6.1719,6.1719,6.1719,6.1719,6.1719,6.1719,6.1719,6.1719,6.1719,6.1629,6.1609,6.2133,6.2196,6.222,6.2921,6.3638,6.4116,6.3791,6.4259,6.4764,6.4461,6.3934,6.3541,6.3588,6.2803,6.2308,6.314,6.4121,6.5174,6.6205,6.7375,6.8203,6.8203,6.8867,6.9648,7.039,7.0469,7.0781,7.164,7.1797,7.1836,7.1992,7.1992,7.1992,7.1992,7.1992,7.2305,7.3047,7.3203,7.3633,7.4336,7.5195,7.6094,7.6953,7.7109,7.7187,7.7187,7.7187,7.7187,7.7226,7.793,7.8281,2.4336,0.0,3.647,0.0,4.3149,4.4281,0.0,0.0,4.6932,4.7048,4.7817,4.8663,4.9433,4.9663,4.9971,5.0741,5.0971,5.1279,5.1972,5.2087,5.2356,5.3126,5.3318,5.3664,5.4434,5.4587,5.4934,5.5665,5.5818,5.6203,5.6934,5.7088,5.7582,5.848,5.8612,5.876,5.888,5.8997,5.9474,6.0224,6.0983,6.1383,6.1504,6.1515,6.1584,6.1719,6.1719,6.1719,6.1719,6.1719,6.1719,6.1719,6.1719,6.1719,6.1719,6.1719,6.1719,6.1719,6.1719,6.1629,6.1504,6.1609,6.1406,6.1346,6.2181,6.2446,6.2551,6.3194,6.3592,6.384,6.4078,6.4072,6.4084,6.4386,6.4232,6.4058,6.418,6.4463,6.5015,6.6321,6.7445,6.8203,6.8203,6.8906,6.9531,6.9648,6.9609,6.9883,7.0742,7.0859,7.1172,7.1914,7.1992,7.1992,7.1992,7.1992,7.2031,7.2187,7.289,7.3359,7.3476,7.4297,7.5195,7.6055,7.6836,7.7187,7.7187,7.7187,7.7187,7.7187,7.7305,7.7383,2.5398,3.0136,3.4685,0.0,4.148,4.3123,4.4162,4.5342,4.6163,4.6163,4.6432,4.7086,4.8432,4.8663,4.8971,4.9817,4.9971,5.0279,5.1125,5.1241,5.1356,5.1741,5.2202,5.2626,5.301,5.3472,5.3933,5.428,5.4741,5.5203,5.5588,5.6011,5.6459,5.6927,5.739,5.7714,5.7857,5.8323,5.8789,5.9177,6.0125,6.0594,6.069,6.1251,6.1577,6.1719,6.1719,6.1719,6.1719,6.1719,6.1719,6.1719,6.1719,6.1719,6.1719,6.1719,6.1719,6.1719,6.1719,6.1677,6.1587,6.1515,6.1409,6.1328,6.1491,6.1892,6.2295,6.2643,6.3149,6.361,6.3798,6.3896,6.404,6.4466,6.476,6.5056,6.5319,6.5233,6.5336,6.6393,6.7057,6.7461,6.7461,6.7773,6.8203,6.8711,6.875,6.9023,6.9922,7.043,7.0859,7.1211,7.1719,7.1992,7.1992,7.1992,7.1992,7.1992,7.2344,7.2578,7.2578,7.3398,7.4062,7.4453,7.5781,7.6719,7.7187,7.7187,7.7145,7.7048,7.7048,7.7048,0.0,0.0,3.131,3.6017,3.8936,4.1177,0.0,0.0,4.5316,4.5547,4.5586,4.597,4.724,4.7663,4.8086,4.8933,4.9086,4.9317,4.9933,5.024,5.0356,5.0356,5.1087,5.1702,5.1895,5.251,5.2972,5.3164,5.3818,5.4164,5.4164,5.4934,5.5395,5.5395,5.6203,5.6732,5.6824,5.7675,5.8139,5.8139,5.9118,5.9698,6.0016,6.0776,6.133,6.1719,6.1719,6.1719,6.1719,6.1719,6.1719,6.1719,6.1719,6.1719,6.1719,6.1719,6.1719,6.1719,6.1719,6.1719,6.1679,6.158,6.152,6.1439,6.1201,6.1555,6.2034,6.2034,6.2548,6.3118,6.3279,6.3396,6.3618,6.4154,6.4613,6.5191,6.6094,6.5971,6.5851,6.6479,6.6735,6.6833,6.6875,6.6914,6.7109,6.7773,6.7851,6.8164,6.9062,6.9687,7.0234,7.0664,7.1289,7.1758,7.1992,7.1992,7.1992,7.1992,7.1992,7.1992,7.1992,7.2617,7.3086,7.3281,7.457,7.5781,7.6875,7.6875,7.6866,7.6919,7.6945,7.6945,0.0,2.3672,0.0,3.219,3.5388,3.7957,0.0,0.0,4.4586,4.5432,4.5586,4.5624,4.5701,4.6394,4.724,4.8048,4.8163,4.8202,4.824,4.8933,4.9471,4.9471,5.024,5.1048,5.1856,5.1933,5.2318,5.3126,5.3241,5.328,5.328,5.4087,5.4549,5.4549,5.5357,5.5763,5.5763,5.6648,5.7071,5.7071,5.7978,5.8952,6.0016,6.0066,6.0659,6.1719,6.1719,6.1719,6.1719,6.1719,6.1719,6.1719,6.1719,6.1719,6.1719,6.1719,6.1719,6.1719,6.1719,6.1719,6.1719,6.1679,6.1587,6.1504,6.1491,6.1422,6.1355,6.1355,6.149,6.1783,6.2457,6.2602,6.2743,6.3463,6.3666,6.4234,6.6162,6.6459,6.6396,6.6557,6.6622,6.6683,6.6874,6.6914,6.6914,6.6953,6.6953,6.7265,6.8164,6.8281,6.8945,7.0547,7.0742,7.1094,7.1914,7.1992,7.1992,7.1992,7.1992,7.1992,7.1992,7.2031,7.2461,7.3281,7.3398,7.4258,7.5976,7.5976,7.628,7.6919,7.71,7.7097,0.0,0.0,0.0,2.8691,3.2019,3.4787,3.7543,4.0521,4.2931,4.3816,4.4393,4.4932,4.5509,4.5855,4.6355,4.7201,4.7317,4.7509,4.8048,4.8355,4.8586,4.8586,4.9356,4.9971,5.0279,5.0889,5.1331,5.1568,5.2162,5.245,5.2356,5.3203,5.3664,5.3664,5.4472,5.5164,5.5703,5.6011,5.6165,5.6165,5.7049,5.7773,5.8343,5.8927,5.9794,6.0859,6.0859,6.1172,6.1679,6.1629,6.1577,6.1573,6.1491,6.1498,6.1577,6.1577,6.1633,6.1719,6.1719,6.1719,6.1719,6.1719,6.1678,6.1629,6.152,6.1485,6.1417,6.1417,6.1478,6.1568,6.1829,6.1894,6.2063,6.2883,6.3188,6.3709,6.5307,6.6034,6.6374,6.6281,6.6439,6.6628,6.6687,6.6791,6.6914,6.6914,6.6914,6.6992,6.7344,6.7851,6.8437,6.9023,7.0078,7.082,7.1133,7.168,7.1992,7.1992,7.1992,7.1992,7.1992,7.1992,7.2148,7.2461,7.2461,7.332,7.5078,7.5625,7.5968,7.606,7.6717,7.699,1.8939,0.0,0.0,0.0,2.9126,3.1464,3.5107,3.8115,4.0508,4.1931,4.2893,4.3816,4.4932,4.5163,4.5432,4.6317,4.6471,4.6663,4.7201,4.7509,4.7702,4.7702,4.8505,4.9041,4.9041,4.993,5.0491,5.041,5.1252,0.0,5.1565,5.2357,5.2936,5.3203,5.4049,5.4741,5.528,5.5549,5.5703,5.5703,5.628,5.6884,5.7409,5.7992,5.8897,6.0,6.0273,6.0898,6.1679,6.1587,6.1525,6.1498,6.1392,6.1409,6.1504,6.1504,6.158,6.1719,6.1719,6.1719,6.1719,6.1719,6.1719,6.1679,6.1584,6.1577,6.1577,6.1577,6.1577,6.1553,6.1495,6.1485,6.158,6.22,6.2656,6.3169,6.414,6.5129,6.5895,6.6069,6.6322,6.6541,6.6571,6.6784,6.6914,6.6914,6.6914,6.6914,6.6914,6.7422,6.789,6.8164,6.9219,7.0078,7.0664,7.1211,7.168,7.1992,7.1992,7.1992,7.1992,7.1992,7.1992,7.1992,7.1992,7.2578,7.3711,7.4609,7.5225,7.5631,7.6248,7.6727,0.0,0.0,0.0,0.0,0.0,0.0,3.422,3.6056,3.7238,3.9815,4.1046,4.22,4.3893,4.4239,4.4509,4.5432,4.5586,4.5586,4.5586,4.6317,4.6855,4.6855,4.7697,4.828,4.828,4.9171,4.9761,4.9761,5.0588,5.1003,5.0865,5.1625,5.2404,5.3126,5.3972,5.4434,5.4472,5.5241,5.5665,5.5665,5.5703,5.6304,5.737,5.737,5.7999,5.9219,6.0,6.082,6.164,6.168,6.1631,6.1504,6.1498,6.1504,6.1504,6.1504,6.158,6.1719,6.1719,6.1719,6.1719,6.1719,6.1719,6.1719,6.1719,6.1719,6.1719,6.1719,6.1719,6.1678,6.1525,6.14,6.1334,6.1485,6.1983,6.2534,6.2758,6.382,6.5025,6.5877,6.626,6.6446,6.6564,6.6784,6.6914,6.6914,6.6914,6.6914,6.6914,6.6914,6.7226,6.8086,6.8164,6.8867,7.0508,7.0664,7.1015,7.1914,7.1953,7.1953,7.1992,7.1992,7.1992,7.1992,7.1992,7.1992,7.1992,7.2851,7.4054,7.5553,7.5775,7.6328,1.7779,0.0,0.0,0.0,0.0,0.0,0.0,3.0529,3.3045,3.6238,3.7546,3.9008,4.197,4.2508,4.297,4.4432,4.5201,4.5586,4.5586,4.5817,4.597,4.597,4.677,4.7351,4.7351,4.837,4.895,0.0,4.9761,5.0268,5.0098,5.0804,5.157,5.2241,5.251,5.2933,5.3549,5.4395,5.4818,5.4857,5.5434,5.5977,5.6542,5.6542,5.7141,5.8281,5.8476,5.9101,5.9961,6.1115,6.152,6.1498,6.1383,6.14,6.1504,6.1504,6.158,6.1719,6.1719,6.1719,6.1719,6.1719,6.1719,6.1719,6.1719,6.1719,6.1719,6.1719,6.1719,6.1679,6.1637,6.1631,6.1587,6.1635,6.1715,6.19,6.2455,6.2872,6.357,6.51,6.6018,6.6549,6.6571,6.6784,6.6914,6.6914,6.6914,6.6914,6.6914,6.6914,6.6992,6.7226,6.7812,6.8398,6.8867,6.9414,7.0117,7.1015,7.1055,7.1328,7.1953,7.1992,7.1992,7.1992,7.1992,7.1992,7.1992,7.2851,7.3515,7.3939,7.4648,7.543,0.0,0.0,0.0,0.0,0.0,0.0,2.6668,2.83,3.0237,3.3276,3.4545,3.6059,3.9171,3.9976,4.0754,4.2472,4.3481,4.4393,4.5432,4.5632,4.5696,4.5696,4.6228,4.662,4.662,4.7585,4.8213,4.8137,4.899,4.9635,4.981,5.0158,5.0665,5.1356,5.1741,5.2164,5.2664,5.351,5.4126,5.4511,5.4972,5.5552,5.6191,5.6191,5.6634,5.7383,5.7734,5.8203,5.875,6.0027,6.071,6.099,6.1283,6.1417,6.1504,6.1504,6.158,6.1719,6.1719,6.1719,6.1719,6.1719,6.1719,6.1719,6.1719,6.1719,6.1719,6.1719,6.1719,6.1719,6.1719,6.1719,6.1719,6.1719,6.1635,6.169,6.2077,6.2453,6.3077,6.4245,6.5065,6.5679,6.5992,6.6237,6.6484,6.6836,6.6914,6.6914,6.6914,6.6914,6.6914,6.6914,6.7344,6.7812,6.8164,6.8633,6.9258,7.0117,7.0508,7.0937,7.1445,7.1797,7.1992,7.1992,7.1992,7.1992,7.1992,7.25,7.293,7.332,7.418,7.4883,2.1794,2.1976,0.0,0.0,2.4828,0.0,2.75,2.802,2.8544,3.0814,3.1852,3.3121,3.5759,3.6832,3.7858,3.9599,4.0752,4.2316,4.4932,4.551,4.5661,4.5661,4.5913,4.6089,4.6089,4.6907,4.7461,4.7461,4.8242,4.9046,4.9634,4.964,4.9923,5.0567,5.1376,5.1779,5.1779,5.2626,5.3433,5.4203,5.4318,5.4933,5.6075,5.6075,5.6244,5.664,5.7422,5.7773,5.7812,5.8711,5.9524,6.0305,6.1086,6.1437,6.1515,6.1515,6.1587,6.1719,6.1719,6.1719,6.1719,6.1719,6.1719,6.1719,6.1719,6.1719,6.1719,6.1719,6.1719,6.1719,6.1719,6.1719,6.1719,6.1719,6.1679,6.1679,6.1679,6.2264,6.2935,6.3262,6.3764,6.4307,6.5003,6.5372,6.5859,6.6601,6.6836,6.6914,6.6914,6.6914,6.6914,6.6914,6.6914,6.7226,6.8008,6.8047,6.8398,6.9219,7.0,7.0508,7.0703,7.1445,7.1875,7.1952,7.195,7.195,7.1952,7.1992,7.2383,7.3164,7.3945,7.4375,2.46,2.5739,2.6892,2.4647,0.0,0.0,2.5373,2.6381,2.8044,2.8544,2.8775,2.9671,3.2235,3.2839,3.3481,3.5162,3.7291,3.9892,4.3124,4.4274,4.4744,4.4744,4.5562,4.6089,4.6089,4.636,4.6562,4.6562,4.7344,4.8158,4.8878,4.9439,4.9768,4.9807,5.0527,5.0933,5.0933,5.1741,5.2241,5.2433,5.3126,5.4044,5.5151,5.5151,5.5659,5.6601,5.6797,5.6836,5.6914,5.7773,5.9023,6.0388,6.0544,6.1052,6.1677,6.1677,6.1679,6.1719,6.1719,6.1719,6.1719,6.1719,6.1719,6.1719,6.1719,6.1719,6.1719,6.1719,6.1719,6.1719,6.1719,6.1719,6.1719,6.1719,6.1631,6.1525,6.1525,6.1588,6.1656,6.1719,6.302,6.4099,6.4091,6.4833,6.5512,6.5668,6.6361,6.6914,6.6914,6.6914,6.6914,6.6914,6.6914,6.6953,6.7148,6.7148,6.7539,6.8398,6.8594,6.9297,7.0625,7.0859,7.1207,7.1753,7.1633,7.1633,7.1753,7.191,7.2109,7.2265,7.2422,7.289,2.6883,2.7304,2.7941,2.6656,0.0,0.0,0.0,2.6233,2.6967,2.8236,2.7813,2.8027,3.0644,3.1053,3.1492,3.2806,3.4751,3.6699,3.843,4.1312,4.3412,4.3906,4.4118,4.4543,4.5456,4.5623,4.582,4.6289,4.6719,4.7256,4.7912,4.8319,4.8615,4.8839,4.9643,5.0048,5.0048,5.0894,5.151,5.1933,5.2356,5.3103,5.4181,5.4652,5.5248,5.5888,5.6366,5.656,5.6549,5.6978,5.7824,5.8978,5.9567,6.0312,6.1055,6.1055,6.1328,6.1719,6.1719,6.1719,6.1719,6.1719,6.1719,6.1719,6.1719,6.1719,6.1719,6.1719,6.1719,6.1719,6.1719,6.1719,6.1719,6.1719,6.1637,6.1587,6.1587,6.1568,6.1491,6.14,6.218,6.2882,6.3153,6.3663,6.4302,6.525,6.5833,6.632,6.6836,6.6914,6.6914,6.6914,6.6914,6.6914,6.6914,6.6914,6.7109,6.7539,6.7969,6.8594,6.9414,7.0273,7.1009,7.1689,7.1572,7.1524,7.1604,7.1753,7.1908,7.1992,7.1992,7.2226,0.0,0.0,0.0,0.0,0.0,2.8011,0.0,0.0,0.0,2.8078,2.7325,2.7075,0.0,0.0,0.0,3.0666,0.0,0.0,0.0,3.7293,0.0,4.1785,4.1891,4.249,4.4101,4.4101,4.457,4.5937,4.5586,4.5807,4.6933,4.7133,4.7427,4.785,4.872,4.924,4.9394,5.0087,5.0856,5.1664,5.1664,5.2183,5.3204,5.3999,5.4606,5.5093,5.5918,5.6302,5.6368,5.6368,5.6675,5.7274,5.8402,5.9368,6.0071,6.0071,6.0659,6.1404,6.1404,6.1523,6.1719,6.1719,6.1719,6.1719,6.1719,6.1719,6.1719,6.1719,6.1719,6.1719,6.1719,6.1719,6.1719,6.1719,6.1719,6.1719,6.1719,6.1679,6.1633,6.1515,6.1491,6.1651,6.2246,6.253,6.3166,6.4658,6.5228,6.572,6.6562,6.6797,6.6914,6.6914,6.6914,6.6914,6.6914,6.6914,6.6914,6.6914,6.7578,6.8008,6.8203,6.9605,7.0675,7.1386,7.1251,7.1225,7.1427,7.1533,7.1735,7.195,7.1992,7.1992,0.0,0.0,0.0,0.0,3.2025,0.0,0.0,0.0,2.8282,2.6318,0.0,0.0,0.0,0.0,0.0,0.0,0.0,0.0,2.9775,3.2199,3.4691,3.6469,3.8726,4.0546,4.1523,4.0937,4.1797,4.4922,4.3047,4.3081,4.608,4.6824,4.7162,4.7129,4.7885,4.8625,4.9394,4.951,4.9971,5.0818,5.0818,5.1352,5.2259,5.2366,5.3327,5.4938,5.5034,5.5531,5.6212,5.6212,5.629,5.6436,5.7284,5.8121,5.89,5.89,5.9513,6.0388,6.0388,6.0965,6.1719,6.1719,6.1719,6.1719,6.1719,6.1719,6.1719,6.1719,6.1719,6.1719,6.1719,6.1719,6.1719,6.1719,6.1719,6.1719,6.1719,6.1629,6.1515,6.1504,6.1392,6.1351,6.1445,6.2171,6.2864,6.3065,6.4519,6.5624,6.5742,6.6406,6.6914,6.6914,6.6914,6.6914,6.6914,6.6914,6.6914,6.6914,6.6992,6.7383,6.8164,6.878,6.9511,7.033,7.0075,7.0343,7.1223,7.1262,7.1418,7.1747,7.191,7.1992,0.0,0.0,0.0,0.0,0.0,0.0,2.7879,0.0,2.7073,0.0,0.0,0.0,0.0,0.0,0.0,0.0,2.7932,0.0,0.0,0.0,3.1195,3.3972,0.0,0.0,3.8711,3.9062,4.0156,4.2617,4.1245,4.1569,4.4384,4.5211,4.5803,4.6198,4.6985,4.7586,4.7971,4.8894,4.9586,4.9933,5.0471,5.0932,5.131,5.1866,5.2535,5.3353,5.4419,5.5058,5.5359,5.5811,5.5986,5.5952,5.6261,5.7038,5.7954,5.7954,5.854,5.9404,5.991,6.0364,6.0795,6.1377,6.158,6.1587,6.1679,6.1719,6.1719,6.1719,6.1719,6.1719,6.1719,6.1719,6.1719,6.1719,6.1719,6.1719,6.1719,6.1677,6.1631,6.1631,6.1577,6.152,6.152,6.1744,6.2141,6.2707,6.3481,6.4209,6.4765,6.5625,6.6133,6.6133,6.6601,6.6914,6.6914,6.6914,6.6914,6.6914,6.6914,6.7305,6.8164,6.8261,6.865,6.9422,6.9692,6.9996,7.0334,7.1029,7.1442,7.1594,7.1741,7.1906,3.372,0.0,0.0,0.0,0.0,0.0,0.0,0.0,0.0,0.0,0.0,0.0,0.0,0.0,0.0,0.0,0.0,2.7274,0.0,2.6684,0.0,0.0,0.0,0.0,0.0,3.6014,3.7224,3.9877,3.8759,3.9396,4.283,4.3746,4.4457,4.5218,4.6086,4.6663,4.6894,4.8125,4.8933,4.9394,5.0048,5.0471,5.0721,5.1404,5.1834,5.2105,5.3494,5.4163,5.4332,5.5183,5.5461,5.5395,5.5588,5.6212,5.6925,5.6925,5.7509,5.8363,5.9024,5.9554,6.0155,6.1136,6.1463,6.1485,6.1587,6.1635,6.1637,6.1679,6.1719,6.1719,6.1719,6.1719,6.1719,6.1719,6.1719,6.1719,6.1719,6.1719,6.1719,6.1719,6.1719,6.1719,6.1719,6.1525,6.1658,6.2384,6.2705,6.3107,6.3867,6.4687,6.5234,6.5234,6.6015,6.6523,6.6523,6.6758,6.6914,6.6914,6.6914,6.7187,6.7812,6.7668,6.7868,6.8588,6.9056,6.9478,6.9865,7.071,7.1278,7.156,7.1721,7.1861,0.0,0.0,0.0,3.1903,0.0,0.0,0.0,0.0,2.8752,0.0,0.0,0.0,0.0,0.0,0.0,0.0,0.0,0.0,0.0,0.0,0.0,0.0,0.0,0.0,0.0,3.0762,3.188,0.0,3.4859,3.5927,4.1745,4.2807,4.3568,4.4333,4.5201,4.6047,4.6894,4.6971,4.7778,4.9394,4.9433,4.9894,5.0702,5.0721,5.1183,5.1895,5.1991,5.2492,5.3338,5.4185,5.4549,5.4626,5.5395,5.5724,5.5724,5.5724,5.6367,5.7273,5.7273,5.8478,6.0133,6.1028,6.1289,6.1323,6.1478,6.1509,6.152,6.1677,6.1719,6.1719,6.1719,6.1719,6.1719,6.1719,6.1719,6.1719,6.1719,6.1719,6.1719,6.1719,6.1719,6.1719,6.1719,6.1679,6.1718,6.1718,6.2461,6.3008,6.3047,6.3789,6.4336,6.4336,6.5117,6.5625,6.5625,6.6406,6.6914,6.6914,6.6914,6.6914,6.6953,6.6731,6.7045,6.7929,6.7771,6.85,7.0173,7.0226,7.0742,7.1689,7.1906,7.1992,0.0,0.0,3.8013,3.4052,0.0,0.0,0.0,0.0,0.0,0.0,0.0,0.0,0.0,0.0,0.0,0.0,0.0,0.0,0.0,0.0,0.0,0.0,0.0,0.0,0.0,0.0,0.0,3.423,3.3106,0.0,3.9995,4.1556,4.2896,4.4239,4.5163,4.574,4.6047,4.6624,4.7201,4.7778,4.8856,4.9602,4.9969,5.0549,5.1014,5.1399,5.1942,5.233,5.2665,5.3459,5.4104,5.4648,5.4842,5.5241,5.5703,5.5703,5.592,5.6271,5.6849,5.7873,5.9011,5.9979,6.0298,6.0459,6.1167,6.1364,6.1383,6.152,6.1577,6.1584,6.1679,6.1719,6.1719,6.1719,6.1719,6.1719,6.1719,6.1719,6.1719,6.1719,6.1719,6.1719,6.1719,6.1719,6.1719,6.1719,6.1953,6.2148,6.2148,6.289,6.3437,6.3437,6.4219,6.4961,6.5547,6.6406,6.6914,6.6914,6.6914,6.6914,6.6914,6.6833,6.6856,6.7045,6.7555,6.8037,6.8475,6.9206,6.9701,7.005,7.0228,7.0898,3.793,3.8623,0.0,3.5495,3.4311,0.0,2.9666,0.0,0.0,0.0,0.0,0.0,0.0,0.0,0.0,0.0,0.0,0.0,0.0,2.3767,0.0,0.0,0.0,0.0,0.0,0.0,2.81,3.1484,3.1197,0.0,0.0,4.0145,4.197,4.3355,4.4816,4.5586,4.5586,4.6163,4.6586,4.6932,4.8009,4.8904,4.9611,5.0192,5.0675,5.1133,5.1629,5.1841,5.1863,5.2637,5.3227,5.376,5.4303,5.4818,5.5318,5.5588,5.5703,5.5818,5.6703,5.7357,5.8017,5.8954,5.9437,5.9841,6.0561,6.0967,6.1253,6.1432,6.1504,6.152,6.1678,6.1719,6.1719,6.1719,6.1719,6.1719,6.1719,6.1719,6.1719,6.1719,6.1719,6.1719,6.1719,6.1719,6.1719,6.1719,6.1719,6.1719,6.1719,6.2187,6.2539,6.2539,6.332,6.4336,6.5508,6.6094,6.6562,6.6875,6.6914,6.6914,6.6914,6.6914,6.6833,6.6692,6.7277,6.7643,6.782,6.8507,6.8996,6.9269,6.9372,7.0]}]]